<?xml version="1.0" encoding="UTF-8" standalone="no" ?>
<gpx xmlns="http://www.topografix.com/GPX/1/1" xmlns:xsi="http://www.w3.org/2001/XMLSchema-instance" xsi:schemaLocation="http://www.topografix.com/GPX/1/1 http://www.topografix.com/GPX/1/1/gpx.xsd" version="1.1" creator="VisuGPX - https://www.visugpx.com">
  <metadata>
    <name>PassPortes Gravel 2023  Jour 1</name>
  </metadata>
  <trk>
    <name><![CDATA[PassPortes Gravel 2023  Jour 1 - Trail Running Portes du Soleil]]></name>
    <extensions>
      <line xmlns="http://www.topografix.com/GPX/gpx_style/0/2">
        <color>0000FF</color>
        <width>4</width>
      </line>
    </extensions>
    <trkseg>
      <trkpt lat="46.18139" lon="6.70434">
        <ele>973</ele>
        <time>2000-01-01T02:40:49.000Z</time>
      </trkpt>
      <trkpt lat="46.18136" lon="6.70442">
        <ele>973.1</ele>
        <time>2000-01-01T02:40:59.000Z</time>
      </trkpt>
      <trkpt lat="46.18124" lon="6.70484">
        <ele>973</ele>
        <time>2000-01-01T02:41:09.000Z</time>
      </trkpt>
      <trkpt lat="46.18115" lon="6.70504">
        <ele>973.7</ele>
        <time>2000-01-01T02:41:19.000Z</time>
      </trkpt>
      <trkpt lat="46.18101" lon="6.70531">
        <ele>973</ele>
        <time>2000-01-01T02:41:29.000Z</time>
      </trkpt>
      <trkpt lat="46.18085" lon="6.70547">
        <ele>973</ele>
        <time>2000-01-01T02:41:39.000Z</time>
      </trkpt>
      <trkpt lat="46.18059" lon="6.70564">
        <ele>972</ele>
        <time>2000-01-01T02:41:49.000Z</time>
      </trkpt>
      <trkpt lat="46.18019" lon="6.7059">
        <ele>969</ele>
        <time>2000-01-01T02:41:59.000Z</time>
      </trkpt>
      <trkpt lat="46.17976" lon="6.70593">
        <ele>970</ele>
        <time>2000-01-01T02:42:09.000Z</time>
      </trkpt>
      <trkpt lat="46.17959" lon="6.70598">
        <ele>968.3</ele>
        <time>2000-01-01T02:42:19.000Z</time>
      </trkpt>
      <trkpt lat="46.17947" lon="6.70607">
        <ele>967</ele>
        <time>2000-01-01T02:42:29.000Z</time>
      </trkpt>
      <trkpt lat="46.17939" lon="6.70622">
        <ele>968.4</ele>
        <time>2000-01-01T02:42:39.000Z</time>
      </trkpt>
      <trkpt lat="46.17933" lon="6.70643">
        <ele>965</ele>
        <time>2000-01-01T02:42:49.000Z</time>
      </trkpt>
      <trkpt lat="46.17922" lon="6.70684">
        <ele>964</ele>
        <time>2000-01-01T02:42:59.000Z</time>
      </trkpt>
      <trkpt lat="46.17902" lon="6.70757">
        <ele>964</ele>
        <time>2000-01-01T02:43:09.000Z</time>
      </trkpt>
      <trkpt lat="46.17894" lon="6.70792">
        <ele>964</ele>
        <time>2000-01-01T02:43:19.000Z</time>
      </trkpt>
      <trkpt lat="46.1789" lon="6.70819">
        <ele>960.4</ele>
        <time>2000-01-01T02:43:29.000Z</time>
      </trkpt>
      <trkpt lat="46.17888" lon="6.70851">
        <ele>958</ele>
        <time>2000-01-01T02:43:39.000Z</time>
      </trkpt>
      <trkpt lat="46.17889" lon="6.7087">
        <ele>958.3</ele>
        <time>2000-01-01T02:43:49.000Z</time>
      </trkpt>
      <trkpt lat="46.17888" lon="6.70879">
        <ele>958</ele>
        <time>2000-01-01T02:43:59.000Z</time>
      </trkpt>
      <trkpt lat="46.17886" lon="6.70885">
        <ele>958.9</ele>
        <time>2000-01-01T02:44:09.000Z</time>
      </trkpt>
      <trkpt lat="46.17887" lon="6.709">
        <ele>959</ele>
        <time>2000-01-01T02:44:19.000Z</time>
      </trkpt>
      <trkpt lat="46.17894" lon="6.70907">
        <ele>958</ele>
        <time>2000-01-01T02:44:29.000Z</time>
      </trkpt>
      <trkpt lat="46.17915" lon="6.70909">
        <ele>958</ele>
        <time>2000-01-01T02:44:39.000Z</time>
      </trkpt>
      <trkpt lat="46.17926" lon="6.70907">
        <ele>958.8</ele>
        <time>2000-01-01T02:44:49.000Z</time>
      </trkpt>
      <trkpt lat="46.17936" lon="6.7088">
        <ele>958</ele>
        <time>2000-01-01T02:44:59.000Z</time>
      </trkpt>
      <trkpt lat="46.17936" lon="6.70868">
        <ele>955.3</ele>
        <time>2000-01-01T02:45:09.000Z</time>
      </trkpt>
      <trkpt lat="46.17932" lon="6.70868">
        <ele>955.3</ele>
        <time>2000-01-01T02:45:19.000Z</time>
      </trkpt>
      <trkpt lat="46.17932" lon="6.7085">
        <ele>957</ele>
        <time>2000-01-01T02:45:29.000Z</time>
      </trkpt>
      <trkpt lat="46.17935" lon="6.70835">
        <ele>955.3</ele>
        <time>2000-01-01T02:45:39.000Z</time>
      </trkpt>
      <trkpt lat="46.17951" lon="6.70804">
        <ele>954</ele>
        <time>2000-01-01T02:45:49.000Z</time>
      </trkpt>
      <trkpt lat="46.17958" lon="6.70786">
        <ele>954.5</ele>
        <time>2000-01-01T02:45:59.000Z</time>
      </trkpt>
      <trkpt lat="46.17968" lon="6.70769">
        <ele>953</ele>
        <time>2000-01-01T02:46:09.000Z</time>
      </trkpt>
      <trkpt lat="46.17989" lon="6.70754">
        <ele>953</ele>
        <time>2000-01-01T02:46:19.000Z</time>
      </trkpt>
      <trkpt lat="46.18012" lon="6.70738">
        <ele>951</ele>
        <time>2000-01-01T02:46:29.000Z</time>
      </trkpt>
      <trkpt lat="46.18035" lon="6.70726">
        <ele>950</ele>
        <time>2000-01-01T02:46:39.000Z</time>
      </trkpt>
      <trkpt lat="46.1806" lon="6.70713">
        <ele>950</ele>
        <time>2000-01-01T02:46:49.000Z</time>
      </trkpt>
      <trkpt lat="46.1807" lon="6.70706">
        <ele>949.7</ele>
        <time>2000-01-01T02:46:59.000Z</time>
      </trkpt>
      <trkpt lat="46.18074" lon="6.70702">
        <ele>949.5</ele>
        <time>2000-01-01T02:47:09.000Z</time>
      </trkpt>
      <trkpt lat="46.1809" lon="6.70672">
        <ele>948</ele>
        <time>2000-01-01T02:47:19.000Z</time>
      </trkpt>
      <trkpt lat="46.18102" lon="6.70639">
        <ele>947</ele>
        <time>2000-01-01T02:47:29.000Z</time>
      </trkpt>
      <trkpt lat="46.18117" lon="6.70599">
        <ele>947</ele>
        <time>2000-01-01T02:47:39.000Z</time>
      </trkpt>
      <trkpt lat="46.18127" lon="6.70593">
        <ele>947.3</ele>
        <time>2000-01-01T02:47:49.000Z</time>
      </trkpt>
      <trkpt lat="46.18159" lon="6.70598">
        <ele>946</ele>
        <time>2000-01-01T02:47:59.000Z</time>
      </trkpt>
      <trkpt lat="46.18169" lon="6.70588">
        <ele>944.9</ele>
        <time>2000-01-01T02:48:09.000Z</time>
      </trkpt>
      <trkpt lat="46.18176" lon="6.70576">
        <ele>948</ele>
        <time>2000-01-01T02:48:19.000Z</time>
      </trkpt>
      <trkpt lat="46.18183" lon="6.7056">
        <ele>945.3</ele>
        <time>2000-01-01T02:48:29.000Z</time>
      </trkpt>
      <trkpt lat="46.18184" lon="6.70548">
        <ele>947</ele>
        <time>2000-01-01T02:48:39.000Z</time>
      </trkpt>
      <trkpt lat="46.18191" lon="6.70544">
        <ele>947.8</ele>
        <time>2000-01-01T02:48:49.000Z</time>
      </trkpt>
      <trkpt lat="46.18196" lon="6.70545">
        <ele>946.7</ele>
        <time>2000-01-01T02:48:59.000Z</time>
      </trkpt>
      <trkpt lat="46.18205" lon="6.70535">
        <ele>947</ele>
        <time>2000-01-01T02:49:09.000Z</time>
      </trkpt>
      <trkpt lat="46.18226" lon="6.70504">
        <ele>944</ele>
        <time>2000-01-01T02:49:19.000Z</time>
      </trkpt>
      <trkpt lat="46.18264" lon="6.70446">
        <ele>943</ele>
        <time>2000-01-01T02:49:29.000Z</time>
      </trkpt>
      <trkpt lat="46.18289" lon="6.70417">
        <ele>943</ele>
        <time>2000-01-01T02:49:39.000Z</time>
      </trkpt>
      <trkpt lat="46.18298" lon="6.70411">
        <ele>943</ele>
        <time>2000-01-01T02:49:49.000Z</time>
      </trkpt>
      <trkpt lat="46.18316" lon="6.70402">
        <ele>941</ele>
        <time>2000-01-01T02:49:59.000Z</time>
      </trkpt>
      <trkpt lat="46.18337" lon="6.70401">
        <ele>940</ele>
        <time>2000-01-01T02:50:09.000Z</time>
      </trkpt>
      <trkpt lat="46.18357" lon="6.70414">
        <ele>939</ele>
        <time>2000-01-01T02:50:19.000Z</time>
      </trkpt>
      <trkpt lat="46.18364" lon="6.70413">
        <ele>939.6</ele>
        <time>2000-01-01T02:50:29.000Z</time>
      </trkpt>
      <trkpt lat="46.18386" lon="6.70404">
        <ele>939</ele>
        <time>2000-01-01T02:50:39.000Z</time>
      </trkpt>
      <trkpt lat="46.18402" lon="6.70395">
        <ele>937.8</ele>
        <time>2000-01-01T02:50:49.000Z</time>
      </trkpt>
      <trkpt lat="46.1841" lon="6.70385">
        <ele>936</ele>
        <time>2000-01-01T02:50:59.000Z</time>
      </trkpt>
      <trkpt lat="46.18422" lon="6.7036">
        <ele>935</ele>
        <time>2000-01-01T02:51:09.000Z</time>
      </trkpt>
      <trkpt lat="46.18431" lon="6.70328">
        <ele>935</ele>
        <time>2000-01-01T02:51:19.000Z</time>
      </trkpt>
      <trkpt lat="46.18442" lon="6.70295">
        <ele>935</ele>
        <time>2000-01-01T02:51:29.000Z</time>
      </trkpt>
      <trkpt lat="46.18454" lon="6.70278">
        <ele>935.3</ele>
        <time>2000-01-01T02:51:39.000Z</time>
      </trkpt>
      <trkpt lat="46.18484" lon="6.70272">
        <ele>934</ele>
        <time>2000-01-01T02:51:49.000Z</time>
      </trkpt>
      <trkpt lat="46.18494" lon="6.70266">
        <ele>933.5</ele>
        <time>2000-01-01T02:51:59.000Z</time>
      </trkpt>
      <trkpt lat="46.18509" lon="6.70244">
        <ele>934</ele>
        <time>2000-01-01T02:52:09.000Z</time>
      </trkpt>
      <trkpt lat="46.18532" lon="6.70198">
        <ele>932</ele>
        <time>2000-01-01T02:52:19.000Z</time>
      </trkpt>
      <trkpt lat="46.18544" lon="6.70166">
        <ele>931</ele>
        <time>2000-01-01T02:52:29.000Z</time>
      </trkpt>
      <trkpt lat="46.18558" lon="6.70108">
        <ele>930</ele>
        <time>2000-01-01T02:52:39.000Z</time>
      </trkpt>
      <trkpt lat="46.18573" lon="6.7008">
        <ele>929</ele>
        <time>2000-01-01T02:52:49.000Z</time>
      </trkpt>
      <trkpt lat="46.18589" lon="6.70048">
        <ele>929</ele>
        <time>2000-01-01T02:52:59.000Z</time>
      </trkpt>
      <trkpt lat="46.18601" lon="6.70034">
        <ele>929.1</ele>
        <time>2000-01-01T02:53:09.000Z</time>
      </trkpt>
      <trkpt lat="46.1861" lon="6.70028">
        <ele>928</ele>
        <time>2000-01-01T02:53:19.000Z</time>
      </trkpt>
      <trkpt lat="46.18652" lon="6.70018">
        <ele>927</ele>
        <time>2000-01-01T02:53:29.000Z</time>
      </trkpt>
      <trkpt lat="46.18665" lon="6.70005">
        <ele>927.1</ele>
        <time>2000-01-01T02:53:39.000Z</time>
      </trkpt>
      <trkpt lat="46.18686" lon="6.69968">
        <ele>927</ele>
        <time>2000-01-01T02:53:49.000Z</time>
      </trkpt>
      <trkpt lat="46.18692" lon="6.69953">
        <ele>925.4</ele>
        <time>2000-01-01T02:53:59.000Z</time>
      </trkpt>
      <trkpt lat="46.18709" lon="6.6984">
        <ele>927</ele>
        <time>2000-01-01T02:54:09.000Z</time>
      </trkpt>
      <trkpt lat="46.18716" lon="6.69819">
        <ele>927.2</ele>
        <time>2000-01-01T02:54:19.000Z</time>
      </trkpt>
      <trkpt lat="46.18749" lon="6.69786">
        <ele>924</ele>
        <time>2000-01-01T02:54:29.000Z</time>
      </trkpt>
      <trkpt lat="46.18778" lon="6.69781">
        <ele>921</ele>
        <time>2000-01-01T02:54:39.000Z</time>
      </trkpt>
      <trkpt lat="46.18811" lon="6.69766">
        <ele>920</ele>
        <time>2000-01-01T02:54:49.000Z</time>
      </trkpt>
      <trkpt lat="46.18831" lon="6.69749">
        <ele>920</ele>
        <time>2000-01-01T02:54:59.000Z</time>
      </trkpt>
      <trkpt lat="46.18851" lon="6.69731">
        <ele>920</ele>
        <time>2000-01-01T02:55:09.000Z</time>
      </trkpt>
      <trkpt lat="46.18887" lon="6.69719">
        <ele>919</ele>
        <time>2000-01-01T02:55:19.000Z</time>
      </trkpt>
      <trkpt lat="46.18913" lon="6.69715">
        <ele>917</ele>
        <time>2000-01-01T02:55:29.000Z</time>
      </trkpt>
      <trkpt lat="46.18935" lon="6.69698">
        <ele>917</ele>
        <time>2000-01-01T02:55:39.000Z</time>
      </trkpt>
      <trkpt lat="46.18958" lon="6.6968">
        <ele>917</ele>
        <time>2000-01-01T02:55:49.000Z</time>
      </trkpt>
      <trkpt lat="46.18985" lon="6.69646">
        <ele>917</ele>
        <time>2000-01-01T02:55:59.000Z</time>
      </trkpt>
      <trkpt lat="46.19" lon="6.69636">
        <ele>915.4</ele>
        <time>2000-01-01T02:56:09.000Z</time>
      </trkpt>
      <trkpt lat="46.19019" lon="6.6963">
        <ele>918</ele>
        <time>2000-01-01T02:56:19.000Z</time>
      </trkpt>
      <trkpt lat="46.19046" lon="6.69616">
        <ele>915</ele>
        <time>2000-01-01T02:56:29.000Z</time>
      </trkpt>
      <trkpt lat="46.19089" lon="6.69594">
        <ele>913</ele>
        <time>2000-01-01T02:56:39.000Z</time>
      </trkpt>
      <trkpt lat="46.1911" lon="6.69575">
        <ele>913</ele>
        <time>2000-01-01T02:56:49.000Z</time>
      </trkpt>
      <trkpt lat="46.19132" lon="6.69555">
        <ele>913</ele>
        <time>2000-01-01T02:56:59.000Z</time>
      </trkpt>
      <trkpt lat="46.19155" lon="6.69518">
        <ele>912</ele>
        <time>2000-01-01T02:57:09.000Z</time>
      </trkpt>
      <trkpt lat="46.19177" lon="6.69504">
        <ele>911</ele>
        <time>2000-01-01T02:57:19.000Z</time>
      </trkpt>
      <trkpt lat="46.19199" lon="6.69489">
        <ele>910</ele>
        <time>2000-01-01T02:57:29.000Z</time>
      </trkpt>
      <trkpt lat="46.19221" lon="6.69452">
        <ele>909</ele>
        <time>2000-01-01T02:57:39.000Z</time>
      </trkpt>
      <trkpt lat="46.19244" lon="6.69415">
        <ele>909</ele>
        <time>2000-01-01T02:57:49.000Z</time>
      </trkpt>
      <trkpt lat="46.19285" lon="6.69349">
        <ele>907</ele>
        <time>2000-01-01T02:57:59.000Z</time>
      </trkpt>
      <trkpt lat="46.19306" lon="6.69301">
        <ele>907</ele>
        <time>2000-01-01T02:58:09.000Z</time>
      </trkpt>
      <trkpt lat="46.19334" lon="6.69268">
        <ele>906</ele>
        <time>2000-01-01T02:58:19.000Z</time>
      </trkpt>
      <trkpt lat="46.19362" lon="6.69235">
        <ele>904</ele>
        <time>2000-01-01T02:58:29.000Z</time>
      </trkpt>
      <trkpt lat="46.1939" lon="6.69202">
        <ele>904</ele>
        <time>2000-01-01T02:58:39.000Z</time>
      </trkpt>
      <trkpt lat="46.19432" lon="6.69152">
        <ele>906</ele>
        <time>2000-01-01T02:58:49.000Z</time>
      </trkpt>
      <trkpt lat="46.1944" lon="6.69119">
        <ele>904</ele>
        <time>2000-01-01T02:58:59.000Z</time>
      </trkpt>
      <trkpt lat="46.19462" lon="6.69068">
        <ele>906</ele>
        <time>2000-01-01T02:59:09.000Z</time>
      </trkpt>
      <trkpt lat="46.19484" lon="6.69049">
        <ele>904</ele>
        <time>2000-01-01T02:59:19.000Z</time>
      </trkpt>
      <trkpt lat="46.19507" lon="6.6902">
        <ele>905</ele>
        <time>2000-01-01T02:59:29.000Z</time>
      </trkpt>
      <trkpt lat="46.19548" lon="6.68969">
        <ele>903</ele>
        <time>2000-01-01T02:59:39.000Z</time>
      </trkpt>
      <trkpt lat="46.19565" lon="6.68955">
        <ele>901</ele>
        <time>2000-01-01T02:59:49.000Z</time>
      </trkpt>
      <trkpt lat="46.1958" lon="6.68928">
        <ele>898</ele>
        <time>2000-01-01T02:59:59.000Z</time>
      </trkpt>
      <trkpt lat="46.19595" lon="6.68902">
        <ele>897</ele>
        <time>2000-01-01T03:00:09.000Z</time>
      </trkpt>
      <trkpt lat="46.19627" lon="6.68854">
        <ele>896</ele>
        <time>2000-01-01T03:00:19.000Z</time>
      </trkpt>
      <trkpt lat="46.19647" lon="6.6882">
        <ele>896</ele>
        <time>2000-01-01T03:00:29.000Z</time>
      </trkpt>
      <trkpt lat="46.19686" lon="6.68755">
        <ele>895</ele>
        <time>2000-01-01T03:00:39.000Z</time>
      </trkpt>
      <trkpt lat="46.19718" lon="6.68733">
        <ele>893</ele>
        <time>2000-01-01T03:00:49.000Z</time>
      </trkpt>
      <trkpt lat="46.1975" lon="6.68711">
        <ele>893</ele>
        <time>2000-01-01T03:00:59.000Z</time>
      </trkpt>
      <trkpt lat="46.19782" lon="6.68689">
        <ele>892</ele>
        <time>2000-01-01T03:01:09.000Z</time>
      </trkpt>
      <trkpt lat="46.19819" lon="6.68664">
        <ele>891</ele>
        <time>2000-01-01T03:01:19.000Z</time>
      </trkpt>
      <trkpt lat="46.1984" lon="6.68646">
        <ele>891</ele>
        <time>2000-01-01T03:01:29.000Z</time>
      </trkpt>
      <trkpt lat="46.19855" lon="6.68676">
        <ele>891</ele>
        <time>2000-01-01T03:01:39.000Z</time>
      </trkpt>
      <trkpt lat="46.1986" lon="6.68655">
        <ele>891</ele>
        <time>2000-01-01T03:01:49.000Z</time>
      </trkpt>
      <trkpt lat="46.19909" lon="6.68604">
        <ele>888</ele>
        <time>2000-01-01T03:01:59.000Z</time>
      </trkpt>
      <trkpt lat="46.19929" lon="6.68575">
        <ele>888</ele>
        <time>2000-01-01T03:02:09.000Z</time>
      </trkpt>
      <trkpt lat="46.1995" lon="6.68522">
        <ele>887</ele>
        <time>2000-01-01T03:02:19.000Z</time>
      </trkpt>
      <trkpt lat="46.19974" lon="6.68476">
        <ele>887</ele>
        <time>2000-01-01T03:02:29.000Z</time>
      </trkpt>
      <trkpt lat="46.19995" lon="6.6845">
        <ele>887</ele>
        <time>2000-01-01T03:02:39.000Z</time>
      </trkpt>
      <trkpt lat="46.20027" lon="6.68411">
        <ele>887</ele>
        <time>2000-01-01T03:02:49.000Z</time>
      </trkpt>
      <trkpt lat="46.20046" lon="6.68382">
        <ele>886</ele>
        <time>2000-01-01T03:02:59.000Z</time>
      </trkpt>
      <trkpt lat="46.20062" lon="6.68336">
        <ele>886</ele>
        <time>2000-01-01T03:03:09.000Z</time>
      </trkpt>
      <trkpt lat="46.20061" lon="6.68322">
        <ele>888</ele>
        <time>2000-01-01T03:03:19.000Z</time>
      </trkpt>
      <trkpt lat="46.20054" lon="6.68301">
        <ele>886</ele>
        <time>2000-01-01T03:03:29.000Z</time>
      </trkpt>
      <trkpt lat="46.2006" lon="6.68277">
        <ele>887.8</ele>
        <time>2000-01-01T03:03:39.000Z</time>
      </trkpt>
      <trkpt lat="46.20138" lon="6.68303">
        <ele>886</ele>
        <time>2000-01-01T03:03:49.000Z</time>
      </trkpt>
      <trkpt lat="46.20161" lon="6.68284">
        <ele>884</ele>
        <time>2000-01-01T03:03:59.000Z</time>
      </trkpt>
      <trkpt lat="46.20172" lon="6.68262">
        <ele>883</ele>
        <time>2000-01-01T03:04:09.000Z</time>
      </trkpt>
      <trkpt lat="46.20177" lon="6.68243">
        <ele>881.9</ele>
        <time>2000-01-01T03:04:19.000Z</time>
      </trkpt>
      <trkpt lat="46.20179" lon="6.68221">
        <ele>882</ele>
        <time>2000-01-01T03:04:29.000Z</time>
      </trkpt>
      <trkpt lat="46.20171" lon="6.68196">
        <ele>882</ele>
        <time>2000-01-01T03:04:39.000Z</time>
      </trkpt>
      <trkpt lat="46.20171" lon="6.68182">
        <ele>882.8</ele>
        <time>2000-01-01T03:04:49.000Z</time>
      </trkpt>
      <trkpt lat="46.20179" lon="6.68128">
        <ele>881</ele>
        <time>2000-01-01T03:04:59.000Z</time>
      </trkpt>
      <trkpt lat="46.20195" lon="6.68069">
        <ele>881</ele>
        <time>2000-01-01T03:05:09.000Z</time>
      </trkpt>
      <trkpt lat="46.20193" lon="6.68056">
        <ele>882.1</ele>
        <time>2000-01-01T03:05:19.000Z</time>
      </trkpt>
      <trkpt lat="46.20185" lon="6.68048">
        <ele>882</ele>
        <time>2000-01-01T03:05:29.000Z</time>
      </trkpt>
      <trkpt lat="46.20161" lon="6.68041">
        <ele>882</ele>
        <time>2000-01-01T03:05:39.000Z</time>
      </trkpt>
      <trkpt lat="46.20157" lon="6.68024">
        <ele>883.4</ele>
        <time>2000-01-01T03:05:49.000Z</time>
      </trkpt>
      <trkpt lat="46.20167" lon="6.67992">
        <ele>882</ele>
        <time>2000-01-01T03:05:59.000Z</time>
      </trkpt>
      <trkpt lat="46.2017" lon="6.6796">
        <ele>890</ele>
        <time>2000-01-01T03:06:09.000Z</time>
      </trkpt>
      <trkpt lat="46.20166" lon="6.67926">
        <ele>890</ele>
        <time>2000-01-01T03:06:19.000Z</time>
      </trkpt>
      <trkpt lat="46.20161" lon="6.6789">
        <ele>888</ele>
        <time>2000-01-01T03:06:29.000Z</time>
      </trkpt>
      <trkpt lat="46.2016" lon="6.67851">
        <ele>888</ele>
        <time>2000-01-01T03:06:39.000Z</time>
      </trkpt>
      <trkpt lat="46.20175" lon="6.67809">
        <ele>879</ele>
        <time>2000-01-01T03:06:49.000Z</time>
      </trkpt>
      <trkpt lat="46.2018" lon="6.67772">
        <ele>878</ele>
        <time>2000-01-01T03:06:59.000Z</time>
      </trkpt>
      <trkpt lat="46.20191" lon="6.67731">
        <ele>883</ele>
        <time>2000-01-01T03:07:09.000Z</time>
      </trkpt>
      <trkpt lat="46.20212" lon="6.6765">
        <ele>888</ele>
        <time>2000-01-01T03:07:19.000Z</time>
      </trkpt>
      <trkpt lat="46.20235" lon="6.67625">
        <ele>888</ele>
        <time>2000-01-01T03:07:29.000Z</time>
      </trkpt>
      <trkpt lat="46.20233" lon="6.67621">
        <ele>877.5</ele>
        <time>2000-01-01T03:07:39.000Z</time>
      </trkpt>
      <trkpt lat="46.20213" lon="6.6763">
        <ele>888</ele>
        <time>2000-01-01T03:07:49.000Z</time>
      </trkpt>
      <trkpt lat="46.20187" lon="6.67657">
        <ele>892</ele>
        <time>2000-01-01T03:07:59.000Z</time>
      </trkpt>
      <trkpt lat="46.20161" lon="6.67685">
        <ele>897</ele>
        <time>2000-01-01T03:08:09.000Z</time>
      </trkpt>
      <trkpt lat="46.20129" lon="6.67719">
        <ele>903</ele>
        <time>2000-01-01T03:08:19.000Z</time>
      </trkpt>
      <trkpt lat="46.20099" lon="6.67724">
        <ele>910</ele>
        <time>2000-01-01T03:08:29.000Z</time>
      </trkpt>
      <trkpt lat="46.20048" lon="6.67733">
        <ele>914</ele>
        <time>2000-01-01T03:08:39.000Z</time>
      </trkpt>
      <trkpt lat="46.20048" lon="6.67734">
        <ele>910.2</ele>
        <time>2000-01-01T03:08:49.000Z</time>
      </trkpt>
      <trkpt lat="46.19963" lon="6.67779">
        <ele>915</ele>
        <time>2000-01-01T03:08:59.000Z</time>
      </trkpt>
      <trkpt lat="46.19925" lon="6.67804">
        <ele>916</ele>
        <time>2000-01-01T03:09:09.000Z</time>
      </trkpt>
      <trkpt lat="46.19901" lon="6.67818">
        <ele>916</ele>
        <time>2000-01-01T03:09:19.000Z</time>
      </trkpt>
      <trkpt lat="46.19872" lon="6.67835">
        <ele>919</ele>
        <time>2000-01-01T03:09:29.000Z</time>
      </trkpt>
      <trkpt lat="46.19828" lon="6.6785">
        <ele>919</ele>
        <time>2000-01-01T03:09:39.000Z</time>
      </trkpt>
      <trkpt lat="46.19803" lon="6.67853">
        <ele>922</ele>
        <time>2000-01-01T03:09:49.000Z</time>
      </trkpt>
      <trkpt lat="46.19775" lon="6.67855">
        <ele>927</ele>
        <time>2000-01-01T03:09:59.000Z</time>
      </trkpt>
      <trkpt lat="46.19768" lon="6.67851">
        <ele>921.8</ele>
        <time>2000-01-01T03:10:09.000Z</time>
      </trkpt>
      <trkpt lat="46.19764" lon="6.67844">
        <ele>922.4</ele>
        <time>2000-01-01T03:10:19.000Z</time>
      </trkpt>
      <trkpt lat="46.19765" lon="6.67833">
        <ele>927</ele>
        <time>2000-01-01T03:10:29.000Z</time>
      </trkpt>
      <trkpt lat="46.19769" lon="6.67824">
        <ele>924.3</ele>
        <time>2000-01-01T03:10:39.000Z</time>
      </trkpt>
      <trkpt lat="46.19858" lon="6.67759">
        <ele>927</ele>
        <time>2000-01-01T03:10:49.000Z</time>
      </trkpt>
      <trkpt lat="46.19862" lon="6.67751">
        <ele>932.6</ele>
        <time>2000-01-01T03:10:59.000Z</time>
      </trkpt>
      <trkpt lat="46.19862" lon="6.67742">
        <ele>933.2</ele>
        <time>2000-01-01T03:11:09.000Z</time>
      </trkpt>
      <trkpt lat="46.19859" lon="6.67729">
        <ele>927</ele>
        <time>2000-01-01T03:11:19.000Z</time>
      </trkpt>
      <trkpt lat="46.19835" lon="6.67741">
        <ele>927</ele>
        <time>2000-01-01T03:11:29.000Z</time>
      </trkpt>
      <trkpt lat="46.19808" lon="6.67756">
        <ele>928</ele>
        <time>2000-01-01T03:11:39.000Z</time>
      </trkpt>
      <trkpt lat="46.19798" lon="6.67757">
        <ele>934.7</ele>
        <time>2000-01-01T03:11:49.000Z</time>
      </trkpt>
      <trkpt lat="46.19791" lon="6.67752">
        <ele>935.4</ele>
        <time>2000-01-01T03:11:59.000Z</time>
      </trkpt>
      <trkpt lat="46.19788" lon="6.67746">
        <ele>930</ele>
        <time>2000-01-01T03:12:09.000Z</time>
      </trkpt>
      <trkpt lat="46.19778" lon="6.67697">
        <ele>931</ele>
        <time>2000-01-01T03:12:19.000Z</time>
      </trkpt>
      <trkpt lat="46.1977" lon="6.67661">
        <ele>931</ele>
        <time>2000-01-01T03:12:29.000Z</time>
      </trkpt>
      <trkpt lat="46.19758" lon="6.67612">
        <ele>937</ele>
        <time>2000-01-01T03:12:39.000Z</time>
      </trkpt>
      <trkpt lat="46.19742" lon="6.67552">
        <ele>939</ele>
        <time>2000-01-01T03:12:49.000Z</time>
      </trkpt>
      <trkpt lat="46.19723" lon="6.67493">
        <ele>942</ele>
        <time>2000-01-01T03:12:59.000Z</time>
      </trkpt>
      <trkpt lat="46.19745" lon="6.67474">
        <ele>942</ele>
        <time>2000-01-01T03:13:09.000Z</time>
      </trkpt>
      <trkpt lat="46.19772" lon="6.67452">
        <ele>943</ele>
        <time>2000-01-01T03:13:19.000Z</time>
      </trkpt>
      <trkpt lat="46.19746" lon="6.67444">
        <ele>949</ele>
        <time>2000-01-01T03:13:29.000Z</time>
      </trkpt>
      <trkpt lat="46.19712" lon="6.67435">
        <ele>952</ele>
        <time>2000-01-01T03:13:39.000Z</time>
      </trkpt>
      <trkpt lat="46.19704" lon="6.67427">
        <ele>947.3</ele>
        <time>2000-01-01T03:13:49.000Z</time>
      </trkpt>
      <trkpt lat="46.19699" lon="6.67418">
        <ele>948.5</ele>
        <time>2000-01-01T03:13:59.000Z</time>
      </trkpt>
      <trkpt lat="46.19699" lon="6.67411">
        <ele>955</ele>
        <time>2000-01-01T03:14:09.000Z</time>
      </trkpt>
      <trkpt lat="46.19717" lon="6.67383">
        <ele>956</ele>
        <time>2000-01-01T03:14:19.000Z</time>
      </trkpt>
      <trkpt lat="46.19729" lon="6.6734">
        <ele>958</ele>
        <time>2000-01-01T03:14:29.000Z</time>
      </trkpt>
      <trkpt lat="46.19747" lon="6.67317">
        <ele>958</ele>
        <time>2000-01-01T03:14:39.000Z</time>
      </trkpt>
      <trkpt lat="46.19764" lon="6.67295">
        <ele>959</ele>
        <time>2000-01-01T03:14:49.000Z</time>
      </trkpt>
      <trkpt lat="46.19789" lon="6.6725">
        <ele>964</ele>
        <time>2000-01-01T03:14:59.000Z</time>
      </trkpt>
      <trkpt lat="46.19796" lon="6.67226">
        <ele>964.3</ele>
        <time>2000-01-01T03:15:09.000Z</time>
      </trkpt>
      <trkpt lat="46.19798" lon="6.67185">
        <ele>967</ele>
        <time>2000-01-01T03:15:19.000Z</time>
      </trkpt>
      <trkpt lat="46.19801" lon="6.67171">
        <ele>965.8</ele>
        <time>2000-01-01T03:15:29.000Z</time>
      </trkpt>
      <trkpt lat="46.19816" lon="6.67134">
        <ele>968</ele>
        <time>2000-01-01T03:15:39.000Z</time>
      </trkpt>
      <trkpt lat="46.19834" lon="6.671">
        <ele>969</ele>
        <time>2000-01-01T03:15:49.000Z</time>
      </trkpt>
      <trkpt lat="46.19863" lon="6.67042">
        <ele>971</ele>
        <time>2000-01-01T03:15:59.000Z</time>
      </trkpt>
      <trkpt lat="46.19883" lon="6.66986">
        <ele>977</ele>
        <time>2000-01-01T03:16:09.000Z</time>
      </trkpt>
      <trkpt lat="46.19903" lon="6.66956">
        <ele>977</ele>
        <time>2000-01-01T03:16:19.000Z</time>
      </trkpt>
      <trkpt lat="46.19924" lon="6.66935">
        <ele>977</ele>
        <time>2000-01-01T03:16:29.000Z</time>
      </trkpt>
      <trkpt lat="46.19947" lon="6.66912">
        <ele>977</ele>
        <time>2000-01-01T03:16:39.000Z</time>
      </trkpt>
      <trkpt lat="46.1997" lon="6.66897">
        <ele>979</ele>
        <time>2000-01-01T03:16:49.000Z</time>
      </trkpt>
      <trkpt lat="46.19994" lon="6.6688">
        <ele>979</ele>
        <time>2000-01-01T03:16:59.000Z</time>
      </trkpt>
      <trkpt lat="46.2003" lon="6.66859">
        <ele>979</ele>
        <time>2000-01-01T03:17:09.000Z</time>
      </trkpt>
      <trkpt lat="46.20049" lon="6.66837">
        <ele>974</ele>
        <time>2000-01-01T03:17:19.000Z</time>
      </trkpt>
      <trkpt lat="46.2007" lon="6.66813">
        <ele>973</ele>
        <time>2000-01-01T03:17:29.000Z</time>
      </trkpt>
      <trkpt lat="46.20077" lon="6.66803">
        <ele>978.1</ele>
        <time>2000-01-01T03:17:39.000Z</time>
      </trkpt>
      <trkpt lat="46.20101" lon="6.66745">
        <ele>975</ele>
        <time>2000-01-01T03:17:49.000Z</time>
      </trkpt>
      <trkpt lat="46.20104" lon="6.66735">
        <ele>977.8</ele>
        <time>2000-01-01T03:17:59.000Z</time>
      </trkpt>
      <trkpt lat="46.2011" lon="6.66719">
        <ele>977</ele>
        <time>2000-01-01T03:18:09.000Z</time>
      </trkpt>
      <trkpt lat="46.20123" lon="6.66702">
        <ele>981.2</ele>
        <time>2000-01-01T03:18:19.000Z</time>
      </trkpt>
      <trkpt lat="46.20128" lon="6.6669">
        <ele>981</ele>
        <time>2000-01-01T03:18:29.000Z</time>
      </trkpt>
      <trkpt lat="46.20129" lon="6.66673">
        <ele>984.5</ele>
        <time>2000-01-01T03:18:39.000Z</time>
      </trkpt>
      <trkpt lat="46.20126" lon="6.66651">
        <ele>985</ele>
        <time>2000-01-01T03:18:49.000Z</time>
      </trkpt>
      <trkpt lat="46.20127" lon="6.66643">
        <ele>988.8</ele>
        <time>2000-01-01T03:18:59.000Z</time>
      </trkpt>
      <trkpt lat="46.20133" lon="6.66636">
        <ele>989.6</ele>
        <time>2000-01-01T03:19:09.000Z</time>
      </trkpt>
      <trkpt lat="46.20159" lon="6.66631">
        <ele>989</ele>
        <time>2000-01-01T03:19:19.000Z</time>
      </trkpt>
      <trkpt lat="46.20168" lon="6.66619">
        <ele>994.6</ele>
        <time>2000-01-01T03:19:29.000Z</time>
      </trkpt>
      <trkpt lat="46.20179" lon="6.66594">
        <ele>1005</ele>
        <time>2000-01-01T03:19:39.000Z</time>
      </trkpt>
      <trkpt lat="46.2019" lon="6.66584">
        <ele>1002.3</ele>
        <time>2000-01-01T03:19:49.000Z</time>
      </trkpt>
      <trkpt lat="46.20264" lon="6.6658">
        <ele>1013</ele>
        <time>2000-01-01T03:19:59.000Z</time>
      </trkpt>
      <trkpt lat="46.20288" lon="6.6656">
        <ele>1017</ele>
        <time>2000-01-01T03:20:09.000Z</time>
      </trkpt>
      <trkpt lat="46.20324" lon="6.66532">
        <ele>1021</ele>
        <time>2000-01-01T03:20:19.000Z</time>
      </trkpt>
      <trkpt lat="46.2035" lon="6.66526">
        <ele>1026</ele>
        <time>2000-01-01T03:20:29.000Z</time>
      </trkpt>
      <trkpt lat="46.20384" lon="6.66517">
        <ele>1032</ele>
        <time>2000-01-01T03:20:39.000Z</time>
      </trkpt>
      <trkpt lat="46.20427" lon="6.66499">
        <ele>1037</ele>
        <time>2000-01-01T03:20:49.000Z</time>
      </trkpt>
      <trkpt lat="46.2045" lon="6.66477">
        <ele>1043</ele>
        <time>2000-01-01T03:20:59.000Z</time>
      </trkpt>
      <trkpt lat="46.20464" lon="6.66447">
        <ele>1051</ele>
        <time>2000-01-01T03:21:09.000Z</time>
      </trkpt>
      <trkpt lat="46.20473" lon="6.66399">
        <ele>1059</ele>
        <time>2000-01-01T03:21:19.000Z</time>
      </trkpt>
      <trkpt lat="46.20481" lon="6.6638">
        <ele>1059.6</ele>
        <time>2000-01-01T03:21:29.000Z</time>
      </trkpt>
      <trkpt lat="46.20489" lon="6.66376">
        <ele>1062</ele>
        <time>2000-01-01T03:21:39.000Z</time>
      </trkpt>
      <trkpt lat="46.20523" lon="6.6638">
        <ele>1067</ele>
        <time>2000-01-01T03:21:49.000Z</time>
      </trkpt>
      <trkpt lat="46.20554" lon="6.66375">
        <ele>1074</ele>
        <time>2000-01-01T03:21:59.000Z</time>
      </trkpt>
      <trkpt lat="46.20578" lon="6.66384">
        <ele>1074</ele>
        <time>2000-01-01T03:22:09.000Z</time>
      </trkpt>
      <trkpt lat="46.20612" lon="6.6636">
        <ele>1096</ele>
        <time>2000-01-01T03:22:19.000Z</time>
      </trkpt>
      <trkpt lat="46.20634" lon="6.66349">
        <ele>1096</ele>
        <time>2000-01-01T03:22:29.000Z</time>
      </trkpt>
      <trkpt lat="46.20656" lon="6.66339">
        <ele>1100</ele>
        <time>2000-01-01T03:22:39.000Z</time>
      </trkpt>
      <trkpt lat="46.20677" lon="6.66319">
        <ele>1100</ele>
        <time>2000-01-01T03:22:49.000Z</time>
      </trkpt>
      <trkpt lat="46.20703" lon="6.66295">
        <ele>1101</ele>
        <time>2000-01-01T03:22:59.000Z</time>
      </trkpt>
      <trkpt lat="46.20727" lon="6.66278">
        <ele>1103</ele>
        <time>2000-01-01T03:23:09.000Z</time>
      </trkpt>
      <trkpt lat="46.2075" lon="6.66244">
        <ele>1111</ele>
        <time>2000-01-01T03:23:19.000Z</time>
      </trkpt>
      <trkpt lat="46.20768" lon="6.66209">
        <ele>1114</ele>
        <time>2000-01-01T03:23:29.000Z</time>
      </trkpt>
      <trkpt lat="46.20793" lon="6.66195">
        <ele>1115</ele>
        <time>2000-01-01T03:23:39.000Z</time>
      </trkpt>
      <trkpt lat="46.20828" lon="6.66175">
        <ele>1130</ele>
        <time>2000-01-01T03:23:49.000Z</time>
      </trkpt>
      <trkpt lat="46.20854" lon="6.66178">
        <ele>1135</ele>
        <time>2000-01-01T03:23:59.000Z</time>
      </trkpt>
      <trkpt lat="46.20887" lon="6.66181">
        <ele>1135</ele>
        <time>2000-01-01T03:24:09.000Z</time>
      </trkpt>
      <trkpt lat="46.20925" lon="6.66172">
        <ele>1152</ele>
        <time>2000-01-01T03:24:19.000Z</time>
      </trkpt>
      <trkpt lat="46.20969" lon="6.66169">
        <ele>1153</ele>
        <time>2000-01-01T03:24:29.000Z</time>
      </trkpt>
      <trkpt lat="46.20986" lon="6.66159">
        <ele>1150.9</ele>
        <time>2000-01-01T03:24:39.000Z</time>
      </trkpt>
      <trkpt lat="46.21015" lon="6.66126">
        <ele>1157</ele>
        <time>2000-01-01T03:24:49.000Z</time>
      </trkpt>
      <trkpt lat="46.21032" lon="6.66086">
        <ele>1163</ele>
        <time>2000-01-01T03:24:59.000Z</time>
      </trkpt>
      <trkpt lat="46.21041" lon="6.66048">
        <ele>1168</ele>
        <time>2000-01-01T03:25:09.000Z</time>
      </trkpt>
      <trkpt lat="46.21043" lon="6.65997">
        <ele>1178</ele>
        <time>2000-01-01T03:25:19.000Z</time>
      </trkpt>
      <trkpt lat="46.21042" lon="6.65955">
        <ele>1182</ele>
        <time>2000-01-01T03:25:29.000Z</time>
      </trkpt>
      <trkpt lat="46.21041" lon="6.65887">
        <ele>1190</ele>
        <time>2000-01-01T03:25:39.000Z</time>
      </trkpt>
      <trkpt lat="46.21044" lon="6.65842">
        <ele>1193</ele>
        <time>2000-01-01T03:25:49.000Z</time>
      </trkpt>
      <trkpt lat="46.21053" lon="6.65826">
        <ele>1194.7</ele>
        <time>2000-01-01T03:25:59.000Z</time>
      </trkpt>
      <trkpt lat="46.21075" lon="6.65807">
        <ele>1196</ele>
        <time>2000-01-01T03:26:09.000Z</time>
      </trkpt>
      <trkpt lat="46.2108" lon="6.65797">
        <ele>1201.1</ele>
        <time>2000-01-01T03:26:19.000Z</time>
      </trkpt>
      <trkpt lat="46.21093" lon="6.6576">
        <ele>1199</ele>
        <time>2000-01-01T03:26:29.000Z</time>
      </trkpt>
      <trkpt lat="46.21099" lon="6.65753">
        <ele>1204</ele>
        <time>2000-01-01T03:26:39.000Z</time>
      </trkpt>
      <trkpt lat="46.21114" lon="6.65741">
        <ele>1199</ele>
        <time>2000-01-01T03:26:49.000Z</time>
      </trkpt>
      <trkpt lat="46.21134" lon="6.65731">
        <ele>1211</ele>
        <time>2000-01-01T03:26:59.000Z</time>
      </trkpt>
      <trkpt lat="46.21156" lon="6.65712">
        <ele>1211</ele>
        <time>2000-01-01T03:27:09.000Z</time>
      </trkpt>
      <trkpt lat="46.21165" lon="6.65712">
        <ele>1216.7</ele>
        <time>2000-01-01T03:27:19.000Z</time>
      </trkpt>
      <trkpt lat="46.21179" lon="6.65717">
        <ele>1215</ele>
        <time>2000-01-01T03:27:29.000Z</time>
      </trkpt>
      <trkpt lat="46.21187" lon="6.65716">
        <ele>1220.1</ele>
        <time>2000-01-01T03:27:39.000Z</time>
      </trkpt>
      <trkpt lat="46.2119" lon="6.65709">
        <ele>1220.2</ele>
        <time>2000-01-01T03:27:49.000Z</time>
      </trkpt>
      <trkpt lat="46.2119" lon="6.65697">
        <ele>1217</ele>
        <time>2000-01-01T03:27:59.000Z</time>
      </trkpt>
      <trkpt lat="46.2118" lon="6.65683">
        <ele>1219</ele>
        <time>2000-01-01T03:28:09.000Z</time>
      </trkpt>
      <trkpt lat="46.2112" lon="6.65615">
        <ele>1229</ele>
        <time>2000-01-01T03:28:19.000Z</time>
      </trkpt>
      <trkpt lat="46.21084" lon="6.65579">
        <ele>1231</ele>
        <time>2000-01-01T03:28:29.000Z</time>
      </trkpt>
      <trkpt lat="46.21056" lon="6.65559">
        <ele>1232</ele>
        <time>2000-01-01T03:28:39.000Z</time>
      </trkpt>
      <trkpt lat="46.21001" lon="6.6552">
        <ele>1233</ele>
        <time>2000-01-01T03:28:49.000Z</time>
      </trkpt>
      <trkpt lat="46.20984" lon="6.65502">
        <ele>1235</ele>
        <time>2000-01-01T03:28:59.000Z</time>
      </trkpt>
      <trkpt lat="46.20965" lon="6.65481">
        <ele>1237</ele>
        <time>2000-01-01T03:29:09.000Z</time>
      </trkpt>
      <trkpt lat="46.20944" lon="6.65458">
        <ele>1243</ele>
        <time>2000-01-01T03:29:19.000Z</time>
      </trkpt>
      <trkpt lat="46.20937" lon="6.65444">
        <ele>1244.9</ele>
        <time>2000-01-01T03:29:29.000Z</time>
      </trkpt>
      <trkpt lat="46.20897" lon="6.65277">
        <ele>1249</ele>
        <time>2000-01-01T03:29:39.000Z</time>
      </trkpt>
      <trkpt lat="46.20888" lon="6.65243">
        <ele>1268</ele>
        <time>2000-01-01T03:29:49.000Z</time>
      </trkpt>
      <trkpt lat="46.20878" lon="6.652">
        <ele>1268</ele>
        <time>2000-01-01T03:29:59.000Z</time>
      </trkpt>
      <trkpt lat="46.20872" lon="6.65153">
        <ele>1269</ele>
        <time>2000-01-01T03:30:09.000Z</time>
      </trkpt>
      <trkpt lat="46.20867" lon="6.65106">
        <ele>1271</ele>
        <time>2000-01-01T03:30:19.000Z</time>
      </trkpt>
      <trkpt lat="46.2086" lon="6.65037">
        <ele>1271</ele>
        <time>2000-01-01T03:30:29.000Z</time>
      </trkpt>
      <trkpt lat="46.20853" lon="6.65009">
        <ele>1278</ele>
        <time>2000-01-01T03:30:39.000Z</time>
      </trkpt>
      <trkpt lat="46.20846" lon="6.64989">
        <ele>1275.3</ele>
        <time>2000-01-01T03:30:49.000Z</time>
      </trkpt>
      <trkpt lat="46.20793" lon="6.6488">
        <ele>1286</ele>
        <time>2000-01-01T03:30:59.000Z</time>
      </trkpt>
      <trkpt lat="46.20781" lon="6.64826">
        <ele>1289</ele>
        <time>2000-01-01T03:31:09.000Z</time>
      </trkpt>
      <trkpt lat="46.20767" lon="6.64783">
        <ele>1289</ele>
        <time>2000-01-01T03:31:19.000Z</time>
      </trkpt>
      <trkpt lat="46.20754" lon="6.6474">
        <ele>1290</ele>
        <time>2000-01-01T03:31:29.000Z</time>
      </trkpt>
      <trkpt lat="46.20736" lon="6.64682">
        <ele>1298</ele>
        <time>2000-01-01T03:31:39.000Z</time>
      </trkpt>
      <trkpt lat="46.20717" lon="6.64645">
        <ele>1304</ele>
        <time>2000-01-01T03:31:49.000Z</time>
      </trkpt>
      <trkpt lat="46.20694" lon="6.64612">
        <ele>1311</ele>
        <time>2000-01-01T03:31:59.000Z</time>
      </trkpt>
      <trkpt lat="46.20676" lon="6.64588">
        <ele>1310</ele>
        <time>2000-01-01T03:32:09.000Z</time>
      </trkpt>
      <trkpt lat="46.20655" lon="6.6456">
        <ele>1309</ele>
        <time>2000-01-01T03:32:19.000Z</time>
      </trkpt>
      <trkpt lat="46.20628" lon="6.64537">
        <ele>1308</ele>
        <time>2000-01-01T03:32:29.000Z</time>
      </trkpt>
      <trkpt lat="46.20601" lon="6.64514">
        <ele>1308</ele>
        <time>2000-01-01T03:32:39.000Z</time>
      </trkpt>
      <trkpt lat="46.20573" lon="6.64491">
        <ele>1316</ele>
        <time>2000-01-01T03:32:49.000Z</time>
      </trkpt>
      <trkpt lat="46.20547" lon="6.64465">
        <ele>1316</ele>
        <time>2000-01-01T03:32:59.000Z</time>
      </trkpt>
      <trkpt lat="46.20523" lon="6.64428">
        <ele>1314</ele>
        <time>2000-01-01T03:33:09.000Z</time>
      </trkpt>
      <trkpt lat="46.20498" lon="6.64391">
        <ele>1315</ele>
        <time>2000-01-01T03:33:19.000Z</time>
      </trkpt>
      <trkpt lat="46.20474" lon="6.64354">
        <ele>1314</ele>
        <time>2000-01-01T03:33:29.000Z</time>
      </trkpt>
      <trkpt lat="46.20447" lon="6.64313">
        <ele>1315</ele>
        <time>2000-01-01T03:33:39.000Z</time>
      </trkpt>
      <trkpt lat="46.20438" lon="6.64288">
        <ele>1314</ele>
        <time>2000-01-01T03:33:49.000Z</time>
      </trkpt>
      <trkpt lat="46.20429" lon="6.64226">
        <ele>1314</ele>
        <time>2000-01-01T03:33:59.000Z</time>
      </trkpt>
      <trkpt lat="46.20415" lon="6.64189">
        <ele>1319</ele>
        <time>2000-01-01T03:34:09.000Z</time>
      </trkpt>
      <trkpt lat="46.20398" lon="6.64152">
        <ele>1325</ele>
        <time>2000-01-01T03:34:19.000Z</time>
      </trkpt>
      <trkpt lat="46.20367" lon="6.64086">
        <ele>1322</ele>
        <time>2000-01-01T03:34:29.000Z</time>
      </trkpt>
      <trkpt lat="46.20349" lon="6.64053">
        <ele>1323</ele>
        <time>2000-01-01T03:34:39.000Z</time>
      </trkpt>
      <trkpt lat="46.20318" lon="6.63995">
        <ele>1325</ele>
        <time>2000-01-01T03:34:49.000Z</time>
      </trkpt>
      <trkpt lat="46.20297" lon="6.63964">
        <ele>1330</ele>
        <time>2000-01-01T03:34:59.000Z</time>
      </trkpt>
      <trkpt lat="46.20256" lon="6.63904">
        <ele>1331</ele>
        <time>2000-01-01T03:35:09.000Z</time>
      </trkpt>
      <trkpt lat="46.20238" lon="6.63875">
        <ele>1334</ele>
        <time>2000-01-01T03:35:19.000Z</time>
      </trkpt>
      <trkpt lat="46.20212" lon="6.63833">
        <ele>1337</ele>
        <time>2000-01-01T03:35:29.000Z</time>
      </trkpt>
      <trkpt lat="46.20205" lon="6.63806">
        <ele>1338</ele>
        <time>2000-01-01T03:35:39.000Z</time>
      </trkpt>
      <trkpt lat="46.20203" lon="6.63762">
        <ele>1339</ele>
        <time>2000-01-01T03:35:49.000Z</time>
      </trkpt>
      <trkpt lat="46.20198" lon="6.63679">
        <ele>1340</ele>
        <time>2000-01-01T03:35:59.000Z</time>
      </trkpt>
      <trkpt lat="46.202" lon="6.63644">
        <ele>1342</ele>
        <time>2000-01-01T03:36:09.000Z</time>
      </trkpt>
      <trkpt lat="46.20203" lon="6.63634">
        <ele>1341.9</ele>
        <time>2000-01-01T03:36:19.000Z</time>
      </trkpt>
      <trkpt lat="46.20206" lon="6.63623">
        <ele>1341.9</ele>
        <time>2000-01-01T03:36:29.000Z</time>
      </trkpt>
      <trkpt lat="46.20212" lon="6.6361">
        <ele>1342</ele>
        <time>2000-01-01T03:36:39.000Z</time>
      </trkpt>
      <trkpt lat="46.20222" lon="6.63593">
        <ele>1342</ele>
        <time>2000-01-01T03:36:49.000Z</time>
      </trkpt>
      <trkpt lat="46.20226" lon="6.63588">
        <ele>1343</ele>
        <time>2000-01-01T03:36:59.000Z</time>
      </trkpt>
      <trkpt lat="46.20231" lon="6.63584">
        <ele>1342</ele>
        <time>2000-01-01T03:37:09.000Z</time>
      </trkpt>
      <trkpt lat="46.20236" lon="6.63581">
        <ele>1341.6</ele>
        <time>2000-01-01T03:37:19.000Z</time>
      </trkpt>
      <trkpt lat="46.20249" lon="6.63575">
        <ele>1343</ele>
        <time>2000-01-01T03:37:29.000Z</time>
      </trkpt>
      <trkpt lat="46.20278" lon="6.6357">
        <ele>1341</ele>
        <time>2000-01-01T03:37:39.000Z</time>
      </trkpt>
      <trkpt lat="46.20291" lon="6.63573">
        <ele>1337.9</ele>
        <time>2000-01-01T03:37:49.000Z</time>
      </trkpt>
      <trkpt lat="46.20319" lon="6.63583">
        <ele>1335</ele>
        <time>2000-01-01T03:37:59.000Z</time>
      </trkpt>
      <trkpt lat="46.20349" lon="6.63589">
        <ele>1335</ele>
        <time>2000-01-01T03:38:09.000Z</time>
      </trkpt>
      <trkpt lat="46.20393" lon="6.63609">
        <ele>1336</ele>
        <time>2000-01-01T03:38:19.000Z</time>
      </trkpt>
      <trkpt lat="46.20415" lon="6.6363">
        <ele>1335</ele>
        <time>2000-01-01T03:38:29.000Z</time>
      </trkpt>
      <trkpt lat="46.20443" lon="6.63656">
        <ele>1335</ele>
        <time>2000-01-01T03:38:39.000Z</time>
      </trkpt>
      <trkpt lat="46.20441" lon="6.63667">
        <ele>1328</ele>
        <time>2000-01-01T03:38:49.000Z</time>
      </trkpt>
      <trkpt lat="46.20434" lon="6.63683">
        <ele>1330</ele>
        <time>2000-01-01T03:38:59.000Z</time>
      </trkpt>
      <trkpt lat="46.20433" lon="6.63694">
        <ele>1326</ele>
        <time>2000-01-01T03:39:09.000Z</time>
      </trkpt>
      <trkpt lat="46.20451" lon="6.63778">
        <ele>1321</ele>
        <time>2000-01-01T03:39:19.000Z</time>
      </trkpt>
      <trkpt lat="46.20455" lon="6.63788">
        <ele>1319.2</ele>
        <time>2000-01-01T03:39:29.000Z</time>
      </trkpt>
      <trkpt lat="46.20508" lon="6.63884">
        <ele>1310</ele>
        <time>2000-01-01T03:39:39.000Z</time>
      </trkpt>
      <trkpt lat="46.20522" lon="6.63896">
        <ele>1311.1</ele>
        <time>2000-01-01T03:39:49.000Z</time>
      </trkpt>
      <trkpt lat="46.20561" lon="6.6392">
        <ele>1310</ele>
        <time>2000-01-01T03:39:59.000Z</time>
      </trkpt>
      <trkpt lat="46.20589" lon="6.63947">
        <ele>1309</ele>
        <time>2000-01-01T03:40:09.000Z</time>
      </trkpt>
      <trkpt lat="46.2061" lon="6.63973">
        <ele>1309</ele>
        <time>2000-01-01T03:40:19.000Z</time>
      </trkpt>
      <trkpt lat="46.20632" lon="6.64012">
        <ele>1308</ele>
        <time>2000-01-01T03:40:29.000Z</time>
      </trkpt>
      <trkpt lat="46.20676" lon="6.64031">
        <ele>1307</ele>
        <time>2000-01-01T03:40:39.000Z</time>
      </trkpt>
      <trkpt lat="46.20684" lon="6.6403">
        <ele>1303.1</ele>
        <time>2000-01-01T03:40:49.000Z</time>
      </trkpt>
      <trkpt lat="46.20712" lon="6.64018">
        <ele>1306</ele>
        <time>2000-01-01T03:40:59.000Z</time>
      </trkpt>
      <trkpt lat="46.20733" lon="6.64017">
        <ele>1302</ele>
        <time>2000-01-01T03:41:09.000Z</time>
      </trkpt>
      <trkpt lat="46.20741" lon="6.64025">
        <ele>1297.6</ele>
        <time>2000-01-01T03:41:19.000Z</time>
      </trkpt>
      <trkpt lat="46.20823" lon="6.64138">
        <ele>1287</ele>
        <time>2000-01-01T03:41:29.000Z</time>
      </trkpt>
      <trkpt lat="46.20837" lon="6.64167">
        <ele>1283</ele>
        <time>2000-01-01T03:41:39.000Z</time>
      </trkpt>
      <trkpt lat="46.20849" lon="6.64201">
        <ele>1279</ele>
        <time>2000-01-01T03:41:49.000Z</time>
      </trkpt>
      <trkpt lat="46.20865" lon="6.64245">
        <ele>1275</ele>
        <time>2000-01-01T03:41:59.000Z</time>
      </trkpt>
      <trkpt lat="46.20873" lon="6.64263">
        <ele>1273.7</ele>
        <time>2000-01-01T03:42:09.000Z</time>
      </trkpt>
      <trkpt lat="46.20954" lon="6.64403">
        <ele>1267</ele>
        <time>2000-01-01T03:42:19.000Z</time>
      </trkpt>
      <trkpt lat="46.2097" lon="6.64426">
        <ele>1259</ele>
        <time>2000-01-01T03:42:29.000Z</time>
      </trkpt>
      <trkpt lat="46.20983" lon="6.64439">
        <ele>1256.8</ele>
        <time>2000-01-01T03:42:39.000Z</time>
      </trkpt>
      <trkpt lat="46.20988" lon="6.64448">
        <ele>1257</ele>
        <time>2000-01-01T03:42:49.000Z</time>
      </trkpt>
      <trkpt lat="46.21004" lon="6.64501">
        <ele>1255</ele>
        <time>2000-01-01T03:42:59.000Z</time>
      </trkpt>
      <trkpt lat="46.21014" lon="6.64523">
        <ele>1248.5</ele>
        <time>2000-01-01T03:43:09.000Z</time>
      </trkpt>
      <trkpt lat="46.21037" lon="6.64584">
        <ele>1245</ele>
        <time>2000-01-01T03:43:19.000Z</time>
      </trkpt>
      <trkpt lat="46.21042" lon="6.64603">
        <ele>1242.7</ele>
        <time>2000-01-01T03:43:29.000Z</time>
      </trkpt>
      <trkpt lat="46.21054" lon="6.64663">
        <ele>1235</ele>
        <time>2000-01-01T03:43:39.000Z</time>
      </trkpt>
      <trkpt lat="46.21057" lon="6.64697">
        <ele>1237</ele>
        <time>2000-01-01T03:43:49.000Z</time>
      </trkpt>
      <trkpt lat="46.21061" lon="6.64734">
        <ele>1234</ele>
        <time>2000-01-01T03:43:59.000Z</time>
      </trkpt>
      <trkpt lat="46.21072" lon="6.64781">
        <ele>1232</ele>
        <time>2000-01-01T03:44:09.000Z</time>
      </trkpt>
      <trkpt lat="46.21071" lon="6.64838">
        <ele>1230</ele>
        <time>2000-01-01T03:44:19.000Z</time>
      </trkpt>
      <trkpt lat="46.21074" lon="6.64871">
        <ele>1227</ele>
        <time>2000-01-01T03:44:29.000Z</time>
      </trkpt>
      <trkpt lat="46.21081" lon="6.64905">
        <ele>1220</ele>
        <time>2000-01-01T03:44:39.000Z</time>
      </trkpt>
      <trkpt lat="46.21089" lon="6.64942">
        <ele>1223</ele>
        <time>2000-01-01T03:44:49.000Z</time>
      </trkpt>
      <trkpt lat="46.21093" lon="6.64984">
        <ele>1220</ele>
        <time>2000-01-01T03:44:59.000Z</time>
      </trkpt>
      <trkpt lat="46.21098" lon="6.65053">
        <ele>1218</ele>
        <time>2000-01-01T03:45:09.000Z</time>
      </trkpt>
      <trkpt lat="46.21103" lon="6.65075">
        <ele>1198.9</ele>
        <time>2000-01-01T03:45:19.000Z</time>
      </trkpt>
      <trkpt lat="46.21136" lon="6.65169">
        <ele>1202</ele>
        <time>2000-01-01T03:45:29.000Z</time>
      </trkpt>
      <trkpt lat="46.21145" lon="6.65206">
        <ele>1185</ele>
        <time>2000-01-01T03:45:39.000Z</time>
      </trkpt>
      <trkpt lat="46.21156" lon="6.6523">
        <ele>1185</ele>
        <time>2000-01-01T03:45:49.000Z</time>
      </trkpt>
      <trkpt lat="46.21169" lon="6.65263">
        <ele>1177</ele>
        <time>2000-01-01T03:45:59.000Z</time>
      </trkpt>
      <trkpt lat="46.21186" lon="6.65308">
        <ele>1166</ele>
        <time>2000-01-01T03:46:09.000Z</time>
      </trkpt>
      <trkpt lat="46.21196" lon="6.65351">
        <ele>1160</ele>
        <time>2000-01-01T03:46:19.000Z</time>
      </trkpt>
      <trkpt lat="46.21203" lon="6.65374">
        <ele>1156.4</ele>
        <time>2000-01-01T03:46:29.000Z</time>
      </trkpt>
      <trkpt lat="46.21223" lon="6.65405">
        <ele>1159</ele>
        <time>2000-01-01T03:46:39.000Z</time>
      </trkpt>
      <trkpt lat="46.21243" lon="6.65424">
        <ele>1158</ele>
        <time>2000-01-01T03:46:49.000Z</time>
      </trkpt>
      <trkpt lat="46.21264" lon="6.65444">
        <ele>1157</ele>
        <time>2000-01-01T03:46:59.000Z</time>
      </trkpt>
      <trkpt lat="46.21283" lon="6.65466">
        <ele>1156</ele>
        <time>2000-01-01T03:47:09.000Z</time>
      </trkpt>
      <trkpt lat="46.21305" lon="6.65491">
        <ele>1151</ele>
        <time>2000-01-01T03:47:19.000Z</time>
      </trkpt>
      <trkpt lat="46.21329" lon="6.65511">
        <ele>1147</ele>
        <time>2000-01-01T03:47:29.000Z</time>
      </trkpt>
      <trkpt lat="46.21361" lon="6.65539">
        <ele>1144</ele>
        <time>2000-01-01T03:47:39.000Z</time>
      </trkpt>
      <trkpt lat="46.21384" lon="6.65556">
        <ele>1129</ele>
        <time>2000-01-01T03:47:49.000Z</time>
      </trkpt>
      <trkpt lat="46.21414" lon="6.65579">
        <ele>1117</ele>
        <time>2000-01-01T03:47:59.000Z</time>
      </trkpt>
      <trkpt lat="46.2143" lon="6.65586">
        <ele>1116.8</ele>
        <time>2000-01-01T03:48:09.000Z</time>
      </trkpt>
      <trkpt lat="46.21528" lon="6.6561">
        <ele>1100</ele>
        <time>2000-01-01T03:48:19.000Z</time>
      </trkpt>
      <trkpt lat="46.21558" lon="6.65599">
        <ele>1096</ele>
        <time>2000-01-01T03:48:29.000Z</time>
      </trkpt>
      <trkpt lat="46.21616" lon="6.65577">
        <ele>1089</ele>
        <time>2000-01-01T03:48:39.000Z</time>
      </trkpt>
      <trkpt lat="46.21644" lon="6.65569">
        <ele>1083</ele>
        <time>2000-01-01T03:48:49.000Z</time>
      </trkpt>
      <trkpt lat="46.21685" lon="6.65557">
        <ele>1076</ele>
        <time>2000-01-01T03:48:59.000Z</time>
      </trkpt>
      <trkpt lat="46.21709" lon="6.65553">
        <ele>1076</ele>
        <time>2000-01-01T03:49:09.000Z</time>
      </trkpt>
      <trkpt lat="46.21734" lon="6.65548">
        <ele>1076</ele>
        <time>2000-01-01T03:49:19.000Z</time>
      </trkpt>
      <trkpt lat="46.21776" lon="6.65533">
        <ele>1076</ele>
        <time>2000-01-01T03:49:29.000Z</time>
      </trkpt>
      <trkpt lat="46.218" lon="6.65517">
        <ele>1070</ele>
        <time>2000-01-01T03:49:39.000Z</time>
      </trkpt>
      <trkpt lat="46.21833" lon="6.65495">
        <ele>1064</ele>
        <time>2000-01-01T03:49:49.000Z</time>
      </trkpt>
      <trkpt lat="46.21876" lon="6.6548">
        <ele>1056</ele>
        <time>2000-01-01T03:49:59.000Z</time>
      </trkpt>
      <trkpt lat="46.21898" lon="6.65468">
        <ele>1041</ele>
        <time>2000-01-01T03:50:09.000Z</time>
      </trkpt>
      <trkpt lat="46.21922" lon="6.65456">
        <ele>1024</ele>
        <time>2000-01-01T03:50:19.000Z</time>
      </trkpt>
      <trkpt lat="46.21952" lon="6.65429">
        <ele>1020</ele>
        <time>2000-01-01T03:50:29.000Z</time>
      </trkpt>
      <trkpt lat="46.21981" lon="6.65402">
        <ele>1020</ele>
        <time>2000-01-01T03:50:39.000Z</time>
      </trkpt>
      <trkpt lat="46.22039" lon="6.65349">
        <ele>1012</ele>
        <time>2000-01-01T03:50:49.000Z</time>
      </trkpt>
      <trkpt lat="46.22054" lon="6.6532">
        <ele>1004</ele>
        <time>2000-01-01T03:50:59.000Z</time>
      </trkpt>
      <trkpt lat="46.22072" lon="6.65285">
        <ele>1005</ele>
        <time>2000-01-01T03:51:09.000Z</time>
      </trkpt>
      <trkpt lat="46.2208" lon="6.65263">
        <ele>1009.3</ele>
        <time>2000-01-01T03:51:19.000Z</time>
      </trkpt>
      <trkpt lat="46.22085" lon="6.65226">
        <ele>1006</ele>
        <time>2000-01-01T03:51:29.000Z</time>
      </trkpt>
      <trkpt lat="46.22086" lon="6.65189">
        <ele>1006</ele>
        <time>2000-01-01T03:51:39.000Z</time>
      </trkpt>
      <trkpt lat="46.22087" lon="6.65143">
        <ele>1006</ele>
        <time>2000-01-01T03:51:49.000Z</time>
      </trkpt>
      <trkpt lat="46.22091" lon="6.65108">
        <ele>1000</ele>
        <time>2000-01-01T03:51:59.000Z</time>
      </trkpt>
      <trkpt lat="46.22107" lon="6.65054">
        <ele>995</ele>
        <time>2000-01-01T03:52:09.000Z</time>
      </trkpt>
      <trkpt lat="46.22114" lon="6.65056">
        <ele>994.1</ele>
        <time>2000-01-01T03:52:19.000Z</time>
      </trkpt>
      <trkpt lat="46.22122" lon="6.65053">
        <ele>992</ele>
        <time>2000-01-01T03:52:29.000Z</time>
      </trkpt>
      <trkpt lat="46.22149" lon="6.65005">
        <ele>991</ele>
        <time>2000-01-01T03:52:39.000Z</time>
      </trkpt>
      <trkpt lat="46.22169" lon="6.64985">
        <ele>988</ele>
        <time>2000-01-01T03:52:49.000Z</time>
      </trkpt>
      <trkpt lat="46.22192" lon="6.64961">
        <ele>985</ele>
        <time>2000-01-01T03:52:59.000Z</time>
      </trkpt>
      <trkpt lat="46.22219" lon="6.64922">
        <ele>982</ele>
        <time>2000-01-01T03:53:09.000Z</time>
      </trkpt>
      <trkpt lat="46.22229" lon="6.64909">
        <ele>983.5</ele>
        <time>2000-01-01T03:53:19.000Z</time>
      </trkpt>
      <trkpt lat="46.22249" lon="6.64897">
        <ele>980</ele>
        <time>2000-01-01T03:53:29.000Z</time>
      </trkpt>
      <trkpt lat="46.22259" lon="6.64895">
        <ele>979.4</ele>
        <time>2000-01-01T03:53:39.000Z</time>
      </trkpt>
      <trkpt lat="46.22311" lon="6.64938">
        <ele>975</ele>
        <time>2000-01-01T03:53:49.000Z</time>
      </trkpt>
      <trkpt lat="46.2235" lon="6.64957">
        <ele>971</ele>
        <time>2000-01-01T03:53:59.000Z</time>
      </trkpt>
      <trkpt lat="46.22388" lon="6.64991">
        <ele>971</ele>
        <time>2000-01-01T03:54:09.000Z</time>
      </trkpt>
      <trkpt lat="46.22415" lon="6.65021">
        <ele>970</ele>
        <time>2000-01-01T03:54:19.000Z</time>
      </trkpt>
      <trkpt lat="46.22438" lon="6.65033">
        <ele>969</ele>
        <time>2000-01-01T03:54:29.000Z</time>
      </trkpt>
      <trkpt lat="46.22463" lon="6.65046">
        <ele>969</ele>
        <time>2000-01-01T03:54:39.000Z</time>
      </trkpt>
      <trkpt lat="46.2248" lon="6.6506">
        <ele>967</ele>
        <time>2000-01-01T03:54:49.000Z</time>
      </trkpt>
      <trkpt lat="46.22503" lon="6.65086">
        <ele>965</ele>
        <time>2000-01-01T03:54:59.000Z</time>
      </trkpt>
      <trkpt lat="46.22521" lon="6.65112">
        <ele>965</ele>
        <time>2000-01-01T03:55:09.000Z</time>
      </trkpt>
      <trkpt lat="46.22542" lon="6.65142">
        <ele>965</ele>
        <time>2000-01-01T03:55:19.000Z</time>
      </trkpt>
      <trkpt lat="46.22555" lon="6.65156">
        <ele>954</ele>
        <time>2000-01-01T03:55:29.000Z</time>
      </trkpt>
      <trkpt lat="46.22699" lon="6.6528">
        <ele>932</ele>
        <time>2000-01-01T03:55:39.000Z</time>
      </trkpt>
      <trkpt lat="46.22685" lon="6.65278">
        <ele>933.2</ele>
        <time>2000-01-01T03:55:49.000Z</time>
      </trkpt>
      <trkpt lat="46.22707" lon="6.65301">
        <ele>923</ele>
        <time>2000-01-01T03:55:59.000Z</time>
      </trkpt>
      <trkpt lat="46.22719" lon="6.65308">
        <ele>923.8</ele>
        <time>2000-01-01T03:56:09.000Z</time>
      </trkpt>
      <trkpt lat="46.22721" lon="6.65318">
        <ele>919</ele>
        <time>2000-01-01T03:56:19.000Z</time>
      </trkpt>
      <trkpt lat="46.22714" lon="6.65318">
        <ele>919.2</ele>
        <time>2000-01-01T03:56:29.000Z</time>
      </trkpt>
      <trkpt lat="46.22733" lon="6.65335">
        <ele>911</ele>
        <time>2000-01-01T03:56:39.000Z</time>
      </trkpt>
      <trkpt lat="46.22755" lon="6.65321">
        <ele>906</ele>
        <time>2000-01-01T03:56:49.000Z</time>
      </trkpt>
      <trkpt lat="46.22781" lon="6.65286">
        <ele>899</ele>
        <time>2000-01-01T03:56:59.000Z</time>
      </trkpt>
      <trkpt lat="46.22803" lon="6.6526">
        <ele>893</ele>
        <time>2000-01-01T03:57:09.000Z</time>
      </trkpt>
      <trkpt lat="46.22808" lon="6.65259">
        <ele>885.6</ele>
        <time>2000-01-01T03:57:19.000Z</time>
      </trkpt>
      <trkpt lat="46.22816" lon="6.65219">
        <ele>876</ele>
        <time>2000-01-01T03:57:29.000Z</time>
      </trkpt>
      <trkpt lat="46.22816" lon="6.65182">
        <ele>876</ele>
        <time>2000-01-01T03:57:39.000Z</time>
      </trkpt>
      <trkpt lat="46.22816" lon="6.65134">
        <ele>876</ele>
        <time>2000-01-01T03:57:49.000Z</time>
      </trkpt>
      <trkpt lat="46.22826" lon="6.65099">
        <ele>875</ele>
        <time>2000-01-01T03:57:59.000Z</time>
      </trkpt>
      <trkpt lat="46.22838" lon="6.65054">
        <ele>874</ele>
        <time>2000-01-01T03:58:09.000Z</time>
      </trkpt>
      <trkpt lat="46.22848" lon="6.65044">
        <ele>865.5</ele>
        <time>2000-01-01T03:58:19.000Z</time>
      </trkpt>
      <trkpt lat="46.22843" lon="6.65027">
        <ele>874</ele>
        <time>2000-01-01T03:58:29.000Z</time>
      </trkpt>
      <trkpt lat="46.22844" lon="6.65008">
        <ele>867.5</ele>
        <time>2000-01-01T03:58:39.000Z</time>
      </trkpt>
      <trkpt lat="46.22868" lon="6.64932">
        <ele>875</ele>
        <time>2000-01-01T03:58:49.000Z</time>
      </trkpt>
      <trkpt lat="46.22871" lon="6.64908">
        <ele>869.7</ele>
        <time>2000-01-01T03:58:59.000Z</time>
      </trkpt>
      <trkpt lat="46.22871" lon="6.64856">
        <ele>876</ele>
        <time>2000-01-01T03:59:09.000Z</time>
      </trkpt>
      <trkpt lat="46.22876" lon="6.64806">
        <ele>876</ele>
        <time>2000-01-01T03:59:19.000Z</time>
      </trkpt>
      <trkpt lat="46.22875" lon="6.64794">
        <ele>874.8</ele>
        <time>2000-01-01T03:59:29.000Z</time>
      </trkpt>
      <trkpt lat="46.22872" lon="6.64787">
        <ele>875.2</ele>
        <time>2000-01-01T03:59:39.000Z</time>
      </trkpt>
      <trkpt lat="46.22876" lon="6.64781">
        <ele>876</ele>
        <time>2000-01-01T03:59:49.000Z</time>
      </trkpt>
      <trkpt lat="46.2288" lon="6.64743">
        <ele>870</ele>
        <time>2000-01-01T03:59:59.000Z</time>
      </trkpt>
      <trkpt lat="46.22885" lon="6.64692">
        <ele>866</ele>
        <time>2000-01-01T04:00:09.000Z</time>
      </trkpt>
      <trkpt lat="46.22889" lon="6.64673">
        <ele>866.4</ele>
        <time>2000-01-01T04:00:19.000Z</time>
      </trkpt>
      <trkpt lat="46.22911" lon="6.64686">
        <ele>860</ele>
        <time>2000-01-01T04:00:29.000Z</time>
      </trkpt>
      <trkpt lat="46.22935" lon="6.64706">
        <ele>860</ele>
        <time>2000-01-01T04:00:39.000Z</time>
      </trkpt>
      <trkpt lat="46.22944" lon="6.64723">
        <ele>861.2</ele>
        <time>2000-01-01T04:00:49.000Z</time>
      </trkpt>
      <trkpt lat="46.22976" lon="6.64889">
        <ele>860</ele>
        <time>2000-01-01T04:00:59.000Z</time>
      </trkpt>
      <trkpt lat="46.22999" lon="6.64939">
        <ele>854</ele>
        <time>2000-01-01T04:01:09.000Z</time>
      </trkpt>
      <trkpt lat="46.23027" lon="6.64956">
        <ele>848</ele>
        <time>2000-01-01T04:01:19.000Z</time>
      </trkpt>
      <trkpt lat="46.23081" lon="6.6499">
        <ele>841</ele>
        <time>2000-01-01T04:01:29.000Z</time>
      </trkpt>
      <trkpt lat="46.23105" lon="6.65015">
        <ele>837</ele>
        <time>2000-01-01T04:01:39.000Z</time>
      </trkpt>
      <trkpt lat="46.23148" lon="6.65059">
        <ele>831</ele>
        <time>2000-01-01T04:01:49.000Z</time>
      </trkpt>
      <trkpt lat="46.23166" lon="6.65081">
        <ele>829</ele>
        <time>2000-01-01T04:01:59.000Z</time>
      </trkpt>
      <trkpt lat="46.23185" lon="6.65105">
        <ele>826</ele>
        <time>2000-01-01T04:02:09.000Z</time>
      </trkpt>
      <trkpt lat="46.23198" lon="6.65118">
        <ele>823</ele>
        <time>2000-01-01T04:02:19.000Z</time>
      </trkpt>
      <trkpt lat="46.2322" lon="6.65124">
        <ele>820</ele>
        <time>2000-01-01T04:02:29.000Z</time>
      </trkpt>
      <trkpt lat="46.23238" lon="6.65134">
        <ele>818</ele>
        <time>2000-01-01T04:02:39.000Z</time>
      </trkpt>
      <trkpt lat="46.23243" lon="6.65107">
        <ele>814</ele>
        <time>2000-01-01T04:02:49.000Z</time>
      </trkpt>
      <trkpt lat="46.23276" lon="6.65149">
        <ele>810</ele>
        <time>2000-01-01T04:02:59.000Z</time>
      </trkpt>
      <trkpt lat="46.23283" lon="6.65167">
        <ele>808.6</ele>
        <time>2000-01-01T04:03:09.000Z</time>
      </trkpt>
      <trkpt lat="46.23321" lon="6.65174">
        <ele>806</ele>
        <time>2000-01-01T04:03:19.000Z</time>
      </trkpt>
      <trkpt lat="46.23344" lon="6.65179">
        <ele>804</ele>
        <time>2000-01-01T04:03:29.000Z</time>
      </trkpt>
      <trkpt lat="46.23369" lon="6.65185">
        <ele>803</ele>
        <time>2000-01-01T04:03:39.000Z</time>
      </trkpt>
      <trkpt lat="46.23366" lon="6.65177">
        <ele>800.7</ele>
        <time>2000-01-01T04:03:49.000Z</time>
      </trkpt>
      <trkpt lat="46.23357" lon="6.65167">
        <ele>800.8</ele>
        <time>2000-01-01T04:03:59.000Z</time>
      </trkpt>
      <trkpt lat="46.23354" lon="6.65159">
        <ele>800</ele>
        <time>2000-01-01T04:04:09.000Z</time>
      </trkpt>
      <trkpt lat="46.23353" lon="6.6514">
        <ele>799.5</ele>
        <time>2000-01-01T04:04:19.000Z</time>
      </trkpt>
      <trkpt lat="46.23357" lon="6.65116">
        <ele>795</ele>
        <time>2000-01-01T04:04:29.000Z</time>
      </trkpt>
      <trkpt lat="46.23364" lon="6.65098">
        <ele>796.2</ele>
        <time>2000-01-01T04:04:39.000Z</time>
      </trkpt>
      <trkpt lat="46.23369" lon="6.65092">
        <ele>795</ele>
        <time>2000-01-01T04:04:49.000Z</time>
      </trkpt>
      <trkpt lat="46.23375" lon="6.6509">
        <ele>795.3</ele>
        <time>2000-01-01T04:04:59.000Z</time>
      </trkpt>
      <trkpt lat="46.23432" lon="6.65079">
        <ele>794</ele>
        <time>2000-01-01T04:05:09.000Z</time>
      </trkpt>
      <trkpt lat="46.23454" lon="6.65066">
        <ele>792</ele>
        <time>2000-01-01T04:05:19.000Z</time>
      </trkpt>
      <trkpt lat="46.23481" lon="6.65046">
        <ele>791</ele>
        <time>2000-01-01T04:05:29.000Z</time>
      </trkpt>
      <trkpt lat="46.2353" lon="6.65011">
        <ele>790</ele>
        <time>2000-01-01T04:05:39.000Z</time>
      </trkpt>
      <trkpt lat="46.23548" lon="6.6499">
        <ele>789</ele>
        <time>2000-01-01T04:05:49.000Z</time>
      </trkpt>
      <trkpt lat="46.23567" lon="6.64969">
        <ele>788</ele>
        <time>2000-01-01T04:05:59.000Z</time>
      </trkpt>
      <trkpt lat="46.23587" lon="6.64943">
        <ele>784</ele>
        <time>2000-01-01T04:06:09.000Z</time>
      </trkpt>
      <trkpt lat="46.23612" lon="6.6491">
        <ele>779</ele>
        <time>2000-01-01T04:06:19.000Z</time>
      </trkpt>
      <trkpt lat="46.23633" lon="6.64891">
        <ele>778</ele>
        <time>2000-01-01T04:06:29.000Z</time>
      </trkpt>
      <trkpt lat="46.23656" lon="6.64871">
        <ele>778</ele>
        <time>2000-01-01T04:06:39.000Z</time>
      </trkpt>
      <trkpt lat="46.23667" lon="6.64858">
        <ele>776.4</ele>
        <time>2000-01-01T04:06:49.000Z</time>
      </trkpt>
      <trkpt lat="46.23678" lon="6.64852">
        <ele>779</ele>
        <time>2000-01-01T04:06:59.000Z</time>
      </trkpt>
      <trkpt lat="46.23688" lon="6.64828">
        <ele>775</ele>
        <time>2000-01-01T04:07:09.000Z</time>
      </trkpt>
      <trkpt lat="46.23698" lon="6.64824">
        <ele>778.1</ele>
        <time>2000-01-01T04:07:19.000Z</time>
      </trkpt>
      <trkpt lat="46.2373" lon="6.64823">
        <ele>775</ele>
        <time>2000-01-01T04:07:29.000Z</time>
      </trkpt>
      <trkpt lat="46.23765" lon="6.64809">
        <ele>775</ele>
        <time>2000-01-01T04:07:39.000Z</time>
      </trkpt>
      <trkpt lat="46.23787" lon="6.64786">
        <ele>777</ele>
        <time>2000-01-01T04:07:49.000Z</time>
      </trkpt>
      <trkpt lat="46.23819" lon="6.64753">
        <ele>772</ele>
        <time>2000-01-01T04:07:59.000Z</time>
      </trkpt>
      <trkpt lat="46.23841" lon="6.6474">
        <ele>767</ele>
        <time>2000-01-01T04:08:09.000Z</time>
      </trkpt>
      <trkpt lat="46.2388" lon="6.6471">
        <ele>765</ele>
        <time>2000-01-01T04:08:19.000Z</time>
      </trkpt>
      <trkpt lat="46.23915" lon="6.64689">
        <ele>764</ele>
        <time>2000-01-01T04:08:29.000Z</time>
      </trkpt>
      <trkpt lat="46.23935" lon="6.6467">
        <ele>763</ele>
        <time>2000-01-01T04:08:39.000Z</time>
      </trkpt>
      <trkpt lat="46.23957" lon="6.6465">
        <ele>762</ele>
        <time>2000-01-01T04:08:49.000Z</time>
      </trkpt>
      <trkpt lat="46.23973" lon="6.64619">
        <ele>762</ele>
        <time>2000-01-01T04:08:59.000Z</time>
      </trkpt>
      <trkpt lat="46.23995" lon="6.64576">
        <ele>762</ele>
        <time>2000-01-01T04:09:09.000Z</time>
      </trkpt>
      <trkpt lat="46.24002" lon="6.6455">
        <ele>762</ele>
        <time>2000-01-01T04:09:19.000Z</time>
      </trkpt>
      <trkpt lat="46.24014" lon="6.64532">
        <ele>760.7</ele>
        <time>2000-01-01T04:09:29.000Z</time>
      </trkpt>
      <trkpt lat="46.24017" lon="6.64508">
        <ele>766</ele>
        <time>2000-01-01T04:09:39.000Z</time>
      </trkpt>
      <trkpt lat="46.24027" lon="6.64476">
        <ele>763</ele>
        <time>2000-01-01T04:09:49.000Z</time>
      </trkpt>
      <trkpt lat="46.24048" lon="6.64461">
        <ele>768</ele>
        <time>2000-01-01T04:09:59.000Z</time>
      </trkpt>
      <trkpt lat="46.24051" lon="6.64429">
        <ele>774</ele>
        <time>2000-01-01T04:10:09.000Z</time>
      </trkpt>
      <trkpt lat="46.24073" lon="6.64414">
        <ele>774</ele>
        <time>2000-01-01T04:10:19.000Z</time>
      </trkpt>
      <trkpt lat="46.24104" lon="6.64428">
        <ele>758</ele>
        <time>2000-01-01T04:10:29.000Z</time>
      </trkpt>
      <trkpt lat="46.24129" lon="6.64424">
        <ele>757</ele>
        <time>2000-01-01T04:10:39.000Z</time>
      </trkpt>
      <trkpt lat="46.24157" lon="6.6442">
        <ele>757</ele>
        <time>2000-01-01T04:10:49.000Z</time>
      </trkpt>
      <trkpt lat="46.24189" lon="6.6439">
        <ele>758</ele>
        <time>2000-01-01T04:10:59.000Z</time>
      </trkpt>
      <trkpt lat="46.24206" lon="6.64362">
        <ele>756</ele>
        <time>2000-01-01T04:11:09.000Z</time>
      </trkpt>
      <trkpt lat="46.24241" lon="6.64344">
        <ele>758</ele>
        <time>2000-01-01T04:11:19.000Z</time>
      </trkpt>
      <trkpt lat="46.2426" lon="6.64311">
        <ele>761</ele>
        <time>2000-01-01T04:11:29.000Z</time>
      </trkpt>
      <trkpt lat="46.24291" lon="6.64253">
        <ele>761</ele>
        <time>2000-01-01T04:11:39.000Z</time>
      </trkpt>
      <trkpt lat="46.2431" lon="6.64226">
        <ele>764</ele>
        <time>2000-01-01T04:11:49.000Z</time>
      </trkpt>
      <trkpt lat="46.24311" lon="6.64204">
        <ele>757</ele>
        <time>2000-01-01T04:11:59.000Z</time>
      </trkpt>
      <trkpt lat="46.24323" lon="6.64169">
        <ele>765</ele>
        <time>2000-01-01T04:12:09.000Z</time>
      </trkpt>
      <trkpt lat="46.2432" lon="6.64167">
        <ele>761.6</ele>
        <time>2000-01-01T04:12:19.000Z</time>
      </trkpt>
      <trkpt lat="46.24379" lon="6.64241">
        <ele>765</ele>
        <time>2000-01-01T04:12:29.000Z</time>
      </trkpt>
      <trkpt lat="46.2438" lon="6.64242">
        <ele>767</ele>
        <time>2000-01-01T04:12:39.000Z</time>
      </trkpt>
      <trkpt lat="46.24407" lon="6.6422">
        <ele>764</ele>
        <time>2000-01-01T04:12:49.000Z</time>
      </trkpt>
      <trkpt lat="46.24439" lon="6.64206">
        <ele>764</ele>
        <time>2000-01-01T04:12:59.000Z</time>
      </trkpt>
      <trkpt lat="46.24446" lon="6.64205">
        <ele>764</ele>
        <time>2000-01-01T04:13:09.000Z</time>
      </trkpt>
      <trkpt lat="46.24503" lon="6.6421">
        <ele>761</ele>
        <time>2000-01-01T04:13:19.000Z</time>
      </trkpt>
      <trkpt lat="46.24528" lon="6.64207">
        <ele>757</ele>
        <time>2000-01-01T04:13:29.000Z</time>
      </trkpt>
      <trkpt lat="46.24542" lon="6.642">
        <ele>757.7</ele>
        <time>2000-01-01T04:13:39.000Z</time>
      </trkpt>
      <trkpt lat="46.24554" lon="6.6419">
        <ele>757</ele>
        <time>2000-01-01T04:13:49.000Z</time>
      </trkpt>
      <trkpt lat="46.24571" lon="6.64167">
        <ele>756</ele>
        <time>2000-01-01T04:13:59.000Z</time>
      </trkpt>
      <trkpt lat="46.24579" lon="6.64148">
        <ele>755.6</ele>
        <time>2000-01-01T04:14:09.000Z</time>
      </trkpt>
      <trkpt lat="46.24587" lon="6.64115">
        <ele>753</ele>
        <time>2000-01-01T04:14:19.000Z</time>
      </trkpt>
      <trkpt lat="46.24588" lon="6.64054">
        <ele>751</ele>
        <time>2000-01-01T04:14:29.000Z</time>
      </trkpt>
      <trkpt lat="46.24592" lon="6.64027">
        <ele>751</ele>
        <time>2000-01-01T04:14:39.000Z</time>
      </trkpt>
      <trkpt lat="46.24605" lon="6.63992">
        <ele>748</ele>
        <time>2000-01-01T04:14:49.000Z</time>
      </trkpt>
      <trkpt lat="46.24636" lon="6.63945">
        <ele>747</ele>
        <time>2000-01-01T04:14:59.000Z</time>
      </trkpt>
      <trkpt lat="46.2465" lon="6.63914">
        <ele>746</ele>
        <time>2000-01-01T04:15:09.000Z</time>
      </trkpt>
      <trkpt lat="46.2466" lon="6.63864">
        <ele>743</ele>
        <time>2000-01-01T04:15:19.000Z</time>
      </trkpt>
      <trkpt lat="46.2467" lon="6.63814">
        <ele>743</ele>
        <time>2000-01-01T04:15:29.000Z</time>
      </trkpt>
      <trkpt lat="46.2468" lon="6.63764">
        <ele>756</ele>
        <time>2000-01-01T04:15:39.000Z</time>
      </trkpt>
      <trkpt lat="46.24694" lon="6.63695">
        <ele>770</ele>
        <time>2000-01-01T04:15:49.000Z</time>
      </trkpt>
      <trkpt lat="46.24699" lon="6.63681">
        <ele>770.5</ele>
        <time>2000-01-01T04:15:59.000Z</time>
      </trkpt>
      <trkpt lat="46.24713" lon="6.63653">
        <ele>754</ele>
        <time>2000-01-01T04:16:09.000Z</time>
      </trkpt>
      <trkpt lat="46.24733" lon="6.63634">
        <ele>739</ele>
        <time>2000-01-01T04:16:19.000Z</time>
      </trkpt>
      <trkpt lat="46.24777" lon="6.63621">
        <ele>735</ele>
        <time>2000-01-01T04:16:29.000Z</time>
      </trkpt>
      <trkpt lat="46.24794" lon="6.63606">
        <ele>735</ele>
        <time>2000-01-01T04:16:39.000Z</time>
      </trkpt>
      <trkpt lat="46.24803" lon="6.63588">
        <ele>735.6</ele>
        <time>2000-01-01T04:16:49.000Z</time>
      </trkpt>
      <trkpt lat="46.24825" lon="6.63518">
        <ele>726</ele>
        <time>2000-01-01T04:16:59.000Z</time>
      </trkpt>
      <trkpt lat="46.24839" lon="6.63486">
        <ele>725</ele>
        <time>2000-01-01T04:17:09.000Z</time>
      </trkpt>
      <trkpt lat="46.24858" lon="6.63443">
        <ele>725</ele>
        <time>2000-01-01T04:17:19.000Z</time>
      </trkpt>
      <trkpt lat="46.24875" lon="6.63415">
        <ele>727</ele>
        <time>2000-01-01T04:17:29.000Z</time>
      </trkpt>
      <trkpt lat="46.24896" lon="6.63383">
        <ele>726</ele>
        <time>2000-01-01T04:17:39.000Z</time>
      </trkpt>
      <trkpt lat="46.24914" lon="6.63342">
        <ele>725</ele>
        <time>2000-01-01T04:17:49.000Z</time>
      </trkpt>
      <trkpt lat="46.24932" lon="6.63302">
        <ele>725</ele>
        <time>2000-01-01T04:17:59.000Z</time>
      </trkpt>
      <trkpt lat="46.24959" lon="6.6324">
        <ele>725</ele>
        <time>2000-01-01T04:18:09.000Z</time>
      </trkpt>
      <trkpt lat="46.24976" lon="6.63212">
        <ele>725</ele>
        <time>2000-01-01T04:18:19.000Z</time>
      </trkpt>
      <trkpt lat="46.24999" lon="6.6319">
        <ele>724</ele>
        <time>2000-01-01T04:18:29.000Z</time>
      </trkpt>
      <trkpt lat="46.25023" lon="6.63175">
        <ele>723</ele>
        <time>2000-01-01T04:18:39.000Z</time>
      </trkpt>
      <trkpt lat="46.2505" lon="6.63158">
        <ele>722</ele>
        <time>2000-01-01T04:18:49.000Z</time>
      </trkpt>
      <trkpt lat="46.25075" lon="6.63151">
        <ele>722</ele>
        <time>2000-01-01T04:18:59.000Z</time>
      </trkpt>
      <trkpt lat="46.25105" lon="6.63144">
        <ele>721</ele>
        <time>2000-01-01T04:19:09.000Z</time>
      </trkpt>
      <trkpt lat="46.25118" lon="6.63137">
        <ele>721.9</ele>
        <time>2000-01-01T04:19:19.000Z</time>
      </trkpt>
      <trkpt lat="46.25122" lon="6.63142">
        <ele>721</ele>
        <time>2000-01-01T04:19:29.000Z</time>
      </trkpt>
      <trkpt lat="46.25129" lon="6.63141">
        <ele>725.4</ele>
        <time>2000-01-01T04:19:39.000Z</time>
      </trkpt>
      <trkpt lat="46.25178" lon="6.63087">
        <ele>727</ele>
        <time>2000-01-01T04:19:49.000Z</time>
      </trkpt>
      <trkpt lat="46.25191" lon="6.63076">
        <ele>729.6</ele>
        <time>2000-01-01T04:19:59.000Z</time>
      </trkpt>
      <trkpt lat="46.25253" lon="6.6306">
        <ele>734</ele>
        <time>2000-01-01T04:20:09.000Z</time>
      </trkpt>
      <trkpt lat="46.25298" lon="6.63068">
        <ele>736</ele>
        <time>2000-01-01T04:20:19.000Z</time>
      </trkpt>
      <trkpt lat="46.25331" lon="6.63069">
        <ele>739</ele>
        <time>2000-01-01T04:20:29.000Z</time>
      </trkpt>
      <trkpt lat="46.25364" lon="6.6307">
        <ele>744</ele>
        <time>2000-01-01T04:20:39.000Z</time>
      </trkpt>
      <trkpt lat="46.25407" lon="6.63071">
        <ele>745</ele>
        <time>2000-01-01T04:20:49.000Z</time>
      </trkpt>
      <trkpt lat="46.25429" lon="6.63067">
        <ele>746</ele>
        <time>2000-01-01T04:20:59.000Z</time>
      </trkpt>
      <trkpt lat="46.25457" lon="6.63051">
        <ele>750</ele>
        <time>2000-01-01T04:21:09.000Z</time>
      </trkpt>
      <trkpt lat="46.25466" lon="6.63049">
        <ele>751.5</ele>
        <time>2000-01-01T04:21:19.000Z</time>
      </trkpt>
      <trkpt lat="46.25476" lon="6.63052">
        <ele>754</ele>
        <time>2000-01-01T04:21:29.000Z</time>
      </trkpt>
      <trkpt lat="46.25502" lon="6.63081">
        <ele>757</ele>
        <time>2000-01-01T04:21:39.000Z</time>
      </trkpt>
      <trkpt lat="46.25525" lon="6.63094">
        <ele>760</ele>
        <time>2000-01-01T04:21:49.000Z</time>
      </trkpt>
      <trkpt lat="46.25549" lon="6.631">
        <ele>761</ele>
        <time>2000-01-01T04:21:59.000Z</time>
      </trkpt>
      <trkpt lat="46.25574" lon="6.63102">
        <ele>763</ele>
        <time>2000-01-01T04:22:09.000Z</time>
      </trkpt>
      <trkpt lat="46.256" lon="6.63104">
        <ele>766</ele>
        <time>2000-01-01T04:22:19.000Z</time>
      </trkpt>
      <trkpt lat="46.25627" lon="6.631">
        <ele>767</ele>
        <time>2000-01-01T04:22:29.000Z</time>
      </trkpt>
      <trkpt lat="46.25655" lon="6.63085">
        <ele>770</ele>
        <time>2000-01-01T04:22:39.000Z</time>
      </trkpt>
      <trkpt lat="46.25664" lon="6.63075">
        <ele>773.6</ele>
        <time>2000-01-01T04:22:49.000Z</time>
      </trkpt>
      <trkpt lat="46.25683" lon="6.63045">
        <ele>775</ele>
        <time>2000-01-01T04:22:59.000Z</time>
      </trkpt>
      <trkpt lat="46.25691" lon="6.6304">
        <ele>775.5</ele>
        <time>2000-01-01T04:23:09.000Z</time>
      </trkpt>
      <trkpt lat="46.257" lon="6.6304">
        <ele>776.2</ele>
        <time>2000-01-01T04:23:19.000Z</time>
      </trkpt>
      <trkpt lat="46.25708" lon="6.63045">
        <ele>777</ele>
        <time>2000-01-01T04:23:29.000Z</time>
      </trkpt>
      <trkpt lat="46.25727" lon="6.63065">
        <ele>779</ele>
        <time>2000-01-01T04:23:39.000Z</time>
      </trkpt>
      <trkpt lat="46.25746" lon="6.63086">
        <ele>781</ele>
        <time>2000-01-01T04:23:49.000Z</time>
      </trkpt>
      <trkpt lat="46.2576" lon="6.63094">
        <ele>784.4</ele>
        <time>2000-01-01T04:23:59.000Z</time>
      </trkpt>
      <trkpt lat="46.25769" lon="6.63094">
        <ele>783</ele>
        <time>2000-01-01T04:24:09.000Z</time>
      </trkpt>
      <trkpt lat="46.2578" lon="6.63089">
        <ele>785.9</ele>
        <time>2000-01-01T04:24:19.000Z</time>
      </trkpt>
      <trkpt lat="46.25803" lon="6.63064">
        <ele>787</ele>
        <time>2000-01-01T04:24:29.000Z</time>
      </trkpt>
      <trkpt lat="46.25818" lon="6.6304">
        <ele>788</ele>
        <time>2000-01-01T04:24:39.000Z</time>
      </trkpt>
      <trkpt lat="46.25836" lon="6.63002">
        <ele>791</ele>
        <time>2000-01-01T04:24:49.000Z</time>
      </trkpt>
      <trkpt lat="46.25848" lon="6.62992">
        <ele>793</ele>
        <time>2000-01-01T04:24:59.000Z</time>
      </trkpt>
      <trkpt lat="46.25857" lon="6.62992">
        <ele>794</ele>
        <time>2000-01-01T04:25:09.000Z</time>
      </trkpt>
      <trkpt lat="46.25866" lon="6.62995">
        <ele>795.2</ele>
        <time>2000-01-01T04:25:19.000Z</time>
      </trkpt>
      <trkpt lat="46.259" lon="6.63028">
        <ele>798</ele>
        <time>2000-01-01T04:25:29.000Z</time>
      </trkpt>
      <trkpt lat="46.25917" lon="6.63054">
        <ele>801</ele>
        <time>2000-01-01T04:25:39.000Z</time>
      </trkpt>
      <trkpt lat="46.2593" lon="6.63092">
        <ele>803</ele>
        <time>2000-01-01T04:25:49.000Z</time>
      </trkpt>
      <trkpt lat="46.25953" lon="6.63161">
        <ele>809</ele>
        <time>2000-01-01T04:25:59.000Z</time>
      </trkpt>
      <trkpt lat="46.2597" lon="6.63183">
        <ele>811</ele>
        <time>2000-01-01T04:26:09.000Z</time>
      </trkpt>
      <trkpt lat="46.25998" lon="6.63199">
        <ele>813</ele>
        <time>2000-01-01T04:26:19.000Z</time>
      </trkpt>
      <trkpt lat="46.26046" lon="6.63227">
        <ele>818</ele>
        <time>2000-01-01T04:26:29.000Z</time>
      </trkpt>
      <trkpt lat="46.26071" lon="6.63245">
        <ele>820</ele>
        <time>2000-01-01T04:26:39.000Z</time>
      </trkpt>
      <trkpt lat="46.26111" lon="6.63272">
        <ele>825</ele>
        <time>2000-01-01T04:26:49.000Z</time>
      </trkpt>
      <trkpt lat="46.26119" lon="6.63283">
        <ele>823.8</ele>
        <time>2000-01-01T04:26:59.000Z</time>
      </trkpt>
      <trkpt lat="46.26129" lon="6.63314">
        <ele>828</ele>
        <time>2000-01-01T04:27:09.000Z</time>
      </trkpt>
      <trkpt lat="46.26138" lon="6.6333">
        <ele>829.2</ele>
        <time>2000-01-01T04:27:19.000Z</time>
      </trkpt>
      <trkpt lat="46.2615" lon="6.63338">
        <ele>829</ele>
        <time>2000-01-01T04:27:29.000Z</time>
      </trkpt>
      <trkpt lat="46.26161" lon="6.63376">
        <ele>830</ele>
        <time>2000-01-01T04:27:39.000Z</time>
      </trkpt>
      <trkpt lat="46.26167" lon="6.63382">
        <ele>831.3</ele>
        <time>2000-01-01T04:27:49.000Z</time>
      </trkpt>
      <trkpt lat="46.26177" lon="6.63383">
        <ele>833.6</ele>
        <time>2000-01-01T04:27:59.000Z</time>
      </trkpt>
      <trkpt lat="46.2624" lon="6.63333">
        <ele>838</ele>
        <time>2000-01-01T04:28:09.000Z</time>
      </trkpt>
      <trkpt lat="46.26278" lon="6.63316">
        <ele>840</ele>
        <time>2000-01-01T04:28:19.000Z</time>
      </trkpt>
      <trkpt lat="46.26307" lon="6.63305">
        <ele>842</ele>
        <time>2000-01-01T04:28:29.000Z</time>
      </trkpt>
      <trkpt lat="46.26362" lon="6.63285">
        <ele>847</ele>
        <time>2000-01-01T04:28:39.000Z</time>
      </trkpt>
      <trkpt lat="46.26386" lon="6.6328">
        <ele>850</ele>
        <time>2000-01-01T04:28:49.000Z</time>
      </trkpt>
      <trkpt lat="46.26414" lon="6.63275">
        <ele>853</ele>
        <time>2000-01-01T04:28:59.000Z</time>
      </trkpt>
      <trkpt lat="46.26444" lon="6.63271">
        <ele>857</ele>
        <time>2000-01-01T04:29:09.000Z</time>
      </trkpt>
      <trkpt lat="46.26498" lon="6.63263">
        <ele>860</ele>
        <time>2000-01-01T04:29:19.000Z</time>
      </trkpt>
      <trkpt lat="46.2653" lon="6.63253">
        <ele>866</ele>
        <time>2000-01-01T04:29:29.000Z</time>
      </trkpt>
      <trkpt lat="46.26562" lon="6.63243">
        <ele>869</ele>
        <time>2000-01-01T04:29:39.000Z</time>
      </trkpt>
      <trkpt lat="46.26605" lon="6.6323">
        <ele>870</ele>
        <time>2000-01-01T04:29:49.000Z</time>
      </trkpt>
      <trkpt lat="46.26636" lon="6.63233">
        <ele>877</ele>
        <time>2000-01-01T04:29:59.000Z</time>
      </trkpt>
      <trkpt lat="46.26663" lon="6.63248">
        <ele>879</ele>
        <time>2000-01-01T04:30:09.000Z</time>
      </trkpt>
      <trkpt lat="46.26684" lon="6.63262">
        <ele>882</ele>
        <time>2000-01-01T04:30:19.000Z</time>
      </trkpt>
      <trkpt lat="46.26705" lon="6.63277">
        <ele>884</ele>
        <time>2000-01-01T04:30:29.000Z</time>
      </trkpt>
      <trkpt lat="46.26733" lon="6.63302">
        <ele>885</ele>
        <time>2000-01-01T04:30:39.000Z</time>
      </trkpt>
      <trkpt lat="46.26761" lon="6.63327">
        <ele>886</ele>
        <time>2000-01-01T04:30:49.000Z</time>
      </trkpt>
      <trkpt lat="46.26802" lon="6.63364">
        <ele>896</ele>
        <time>2000-01-01T04:30:59.000Z</time>
      </trkpt>
      <trkpt lat="46.2681" lon="6.63369">
        <ele>898</ele>
        <time>2000-01-01T04:31:09.000Z</time>
      </trkpt>
      <trkpt lat="46.26822" lon="6.63366">
        <ele>898</ele>
        <time>2000-01-01T04:31:19.000Z</time>
      </trkpt>
      <trkpt lat="46.2683" lon="6.63355">
        <ele>899.3</ele>
        <time>2000-01-01T04:31:29.000Z</time>
      </trkpt>
      <trkpt lat="46.26833" lon="6.6334">
        <ele>899</ele>
        <time>2000-01-01T04:31:39.000Z</time>
      </trkpt>
      <trkpt lat="46.26831" lon="6.63314">
        <ele>900.8</ele>
        <time>2000-01-01T04:31:49.000Z</time>
      </trkpt>
      <trkpt lat="46.26833" lon="6.63298">
        <ele>901</ele>
        <time>2000-01-01T04:31:59.000Z</time>
      </trkpt>
      <trkpt lat="46.26859" lon="6.63243">
        <ele>901</ele>
        <time>2000-01-01T04:32:09.000Z</time>
      </trkpt>
      <trkpt lat="46.26869" lon="6.63227">
        <ele>905.6</ele>
        <time>2000-01-01T04:32:19.000Z</time>
      </trkpt>
      <trkpt lat="46.26909" lon="6.63186">
        <ele>904</ele>
        <time>2000-01-01T04:32:29.000Z</time>
      </trkpt>
      <trkpt lat="46.26922" lon="6.63178">
        <ele>909.2</ele>
        <time>2000-01-01T04:32:39.000Z</time>
      </trkpt>
      <trkpt lat="46.26937" lon="6.63177">
        <ele>908</ele>
        <time>2000-01-01T04:32:49.000Z</time>
      </trkpt>
      <trkpt lat="46.26955" lon="6.63189">
        <ele>905</ele>
        <time>2000-01-01T04:32:59.000Z</time>
      </trkpt>
      <trkpt lat="46.26966" lon="6.63192">
        <ele>913.5</ele>
        <time>2000-01-01T04:33:09.000Z</time>
      </trkpt>
      <trkpt lat="46.26997" lon="6.63179">
        <ele>912</ele>
        <time>2000-01-01T04:33:19.000Z</time>
      </trkpt>
      <trkpt lat="46.27033" lon="6.63181">
        <ele>919</ele>
        <time>2000-01-01T04:33:29.000Z</time>
      </trkpt>
      <trkpt lat="46.27047" lon="6.63184">
        <ele>919.9</ele>
        <time>2000-01-01T04:33:39.000Z</time>
      </trkpt>
      <trkpt lat="46.27145" lon="6.63226">
        <ele>922</ele>
        <time>2000-01-01T04:33:49.000Z</time>
      </trkpt>
      <trkpt lat="46.27167" lon="6.63237">
        <ele>926</ele>
        <time>2000-01-01T04:33:59.000Z</time>
      </trkpt>
      <trkpt lat="46.2719" lon="6.6325">
        <ele>932</ele>
        <time>2000-01-01T04:34:09.000Z</time>
      </trkpt>
      <trkpt lat="46.2722" lon="6.63254">
        <ele>935</ele>
        <time>2000-01-01T04:34:19.000Z</time>
      </trkpt>
      <trkpt lat="46.27274" lon="6.63263">
        <ele>939</ele>
        <time>2000-01-01T04:34:29.000Z</time>
      </trkpt>
      <trkpt lat="46.27304" lon="6.63267">
        <ele>939</ele>
        <time>2000-01-01T04:34:39.000Z</time>
      </trkpt>
      <trkpt lat="46.27357" lon="6.63273">
        <ele>949</ele>
        <time>2000-01-01T04:34:49.000Z</time>
      </trkpt>
      <trkpt lat="46.27369" lon="6.63273">
        <ele>952</ele>
        <time>2000-01-01T04:34:59.000Z</time>
      </trkpt>
      <trkpt lat="46.27389" lon="6.63262">
        <ele>953</ele>
        <time>2000-01-01T04:35:09.000Z</time>
      </trkpt>
      <trkpt lat="46.27409" lon="6.63235">
        <ele>955</ele>
        <time>2000-01-01T04:35:19.000Z</time>
      </trkpt>
      <trkpt lat="46.27423" lon="6.63224">
        <ele>959.6</ele>
        <time>2000-01-01T04:35:29.000Z</time>
      </trkpt>
      <trkpt lat="46.27436" lon="6.63223">
        <ele>959</ele>
        <time>2000-01-01T04:35:39.000Z</time>
      </trkpt>
      <trkpt lat="46.2746" lon="6.63233">
        <ele>959</ele>
        <time>2000-01-01T04:35:49.000Z</time>
      </trkpt>
      <trkpt lat="46.27471" lon="6.63234">
        <ele>965.5</ele>
        <time>2000-01-01T04:35:59.000Z</time>
      </trkpt>
      <trkpt lat="46.27487" lon="6.63229">
        <ele>960</ele>
        <time>2000-01-01T04:36:09.000Z</time>
      </trkpt>
      <trkpt lat="46.27498" lon="6.63221">
        <ele>967.2</ele>
        <time>2000-01-01T04:36:19.000Z</time>
      </trkpt>
      <trkpt lat="46.27506" lon="6.63211">
        <ele>965</ele>
        <time>2000-01-01T04:36:29.000Z</time>
      </trkpt>
      <trkpt lat="46.27512" lon="6.63198">
        <ele>968.9</ele>
        <time>2000-01-01T04:36:39.000Z</time>
      </trkpt>
      <trkpt lat="46.27524" lon="6.63129">
        <ele>972</ele>
        <time>2000-01-01T04:36:49.000Z</time>
      </trkpt>
      <trkpt lat="46.2753" lon="6.6312">
        <ele>973.3</ele>
        <time>2000-01-01T04:36:59.000Z</time>
      </trkpt>
      <trkpt lat="46.27537" lon="6.63117">
        <ele>973.9</ele>
        <time>2000-01-01T04:37:09.000Z</time>
      </trkpt>
      <trkpt lat="46.27546" lon="6.63119">
        <ele>976</ele>
        <time>2000-01-01T04:37:19.000Z</time>
      </trkpt>
      <trkpt lat="46.27551" lon="6.63128">
        <ele>976.7</ele>
        <time>2000-01-01T04:37:29.000Z</time>
      </trkpt>
      <trkpt lat="46.27557" lon="6.63172">
        <ele>978</ele>
        <time>2000-01-01T04:37:39.000Z</time>
      </trkpt>
      <trkpt lat="46.27564" lon="6.63191">
        <ele>979.7</ele>
        <time>2000-01-01T04:37:49.000Z</time>
      </trkpt>
      <trkpt lat="46.27572" lon="6.632">
        <ele>982</ele>
        <time>2000-01-01T04:37:59.000Z</time>
      </trkpt>
      <trkpt lat="46.27593" lon="6.63216">
        <ele>985</ele>
        <time>2000-01-01T04:38:09.000Z</time>
      </trkpt>
      <trkpt lat="46.27616" lon="6.63234">
        <ele>988</ele>
        <time>2000-01-01T04:38:19.000Z</time>
      </trkpt>
      <trkpt lat="46.27646" lon="6.63238">
        <ele>990</ele>
        <time>2000-01-01T04:38:29.000Z</time>
      </trkpt>
      <trkpt lat="46.27696" lon="6.63246">
        <ele>997</ele>
        <time>2000-01-01T04:38:39.000Z</time>
      </trkpt>
      <trkpt lat="46.27712" lon="6.63244">
        <ele>1000.7</ele>
        <time>2000-01-01T04:38:49.000Z</time>
      </trkpt>
      <trkpt lat="46.27734" lon="6.63223">
        <ele>1002</ele>
        <time>2000-01-01T04:38:59.000Z</time>
      </trkpt>
      <trkpt lat="46.27762" lon="6.63172">
        <ele>1008</ele>
        <time>2000-01-01T04:39:09.000Z</time>
      </trkpt>
      <trkpt lat="46.27776" lon="6.63156">
        <ele>1010</ele>
        <time>2000-01-01T04:39:19.000Z</time>
      </trkpt>
      <trkpt lat="46.27789" lon="6.63149">
        <ele>1008</ele>
        <time>2000-01-01T04:39:29.000Z</time>
      </trkpt>
      <trkpt lat="46.27815" lon="6.6315">
        <ele>1014</ele>
        <time>2000-01-01T04:39:39.000Z</time>
      </trkpt>
      <trkpt lat="46.27847" lon="6.63151">
        <ele>1017</ele>
        <time>2000-01-01T04:39:49.000Z</time>
      </trkpt>
      <trkpt lat="46.27869" lon="6.63142">
        <ele>1017</ele>
        <time>2000-01-01T04:39:59.000Z</time>
      </trkpt>
      <trkpt lat="46.27892" lon="6.63132">
        <ele>1023</ele>
        <time>2000-01-01T04:40:09.000Z</time>
      </trkpt>
      <trkpt lat="46.2792" lon="6.63126">
        <ele>1025</ele>
        <time>2000-01-01T04:40:19.000Z</time>
      </trkpt>
      <trkpt lat="46.27938" lon="6.6313">
        <ele>1027</ele>
        <time>2000-01-01T04:40:29.000Z</time>
      </trkpt>
      <trkpt lat="46.27954" lon="6.63141">
        <ele>1029.4</ele>
        <time>2000-01-01T04:40:39.000Z</time>
      </trkpt>
      <trkpt lat="46.27989" lon="6.6319">
        <ele>1035</ele>
        <time>2000-01-01T04:40:49.000Z</time>
      </trkpt>
      <trkpt lat="46.28018" lon="6.63203">
        <ele>1038</ele>
        <time>2000-01-01T04:40:59.000Z</time>
      </trkpt>
      <trkpt lat="46.2807" lon="6.63226">
        <ele>1045</ele>
        <time>2000-01-01T04:41:09.000Z</time>
      </trkpt>
      <trkpt lat="46.28094" lon="6.63237">
        <ele>1046</ele>
        <time>2000-01-01T04:41:19.000Z</time>
      </trkpt>
      <trkpt lat="46.2812" lon="6.6325">
        <ele>1051</ele>
        <time>2000-01-01T04:41:29.000Z</time>
      </trkpt>
      <trkpt lat="46.28131" lon="6.63264">
        <ele>1050.9</ele>
        <time>2000-01-01T04:41:39.000Z</time>
      </trkpt>
      <trkpt lat="46.28135" lon="6.63289">
        <ele>1054</ele>
        <time>2000-01-01T04:41:49.000Z</time>
      </trkpt>
      <trkpt lat="46.28129" lon="6.63315">
        <ele>1058</ele>
        <time>2000-01-01T04:41:59.000Z</time>
      </trkpt>
      <trkpt lat="46.28107" lon="6.63375">
        <ele>1062</ele>
        <time>2000-01-01T04:42:09.000Z</time>
      </trkpt>
      <trkpt lat="46.28091" lon="6.63417">
        <ele>1065</ele>
        <time>2000-01-01T04:42:19.000Z</time>
      </trkpt>
      <trkpt lat="46.28076" lon="6.63459">
        <ele>1065</ele>
        <time>2000-01-01T04:42:29.000Z</time>
      </trkpt>
      <trkpt lat="46.28054" lon="6.6352">
        <ele>1072</ele>
        <time>2000-01-01T04:42:39.000Z</time>
      </trkpt>
      <trkpt lat="46.28044" lon="6.6357">
        <ele>1075</ele>
        <time>2000-01-01T04:42:49.000Z</time>
      </trkpt>
      <trkpt lat="46.28039" lon="6.63583">
        <ele>1077.6</ele>
        <time>2000-01-01T04:42:59.000Z</time>
      </trkpt>
      <trkpt lat="46.28033" lon="6.63592">
        <ele>1077</ele>
        <time>2000-01-01T04:43:09.000Z</time>
      </trkpt>
      <trkpt lat="46.28014" lon="6.63605">
        <ele>1079</ele>
        <time>2000-01-01T04:43:19.000Z</time>
      </trkpt>
      <trkpt lat="46.27983" lon="6.63614">
        <ele>1082</ele>
        <time>2000-01-01T04:43:29.000Z</time>
      </trkpt>
      <trkpt lat="46.27953" lon="6.63623">
        <ele>1085</ele>
        <time>2000-01-01T04:43:39.000Z</time>
      </trkpt>
      <trkpt lat="46.27922" lon="6.63631">
        <ele>1086</ele>
        <time>2000-01-01T04:43:49.000Z</time>
      </trkpt>
      <trkpt lat="46.27886" lon="6.63629">
        <ele>1087</ele>
        <time>2000-01-01T04:43:59.000Z</time>
      </trkpt>
      <trkpt lat="46.27877" lon="6.63631">
        <ele>1089.6</ele>
        <time>2000-01-01T04:44:09.000Z</time>
      </trkpt>
      <trkpt lat="46.27868" lon="6.63641">
        <ele>1092</ele>
        <time>2000-01-01T04:44:19.000Z</time>
      </trkpt>
      <trkpt lat="46.27866" lon="6.63657">
        <ele>1094.6</ele>
        <time>2000-01-01T04:44:29.000Z</time>
      </trkpt>
      <trkpt lat="46.27872" lon="6.6367">
        <ele>1095</ele>
        <time>2000-01-01T04:44:39.000Z</time>
      </trkpt>
      <trkpt lat="46.27883" lon="6.63676">
        <ele>1098.1</ele>
        <time>2000-01-01T04:44:49.000Z</time>
      </trkpt>
      <trkpt lat="46.27917" lon="6.63676">
        <ele>1098</ele>
        <time>2000-01-01T04:44:59.000Z</time>
      </trkpt>
      <trkpt lat="46.27941" lon="6.63681">
        <ele>1102</ele>
        <time>2000-01-01T04:45:09.000Z</time>
      </trkpt>
      <trkpt lat="46.27968" lon="6.63686">
        <ele>1103</ele>
        <time>2000-01-01T04:45:19.000Z</time>
      </trkpt>
      <trkpt lat="46.2798" lon="6.63697">
        <ele>1105.8</ele>
        <time>2000-01-01T04:45:29.000Z</time>
      </trkpt>
      <trkpt lat="46.27992" lon="6.6373">
        <ele>1108</ele>
        <time>2000-01-01T04:45:39.000Z</time>
      </trkpt>
      <trkpt lat="46.28" lon="6.63738">
        <ele>1109.4</ele>
        <time>2000-01-01T04:45:49.000Z</time>
      </trkpt>
      <trkpt lat="46.28009" lon="6.63743">
        <ele>1110</ele>
        <time>2000-01-01T04:45:59.000Z</time>
      </trkpt>
      <trkpt lat="46.28032" lon="6.63742">
        <ele>1113</ele>
        <time>2000-01-01T04:46:09.000Z</time>
      </trkpt>
      <trkpt lat="46.28057" lon="6.6374">
        <ele>1115</ele>
        <time>2000-01-01T04:46:19.000Z</time>
      </trkpt>
      <trkpt lat="46.28084" lon="6.63744">
        <ele>1117</ele>
        <time>2000-01-01T04:46:29.000Z</time>
      </trkpt>
      <trkpt lat="46.28119" lon="6.63749">
        <ele>1118</ele>
        <time>2000-01-01T04:46:39.000Z</time>
      </trkpt>
      <trkpt lat="46.28156" lon="6.6374">
        <ele>1126</ele>
        <time>2000-01-01T04:46:49.000Z</time>
      </trkpt>
      <trkpt lat="46.28187" lon="6.63744">
        <ele>1129</ele>
        <time>2000-01-01T04:46:59.000Z</time>
      </trkpt>
      <trkpt lat="46.28213" lon="6.63745">
        <ele>1132</ele>
        <time>2000-01-01T04:47:09.000Z</time>
      </trkpt>
      <trkpt lat="46.28226" lon="6.63754">
        <ele>1133.9</ele>
        <time>2000-01-01T04:47:19.000Z</time>
      </trkpt>
      <trkpt lat="46.28237" lon="6.63768">
        <ele>1135</ele>
        <time>2000-01-01T04:47:29.000Z</time>
      </trkpt>
      <trkpt lat="46.28244" lon="6.63789">
        <ele>1137.5</ele>
        <time>2000-01-01T04:47:39.000Z</time>
      </trkpt>
      <trkpt lat="46.28254" lon="6.63835">
        <ele>1141</ele>
        <time>2000-01-01T04:47:49.000Z</time>
      </trkpt>
      <trkpt lat="46.28259" lon="6.63872">
        <ele>1147</ele>
        <time>2000-01-01T04:47:59.000Z</time>
      </trkpt>
      <trkpt lat="46.28265" lon="6.63918">
        <ele>1147</ele>
        <time>2000-01-01T04:48:09.000Z</time>
      </trkpt>
      <trkpt lat="46.28282" lon="6.63967">
        <ele>1150</ele>
        <time>2000-01-01T04:48:19.000Z</time>
      </trkpt>
      <trkpt lat="46.28298" lon="6.63986">
        <ele>1152</ele>
        <time>2000-01-01T04:48:29.000Z</time>
      </trkpt>
      <trkpt lat="46.28302" lon="6.63987">
        <ele>1153.8</ele>
        <time>2000-01-01T04:48:39.000Z</time>
      </trkpt>
      <trkpt lat="46.28307" lon="6.63988">
        <ele>1153.9</ele>
        <time>2000-01-01T04:48:49.000Z</time>
      </trkpt>
      <trkpt lat="46.2831" lon="6.63988">
        <ele>1154.7</ele>
        <time>2000-01-01T04:48:59.000Z</time>
      </trkpt>
      <trkpt lat="46.28314" lon="6.63985">
        <ele>1155.4</ele>
        <time>2000-01-01T04:49:09.000Z</time>
      </trkpt>
      <trkpt lat="46.28353" lon="6.63949">
        <ele>1157</ele>
        <time>2000-01-01T04:49:19.000Z</time>
      </trkpt>
      <trkpt lat="46.28365" lon="6.63948">
        <ele>1159.8</ele>
        <time>2000-01-01T04:49:29.000Z</time>
      </trkpt>
      <trkpt lat="46.28375" lon="6.63955">
        <ele>1161</ele>
        <time>2000-01-01T04:49:39.000Z</time>
      </trkpt>
      <trkpt lat="46.28394" lon="6.63979">
        <ele>1163</ele>
        <time>2000-01-01T04:49:49.000Z</time>
      </trkpt>
      <trkpt lat="46.28415" lon="6.64006">
        <ele>1164</ele>
        <time>2000-01-01T04:49:59.000Z</time>
      </trkpt>
      <trkpt lat="46.2843" lon="6.64021">
        <ele>1169.2</ele>
        <time>2000-01-01T04:50:09.000Z</time>
      </trkpt>
      <trkpt lat="46.28442" lon="6.64029">
        <ele>1165</ele>
        <time>2000-01-01T04:50:19.000Z</time>
      </trkpt>
      <trkpt lat="46.28468" lon="6.64041">
        <ele>1172</ele>
        <time>2000-01-01T04:50:29.000Z</time>
      </trkpt>
      <trkpt lat="46.28507" lon="6.64059">
        <ele>1173</ele>
        <time>2000-01-01T04:50:39.000Z</time>
      </trkpt>
      <trkpt lat="46.28516" lon="6.64054">
        <ele>1178.3</ele>
        <time>2000-01-01T04:50:49.000Z</time>
      </trkpt>
      <trkpt lat="46.2852" lon="6.64043">
        <ele>1179</ele>
        <time>2000-01-01T04:50:59.000Z</time>
      </trkpt>
      <trkpt lat="46.28519" lon="6.6403">
        <ele>1174</ele>
        <time>2000-01-01T04:51:09.000Z</time>
      </trkpt>
      <trkpt lat="46.28507" lon="6.63996">
        <ele>1178</ele>
        <time>2000-01-01T04:51:19.000Z</time>
      </trkpt>
      <trkpt lat="46.28508" lon="6.63977">
        <ele>1181.2</ele>
        <time>2000-01-01T04:51:29.000Z</time>
      </trkpt>
      <trkpt lat="46.28513" lon="6.63969">
        <ele>1182</ele>
        <time>2000-01-01T04:51:39.000Z</time>
      </trkpt>
      <trkpt lat="46.28519" lon="6.63966">
        <ele>1183.3</ele>
        <time>2000-01-01T04:51:49.000Z</time>
      </trkpt>
      <trkpt lat="46.28525" lon="6.63967">
        <ele>1184.5</ele>
        <time>2000-01-01T04:51:59.000Z</time>
      </trkpt>
      <trkpt lat="46.28531" lon="6.63974">
        <ele>1185</ele>
        <time>2000-01-01T04:52:09.000Z</time>
      </trkpt>
      <trkpt lat="46.28533" lon="6.63977">
        <ele>1187.3</ele>
        <time>2000-01-01T04:52:19.000Z</time>
      </trkpt>
      <trkpt lat="46.28542" lon="6.64012">
        <ele>1188</ele>
        <time>2000-01-01T04:52:29.000Z</time>
      </trkpt>
      <trkpt lat="46.28552" lon="6.64043">
        <ele>1191</ele>
        <time>2000-01-01T04:52:39.000Z</time>
      </trkpt>
      <trkpt lat="46.28563" lon="6.64075">
        <ele>1193</ele>
        <time>2000-01-01T04:52:49.000Z</time>
      </trkpt>
      <trkpt lat="46.28564" lon="6.64085">
        <ele>1196.5</ele>
        <time>2000-01-01T04:52:59.000Z</time>
      </trkpt>
      <trkpt lat="46.28561" lon="6.64096">
        <ele>1197</ele>
        <time>2000-01-01T04:53:09.000Z</time>
      </trkpt>
      <trkpt lat="46.28545" lon="6.64107">
        <ele>1196</ele>
        <time>2000-01-01T04:53:19.000Z</time>
      </trkpt>
      <trkpt lat="46.28519" lon="6.64111">
        <ele>1198</ele>
        <time>2000-01-01T04:53:29.000Z</time>
      </trkpt>
      <trkpt lat="46.28487" lon="6.64117">
        <ele>1200</ele>
        <time>2000-01-01T04:53:39.000Z</time>
      </trkpt>
      <trkpt lat="46.28443" lon="6.6412">
        <ele>1205</ele>
        <time>2000-01-01T04:53:49.000Z</time>
      </trkpt>
      <trkpt lat="46.2843" lon="6.64124">
        <ele>1208.3</ele>
        <time>2000-01-01T04:53:59.000Z</time>
      </trkpt>
      <trkpt lat="46.28418" lon="6.64132">
        <ele>1209</ele>
        <time>2000-01-01T04:54:09.000Z</time>
      </trkpt>
      <trkpt lat="46.28408" lon="6.64146">
        <ele>1211.6</ele>
        <time>2000-01-01T04:54:19.000Z</time>
      </trkpt>
      <trkpt lat="46.28382" lon="6.64197">
        <ele>1214</ele>
        <time>2000-01-01T04:54:29.000Z</time>
      </trkpt>
      <trkpt lat="46.2835" lon="6.64228">
        <ele>1216</ele>
        <time>2000-01-01T04:54:39.000Z</time>
      </trkpt>
      <trkpt lat="46.28338" lon="6.64244">
        <ele>1221.8</ele>
        <time>2000-01-01T04:54:49.000Z</time>
      </trkpt>
      <trkpt lat="46.28331" lon="6.64258">
        <ele>1222</ele>
        <time>2000-01-01T04:54:59.000Z</time>
      </trkpt>
      <trkpt lat="46.28324" lon="6.64283">
        <ele>1224.7</ele>
        <time>2000-01-01T04:55:09.000Z</time>
      </trkpt>
      <trkpt lat="46.28322" lon="6.64303">
        <ele>1226</ele>
        <time>2000-01-01T04:55:19.000Z</time>
      </trkpt>
      <trkpt lat="46.28325" lon="6.64337">
        <ele>1228</ele>
        <time>2000-01-01T04:55:29.000Z</time>
      </trkpt>
      <trkpt lat="46.28332" lon="6.64359">
        <ele>1231.6</ele>
        <time>2000-01-01T04:55:39.000Z</time>
      </trkpt>
      <trkpt lat="46.28368" lon="6.64433">
        <ele>1235</ele>
        <time>2000-01-01T04:55:49.000Z</time>
      </trkpt>
      <trkpt lat="46.28388" lon="6.64473">
        <ele>1237</ele>
        <time>2000-01-01T04:55:59.000Z</time>
      </trkpt>
      <trkpt lat="46.28367" lon="6.64495">
        <ele>1237</ele>
        <time>2000-01-01T04:56:09.000Z</time>
      </trkpt>
      <trkpt lat="46.28341" lon="6.64521">
        <ele>1240</ele>
        <time>2000-01-01T04:56:19.000Z</time>
      </trkpt>
      <trkpt lat="46.28329" lon="6.64528">
        <ele>1241.3</ele>
        <time>2000-01-01T04:56:29.000Z</time>
      </trkpt>
      <trkpt lat="46.2832" lon="6.64526">
        <ele>1241</ele>
        <time>2000-01-01T04:56:39.000Z</time>
      </trkpt>
      <trkpt lat="46.2828" lon="6.64504">
        <ele>1243</ele>
        <time>2000-01-01T04:56:49.000Z</time>
      </trkpt>
      <trkpt lat="46.28249" lon="6.64469">
        <ele>1247</ele>
        <time>2000-01-01T04:56:59.000Z</time>
      </trkpt>
      <trkpt lat="46.28226" lon="6.64453">
        <ele>1249</ele>
        <time>2000-01-01T04:57:09.000Z</time>
      </trkpt>
      <trkpt lat="46.28201" lon="6.64434">
        <ele>1252</ele>
        <time>2000-01-01T04:57:19.000Z</time>
      </trkpt>
      <trkpt lat="46.28174" lon="6.64411">
        <ele>1256</ele>
        <time>2000-01-01T04:57:29.000Z</time>
      </trkpt>
      <trkpt lat="46.28123" lon="6.64367">
        <ele>1261</ele>
        <time>2000-01-01T04:57:39.000Z</time>
      </trkpt>
      <trkpt lat="46.281" lon="6.64344">
        <ele>1263</ele>
        <time>2000-01-01T04:57:49.000Z</time>
      </trkpt>
      <trkpt lat="46.28068" lon="6.64304">
        <ele>1269</ele>
        <time>2000-01-01T04:57:59.000Z</time>
      </trkpt>
      <trkpt lat="46.2805" lon="6.64274">
        <ele>1272</ele>
        <time>2000-01-01T04:58:09.000Z</time>
      </trkpt>
      <trkpt lat="46.28023" lon="6.6423">
        <ele>1274</ele>
        <time>2000-01-01T04:58:19.000Z</time>
      </trkpt>
      <trkpt lat="46.28005" lon="6.64205">
        <ele>1276</ele>
        <time>2000-01-01T04:58:29.000Z</time>
      </trkpt>
      <trkpt lat="46.27986" lon="6.64177">
        <ele>1278</ele>
        <time>2000-01-01T04:58:39.000Z</time>
      </trkpt>
      <trkpt lat="46.27959" lon="6.64147">
        <ele>1278</ele>
        <time>2000-01-01T04:58:49.000Z</time>
      </trkpt>
      <trkpt lat="46.27939" lon="6.64135">
        <ele>1282</ele>
        <time>2000-01-01T04:58:59.000Z</time>
      </trkpt>
      <trkpt lat="46.27895" lon="6.64123">
        <ele>1284</ele>
        <time>2000-01-01T04:59:09.000Z</time>
      </trkpt>
      <trkpt lat="46.27851" lon="6.64104">
        <ele>1287</ele>
        <time>2000-01-01T04:59:19.000Z</time>
      </trkpt>
      <trkpt lat="46.27826" lon="6.64099">
        <ele>1291</ele>
        <time>2000-01-01T04:59:29.000Z</time>
      </trkpt>
      <trkpt lat="46.27795" lon="6.64092">
        <ele>1297</ele>
        <time>2000-01-01T04:59:39.000Z</time>
      </trkpt>
      <trkpt lat="46.27764" lon="6.6407">
        <ele>1297</ele>
        <time>2000-01-01T04:59:49.000Z</time>
      </trkpt>
      <trkpt lat="46.27743" lon="6.64047">
        <ele>1302</ele>
        <time>2000-01-01T04:59:59.000Z</time>
      </trkpt>
      <trkpt lat="46.27706" lon="6.6403">
        <ele>1308</ele>
        <time>2000-01-01T05:00:09.000Z</time>
      </trkpt>
      <trkpt lat="46.2767" lon="6.64006">
        <ele>1310</ele>
        <time>2000-01-01T05:00:19.000Z</time>
      </trkpt>
      <trkpt lat="46.27647" lon="6.64003">
        <ele>1310</ele>
        <time>2000-01-01T05:00:29.000Z</time>
      </trkpt>
      <trkpt lat="46.2763" lon="6.64006">
        <ele>1313.1</ele>
        <time>2000-01-01T05:00:39.000Z</time>
      </trkpt>
      <trkpt lat="46.27608" lon="6.64021">
        <ele>1311</ele>
        <time>2000-01-01T05:00:49.000Z</time>
      </trkpt>
      <trkpt lat="46.27585" lon="6.6405">
        <ele>1313</ele>
        <time>2000-01-01T05:00:59.000Z</time>
      </trkpt>
      <trkpt lat="46.27573" lon="6.64079">
        <ele>1316</ele>
        <time>2000-01-01T05:01:09.000Z</time>
      </trkpt>
      <trkpt lat="46.27566" lon="6.64118">
        <ele>1320</ele>
        <time>2000-01-01T05:01:19.000Z</time>
      </trkpt>
      <trkpt lat="46.27557" lon="6.64173">
        <ele>1327</ele>
        <time>2000-01-01T05:01:29.000Z</time>
      </trkpt>
      <trkpt lat="46.2755" lon="6.64203">
        <ele>1331</ele>
        <time>2000-01-01T05:01:39.000Z</time>
      </trkpt>
      <trkpt lat="46.27564" lon="6.64205">
        <ele>1333.9</ele>
        <time>2000-01-01T05:01:49.000Z</time>
      </trkpt>
      <trkpt lat="46.27576" lon="6.64199">
        <ele>1334</ele>
        <time>2000-01-01T05:01:59.000Z</time>
      </trkpt>
      <trkpt lat="46.27595" lon="6.64178">
        <ele>1335</ele>
        <time>2000-01-01T05:02:09.000Z</time>
      </trkpt>
      <trkpt lat="46.27614" lon="6.64157">
        <ele>1339</ele>
        <time>2000-01-01T05:02:19.000Z</time>
      </trkpt>
      <trkpt lat="46.27633" lon="6.64124">
        <ele>1342</ele>
        <time>2000-01-01T05:02:29.000Z</time>
      </trkpt>
      <trkpt lat="46.27642" lon="6.64116">
        <ele>1343.9</ele>
        <time>2000-01-01T05:02:39.000Z</time>
      </trkpt>
      <trkpt lat="46.2766" lon="6.64111">
        <ele>1345</ele>
        <time>2000-01-01T05:02:49.000Z</time>
      </trkpt>
      <trkpt lat="46.27676" lon="6.64112">
        <ele>1347.8</ele>
        <time>2000-01-01T05:02:59.000Z</time>
      </trkpt>
      <trkpt lat="46.277" lon="6.64122">
        <ele>1350</ele>
        <time>2000-01-01T05:03:09.000Z</time>
      </trkpt>
      <trkpt lat="46.27707" lon="6.64128">
        <ele>1349</ele>
        <time>2000-01-01T05:03:19.000Z</time>
      </trkpt>
      <trkpt lat="46.27752" lon="6.64193">
        <ele>1357</ele>
        <time>2000-01-01T05:03:29.000Z</time>
      </trkpt>
      <trkpt lat="46.27762" lon="6.64202">
        <ele>1358.5</ele>
        <time>2000-01-01T05:03:39.000Z</time>
      </trkpt>
      <trkpt lat="46.27787" lon="6.64216">
        <ele>1358</ele>
        <time>2000-01-01T05:03:49.000Z</time>
      </trkpt>
      <trkpt lat="46.27813" lon="6.64224">
        <ele>1358</ele>
        <time>2000-01-01T05:03:59.000Z</time>
      </trkpt>
      <trkpt lat="46.27849" lon="6.64236">
        <ele>1357</ele>
        <time>2000-01-01T05:04:09.000Z</time>
      </trkpt>
      <trkpt lat="46.27884" lon="6.64259">
        <ele>1357</ele>
        <time>2000-01-01T05:04:19.000Z</time>
      </trkpt>
      <trkpt lat="46.27905" lon="6.64288">
        <ele>1364</ele>
        <time>2000-01-01T05:04:29.000Z</time>
      </trkpt>
      <trkpt lat="46.27922" lon="6.64324">
        <ele>1368</ele>
        <time>2000-01-01T05:04:39.000Z</time>
      </trkpt>
      <trkpt lat="46.27956" lon="6.64394">
        <ele>1375</ele>
        <time>2000-01-01T05:04:49.000Z</time>
      </trkpt>
      <trkpt lat="46.27968" lon="6.64432">
        <ele>1379</ele>
        <time>2000-01-01T05:04:59.000Z</time>
      </trkpt>
      <trkpt lat="46.27989" lon="6.64496">
        <ele>1382</ele>
        <time>2000-01-01T05:05:09.000Z</time>
      </trkpt>
      <trkpt lat="46.28004" lon="6.64535">
        <ele>1383</ele>
        <time>2000-01-01T05:05:19.000Z</time>
      </trkpt>
      <trkpt lat="46.28021" lon="6.64567">
        <ele>1385</ele>
        <time>2000-01-01T05:05:29.000Z</time>
      </trkpt>
      <trkpt lat="46.28048" lon="6.64616">
        <ele>1392</ele>
        <time>2000-01-01T05:05:39.000Z</time>
      </trkpt>
      <trkpt lat="46.2807" lon="6.64669">
        <ele>1394</ele>
        <time>2000-01-01T05:05:49.000Z</time>
      </trkpt>
      <trkpt lat="46.2808" lon="6.64703">
        <ele>1400</ele>
        <time>2000-01-01T05:05:59.000Z</time>
      </trkpt>
      <trkpt lat="46.28093" lon="6.64745">
        <ele>1403</ele>
        <time>2000-01-01T05:06:09.000Z</time>
      </trkpt>
      <trkpt lat="46.28103" lon="6.64791">
        <ele>1410</ele>
        <time>2000-01-01T05:06:19.000Z</time>
      </trkpt>
      <trkpt lat="46.28107" lon="6.64834">
        <ele>1414</ele>
        <time>2000-01-01T05:06:29.000Z</time>
      </trkpt>
      <trkpt lat="46.28112" lon="6.64906">
        <ele>1418</ele>
        <time>2000-01-01T05:06:39.000Z</time>
      </trkpt>
      <trkpt lat="46.28112" lon="6.64934">
        <ele>1421</ele>
        <time>2000-01-01T05:06:49.000Z</time>
      </trkpt>
      <trkpt lat="46.28109" lon="6.6495">
        <ele>1421.2</ele>
        <time>2000-01-01T05:06:59.000Z</time>
      </trkpt>
      <trkpt lat="46.28098" lon="6.65005">
        <ele>1429</ele>
        <time>2000-01-01T05:07:09.000Z</time>
      </trkpt>
      <trkpt lat="46.28089" lon="6.65037">
        <ele>1429</ele>
        <time>2000-01-01T05:07:19.000Z</time>
      </trkpt>
      <trkpt lat="46.2808" lon="6.65071">
        <ele>1430</ele>
        <time>2000-01-01T05:07:29.000Z</time>
      </trkpt>
      <trkpt lat="46.28077" lon="6.65109">
        <ele>1437</ele>
        <time>2000-01-01T05:07:39.000Z</time>
      </trkpt>
      <trkpt lat="46.28072" lon="6.6516">
        <ele>1438</ele>
        <time>2000-01-01T05:07:49.000Z</time>
      </trkpt>
      <trkpt lat="46.28063" lon="6.6521">
        <ele>1441</ele>
        <time>2000-01-01T05:07:59.000Z</time>
      </trkpt>
      <trkpt lat="46.28043" lon="6.65247">
        <ele>1441</ele>
        <time>2000-01-01T05:08:09.000Z</time>
      </trkpt>
      <trkpt lat="46.28024" lon="6.65284">
        <ele>1441</ele>
        <time>2000-01-01T05:08:19.000Z</time>
      </trkpt>
      <trkpt lat="46.28" lon="6.65329">
        <ele>1448</ele>
        <time>2000-01-01T05:08:29.000Z</time>
      </trkpt>
      <trkpt lat="46.27988" lon="6.65356">
        <ele>1448</ele>
        <time>2000-01-01T05:08:39.000Z</time>
      </trkpt>
      <trkpt lat="46.27971" lon="6.65379">
        <ele>1449</ele>
        <time>2000-01-01T05:08:49.000Z</time>
      </trkpt>
      <trkpt lat="46.27957" lon="6.65387">
        <ele>1447.3</ele>
        <time>2000-01-01T05:08:59.000Z</time>
      </trkpt>
      <trkpt lat="46.27852" lon="6.65409">
        <ele>1453</ele>
        <time>2000-01-01T05:09:09.000Z</time>
      </trkpt>
      <trkpt lat="46.27829" lon="6.65416">
        <ele>1451</ele>
        <time>2000-01-01T05:09:19.000Z</time>
      </trkpt>
      <trkpt lat="46.27803" lon="6.65423">
        <ele>1453</ele>
        <time>2000-01-01T05:09:29.000Z</time>
      </trkpt>
      <trkpt lat="46.27775" lon="6.65427">
        <ele>1453</ele>
        <time>2000-01-01T05:09:39.000Z</time>
      </trkpt>
      <trkpt lat="46.27752" lon="6.65423">
        <ele>1454</ele>
        <time>2000-01-01T05:09:49.000Z</time>
      </trkpt>
      <trkpt lat="46.27727" lon="6.6542">
        <ele>1453</ele>
        <time>2000-01-01T05:09:59.000Z</time>
      </trkpt>
      <trkpt lat="46.27689" lon="6.6541">
        <ele>1452</ele>
        <time>2000-01-01T05:10:09.000Z</time>
      </trkpt>
      <trkpt lat="46.27645" lon="6.65408">
        <ele>1452</ele>
        <time>2000-01-01T05:10:19.000Z</time>
      </trkpt>
      <trkpt lat="46.27619" lon="6.654">
        <ele>1458</ele>
        <time>2000-01-01T05:10:29.000Z</time>
      </trkpt>
      <trkpt lat="46.27585" lon="6.65389">
        <ele>1459</ele>
        <time>2000-01-01T05:10:39.000Z</time>
      </trkpt>
      <trkpt lat="46.27568" lon="6.65387">
        <ele>1462.6</ele>
        <time>2000-01-01T05:10:49.000Z</time>
      </trkpt>
      <trkpt lat="46.27523" lon="6.65411">
        <ele>1458</ele>
        <time>2000-01-01T05:10:59.000Z</time>
      </trkpt>
      <trkpt lat="46.275" lon="6.65436">
        <ele>1458</ele>
        <time>2000-01-01T05:11:09.000Z</time>
      </trkpt>
      <trkpt lat="46.27465" lon="6.65476">
        <ele>1464</ele>
        <time>2000-01-01T05:11:19.000Z</time>
      </trkpt>
      <trkpt lat="46.27435" lon="6.65517">
        <ele>1463</ele>
        <time>2000-01-01T05:11:29.000Z</time>
      </trkpt>
      <trkpt lat="46.27418" lon="6.6553">
        <ele>1463</ele>
        <time>2000-01-01T05:11:39.000Z</time>
      </trkpt>
      <trkpt lat="46.27395" lon="6.65539">
        <ele>1464</ele>
        <time>2000-01-01T05:11:49.000Z</time>
      </trkpt>
      <trkpt lat="46.27372" lon="6.65549">
        <ele>1466</ele>
        <time>2000-01-01T05:11:59.000Z</time>
      </trkpt>
      <trkpt lat="46.27346" lon="6.65572">
        <ele>1469</ele>
        <time>2000-01-01T05:12:09.000Z</time>
      </trkpt>
      <trkpt lat="46.27339" lon="6.65576">
        <ele>1466.8</ele>
        <time>2000-01-01T05:12:19.000Z</time>
      </trkpt>
      <trkpt lat="46.27323" lon="6.65577">
        <ele>1471</ele>
        <time>2000-01-01T05:12:29.000Z</time>
      </trkpt>
      <trkpt lat="46.2731" lon="6.65571">
        <ele>1469.1</ele>
        <time>2000-01-01T05:12:39.000Z</time>
      </trkpt>
      <trkpt lat="46.27303" lon="6.65571">
        <ele>1471</ele>
        <time>2000-01-01T05:12:49.000Z</time>
      </trkpt>
      <trkpt lat="46.27299" lon="6.65575">
        <ele>1469.9</ele>
        <time>2000-01-01T05:12:59.000Z</time>
      </trkpt>
      <trkpt lat="46.27294" lon="6.65582">
        <ele>1471.2</ele>
        <time>2000-01-01T05:13:09.000Z</time>
      </trkpt>
      <trkpt lat="46.27282" lon="6.65613">
        <ele>1477</ele>
        <time>2000-01-01T05:13:19.000Z</time>
      </trkpt>
      <trkpt lat="46.27272" lon="6.65633">
        <ele>1481.1</ele>
        <time>2000-01-01T05:13:29.000Z</time>
      </trkpt>
      <trkpt lat="46.27249" lon="6.65661">
        <ele>1482</ele>
        <time>2000-01-01T05:13:39.000Z</time>
      </trkpt>
      <trkpt lat="46.27232" lon="6.65686">
        <ele>1484</ele>
        <time>2000-01-01T05:13:49.000Z</time>
      </trkpt>
      <trkpt lat="46.27204" lon="6.65736">
        <ele>1489</ele>
        <time>2000-01-01T05:13:59.000Z</time>
      </trkpt>
      <trkpt lat="46.27173" lon="6.65767">
        <ele>1492</ele>
        <time>2000-01-01T05:14:09.000Z</time>
      </trkpt>
      <trkpt lat="46.27159" lon="6.6579">
        <ele>1496</ele>
        <time>2000-01-01T05:14:19.000Z</time>
      </trkpt>
      <trkpt lat="46.27153" lon="6.65795">
        <ele>1498</ele>
        <time>2000-01-01T05:14:29.000Z</time>
      </trkpt>
      <trkpt lat="46.27112" lon="6.65815">
        <ele>1498</ele>
        <time>2000-01-01T05:14:39.000Z</time>
      </trkpt>
      <trkpt lat="46.27085" lon="6.65812">
        <ele>1500</ele>
        <time>2000-01-01T05:14:49.000Z</time>
      </trkpt>
      <trkpt lat="46.27079" lon="6.65817">
        <ele>1501.2</ele>
        <time>2000-01-01T05:14:59.000Z</time>
      </trkpt>
      <trkpt lat="46.27055" lon="6.6585">
        <ele>1503</ele>
        <time>2000-01-01T05:15:09.000Z</time>
      </trkpt>
      <trkpt lat="46.27042" lon="6.65861">
        <ele>1505</ele>
        <time>2000-01-01T05:15:19.000Z</time>
      </trkpt>
      <trkpt lat="46.27022" lon="6.65871">
        <ele>1503</ele>
        <time>2000-01-01T05:15:29.000Z</time>
      </trkpt>
      <trkpt lat="46.27002" lon="6.65876">
        <ele>1504</ele>
        <time>2000-01-01T05:15:39.000Z</time>
      </trkpt>
      <trkpt lat="46.26973" lon="6.65875">
        <ele>1508</ele>
        <time>2000-01-01T05:15:49.000Z</time>
      </trkpt>
      <trkpt lat="46.26944" lon="6.65867">
        <ele>1511</ele>
        <time>2000-01-01T05:15:59.000Z</time>
      </trkpt>
      <trkpt lat="46.26925" lon="6.65859">
        <ele>1512</ele>
        <time>2000-01-01T05:16:09.000Z</time>
      </trkpt>
      <trkpt lat="46.26912" lon="6.65846">
        <ele>1515.3</ele>
        <time>2000-01-01T05:16:19.000Z</time>
      </trkpt>
      <trkpt lat="46.26891" lon="6.6581">
        <ele>1513</ele>
        <time>2000-01-01T05:16:29.000Z</time>
      </trkpt>
      <trkpt lat="46.26875" lon="6.65792">
        <ele>1513</ele>
        <time>2000-01-01T05:16:39.000Z</time>
      </trkpt>
      <trkpt lat="46.26855" lon="6.65786">
        <ele>1513</ele>
        <time>2000-01-01T05:16:49.000Z</time>
      </trkpt>
      <trkpt lat="46.26835" lon="6.65784">
        <ele>1516</ele>
        <time>2000-01-01T05:16:59.000Z</time>
      </trkpt>
      <trkpt lat="46.26805" lon="6.6576">
        <ele>1516</ele>
        <time>2000-01-01T05:17:09.000Z</time>
      </trkpt>
      <trkpt lat="46.26785" lon="6.65756">
        <ele>1516</ele>
        <time>2000-01-01T05:17:19.000Z</time>
      </trkpt>
      <trkpt lat="46.2675" lon="6.65766">
        <ele>1515</ele>
        <time>2000-01-01T05:17:29.000Z</time>
      </trkpt>
      <trkpt lat="46.26733" lon="6.65765">
        <ele>1517.1</ele>
        <time>2000-01-01T05:17:39.000Z</time>
      </trkpt>
      <trkpt lat="46.26725" lon="6.6576">
        <ele>1515</ele>
        <time>2000-01-01T05:17:49.000Z</time>
      </trkpt>
      <trkpt lat="46.26707" lon="6.65741">
        <ele>1514</ele>
        <time>2000-01-01T05:17:59.000Z</time>
      </trkpt>
      <trkpt lat="46.26681" lon="6.65751">
        <ele>1514</ele>
        <time>2000-01-01T05:18:09.000Z</time>
      </trkpt>
      <trkpt lat="46.26659" lon="6.65749">
        <ele>1514</ele>
        <time>2000-01-01T05:18:19.000Z</time>
      </trkpt>
      <trkpt lat="46.26628" lon="6.65729">
        <ele>1514</ele>
        <time>2000-01-01T05:18:29.000Z</time>
      </trkpt>
      <trkpt lat="46.26596" lon="6.65693">
        <ele>1514</ele>
        <time>2000-01-01T05:18:39.000Z</time>
      </trkpt>
      <trkpt lat="46.26584" lon="6.65638">
        <ele>1515</ele>
        <time>2000-01-01T05:18:49.000Z</time>
      </trkpt>
      <trkpt lat="46.26572" lon="6.65625">
        <ele>1516.5</ele>
        <time>2000-01-01T05:18:59.000Z</time>
      </trkpt>
      <trkpt lat="46.26554" lon="6.65615">
        <ele>1517</ele>
        <time>2000-01-01T05:19:09.000Z</time>
      </trkpt>
      <trkpt lat="46.26542" lon="6.656">
        <ele>1519.7</ele>
        <time>2000-01-01T05:19:19.000Z</time>
      </trkpt>
      <trkpt lat="46.26522" lon="6.65556">
        <ele>1517</ele>
        <time>2000-01-01T05:19:29.000Z</time>
      </trkpt>
      <trkpt lat="46.26502" lon="6.65505">
        <ele>1514</ele>
        <time>2000-01-01T05:19:39.000Z</time>
      </trkpt>
      <trkpt lat="46.2647" lon="6.6548">
        <ele>1513</ele>
        <time>2000-01-01T05:19:49.000Z</time>
      </trkpt>
      <trkpt lat="46.26434" lon="6.65455">
        <ele>1511</ele>
        <time>2000-01-01T05:19:59.000Z</time>
      </trkpt>
      <trkpt lat="46.26421" lon="6.65451">
        <ele>1511.6</ele>
        <time>2000-01-01T05:20:09.000Z</time>
      </trkpt>
      <trkpt lat="46.2639" lon="6.65463">
        <ele>1511</ele>
        <time>2000-01-01T05:20:19.000Z</time>
      </trkpt>
      <trkpt lat="46.26356" lon="6.65486">
        <ele>1510</ele>
        <time>2000-01-01T05:20:29.000Z</time>
      </trkpt>
      <trkpt lat="46.26346" lon="6.65483">
        <ele>1509.4</ele>
        <time>2000-01-01T05:20:39.000Z</time>
      </trkpt>
      <trkpt lat="46.26339" lon="6.65486">
        <ele>1508.2</ele>
        <time>2000-01-01T05:20:49.000Z</time>
      </trkpt>
      <trkpt lat="46.26323" lon="6.65518">
        <ele>1508</ele>
        <time>2000-01-01T05:20:59.000Z</time>
      </trkpt>
      <trkpt lat="46.26323" lon="6.65548">
        <ele>1507</ele>
        <time>2000-01-01T05:21:09.000Z</time>
      </trkpt>
      <trkpt lat="46.2632" lon="6.65564">
        <ele>1510.2</ele>
        <time>2000-01-01T05:21:19.000Z</time>
      </trkpt>
      <trkpt lat="46.26314" lon="6.65572">
        <ele>1506</ele>
        <time>2000-01-01T05:21:29.000Z</time>
      </trkpt>
      <trkpt lat="46.26284" lon="6.65596">
        <ele>1504</ele>
        <time>2000-01-01T05:21:39.000Z</time>
      </trkpt>
      <trkpt lat="46.26264" lon="6.65619">
        <ele>1504</ele>
        <time>2000-01-01T05:21:49.000Z</time>
      </trkpt>
      <trkpt lat="46.26257" lon="6.65636">
        <ele>1506.2</ele>
        <time>2000-01-01T05:21:59.000Z</time>
      </trkpt>
      <trkpt lat="46.26254" lon="6.65667">
        <ele>1504</ele>
        <time>2000-01-01T05:22:09.000Z</time>
      </trkpt>
      <trkpt lat="46.26249" lon="6.65674">
        <ele>1507.7</ele>
        <time>2000-01-01T05:22:19.000Z</time>
      </trkpt>
      <trkpt lat="46.26205" lon="6.6569">
        <ele>1503</ele>
        <time>2000-01-01T05:22:29.000Z</time>
      </trkpt>
      <trkpt lat="46.2618" lon="6.65708">
        <ele>1501</ele>
        <time>2000-01-01T05:22:39.000Z</time>
      </trkpt>
      <trkpt lat="46.26144" lon="6.65733">
        <ele>1499</ele>
        <time>2000-01-01T05:22:49.000Z</time>
      </trkpt>
      <trkpt lat="46.2613" lon="6.65734">
        <ele>1501.3</ele>
        <time>2000-01-01T05:22:59.000Z</time>
      </trkpt>
      <trkpt lat="46.26106" lon="6.65726">
        <ele>1495</ele>
        <time>2000-01-01T05:23:09.000Z</time>
      </trkpt>
      <trkpt lat="46.26097" lon="6.65727">
        <ele>1494</ele>
        <time>2000-01-01T05:23:19.000Z</time>
      </trkpt>
      <trkpt lat="46.26078" lon="6.65755">
        <ele>1489</ele>
        <time>2000-01-01T05:23:29.000Z</time>
      </trkpt>
      <trkpt lat="46.26057" lon="6.6577">
        <ele>1487</ele>
        <time>2000-01-01T05:23:39.000Z</time>
      </trkpt>
      <trkpt lat="46.2604" lon="6.65784">
        <ele>1487</ele>
        <time>2000-01-01T05:23:49.000Z</time>
      </trkpt>
      <trkpt lat="46.26014" lon="6.6579">
        <ele>1487</ele>
        <time>2000-01-01T05:23:59.000Z</time>
      </trkpt>
      <trkpt lat="46.25979" lon="6.65809">
        <ele>1484</ele>
        <time>2000-01-01T05:24:09.000Z</time>
      </trkpt>
      <trkpt lat="46.25952" lon="6.65818">
        <ele>1484</ele>
        <time>2000-01-01T05:24:19.000Z</time>
      </trkpt>
      <trkpt lat="46.25911" lon="6.65831">
        <ele>1491</ele>
        <time>2000-01-01T05:24:29.000Z</time>
      </trkpt>
      <trkpt lat="46.25868" lon="6.65822">
        <ele>1488</ele>
        <time>2000-01-01T05:24:39.000Z</time>
      </trkpt>
      <trkpt lat="46.25854" lon="6.65814">
        <ele>1493.5</ele>
        <time>2000-01-01T05:24:49.000Z</time>
      </trkpt>
      <trkpt lat="46.25816" lon="6.65781">
        <ele>1486</ele>
        <time>2000-01-01T05:24:59.000Z</time>
      </trkpt>
      <trkpt lat="46.25807" lon="6.65777">
        <ele>1485.3</ele>
        <time>2000-01-01T05:25:09.000Z</time>
      </trkpt>
      <trkpt lat="46.25797" lon="6.65778">
        <ele>1482</ele>
        <time>2000-01-01T05:25:19.000Z</time>
      </trkpt>
      <trkpt lat="46.25772" lon="6.65788">
        <ele>1483</ele>
        <time>2000-01-01T05:25:29.000Z</time>
      </trkpt>
      <trkpt lat="46.25746" lon="6.65806">
        <ele>1484</ele>
        <time>2000-01-01T05:25:39.000Z</time>
      </trkpt>
      <trkpt lat="46.257" lon="6.65836">
        <ele>1490</ele>
        <time>2000-01-01T05:25:49.000Z</time>
      </trkpt>
      <trkpt lat="46.25674" lon="6.65843">
        <ele>1490</ele>
        <time>2000-01-01T05:25:59.000Z</time>
      </trkpt>
      <trkpt lat="46.25635" lon="6.65847">
        <ele>1490</ele>
        <time>2000-01-01T05:26:09.000Z</time>
      </trkpt>
      <trkpt lat="46.25606" lon="6.65854">
        <ele>1495</ele>
        <time>2000-01-01T05:26:19.000Z</time>
      </trkpt>
      <trkpt lat="46.25559" lon="6.65865">
        <ele>1499</ele>
        <time>2000-01-01T05:26:29.000Z</time>
      </trkpt>
      <trkpt lat="46.25551" lon="6.65868">
        <ele>1502.4</ele>
        <time>2000-01-01T05:26:39.000Z</time>
      </trkpt>
      <trkpt lat="46.25545" lon="6.65874">
        <ele>1502.3</ele>
        <time>2000-01-01T05:26:49.000Z</time>
      </trkpt>
      <trkpt lat="46.25542" lon="6.65883">
        <ele>1507</ele>
        <time>2000-01-01T05:26:59.000Z</time>
      </trkpt>
      <trkpt lat="46.25547" lon="6.65907">
        <ele>1504.5</ele>
        <time>2000-01-01T05:27:09.000Z</time>
      </trkpt>
      <trkpt lat="46.25552" lon="6.65915">
        <ele>1509</ele>
        <time>2000-01-01T05:27:19.000Z</time>
      </trkpt>
      <trkpt lat="46.25576" lon="6.65935">
        <ele>1512</ele>
        <time>2000-01-01T05:27:29.000Z</time>
      </trkpt>
      <trkpt lat="46.2559" lon="6.6595">
        <ele>1513.4</ele>
        <time>2000-01-01T05:27:39.000Z</time>
      </trkpt>
      <trkpt lat="46.2567" lon="6.66059">
        <ele>1521</ele>
        <time>2000-01-01T05:27:49.000Z</time>
      </trkpt>
      <trkpt lat="46.25683" lon="6.66071">
        <ele>1527.9</ele>
        <time>2000-01-01T05:27:59.000Z</time>
      </trkpt>
      <trkpt lat="46.25732" lon="6.66106">
        <ele>1530</ele>
        <time>2000-01-01T05:28:09.000Z</time>
      </trkpt>
      <trkpt lat="46.25742" lon="6.6612">
        <ele>1533.2</ele>
        <time>2000-01-01T05:28:19.000Z</time>
      </trkpt>
      <trkpt lat="46.25758" lon="6.66152">
        <ele>1531</ele>
        <time>2000-01-01T05:28:29.000Z</time>
      </trkpt>
      <trkpt lat="46.25778" lon="6.66171">
        <ele>1535</ele>
        <time>2000-01-01T05:28:39.000Z</time>
      </trkpt>
      <trkpt lat="46.25798" lon="6.66191">
        <ele>1537</ele>
        <time>2000-01-01T05:28:49.000Z</time>
      </trkpt>
      <trkpt lat="46.2583" lon="6.66207">
        <ele>1538</ele>
        <time>2000-01-01T05:28:59.000Z</time>
      </trkpt>
      <trkpt lat="46.25846" lon="6.66222">
        <ele>1545</ele>
        <time>2000-01-01T05:29:09.000Z</time>
      </trkpt>
      <trkpt lat="46.25858" lon="6.66251">
        <ele>1540</ele>
        <time>2000-01-01T05:29:19.000Z</time>
      </trkpt>
      <trkpt lat="46.25864" lon="6.66287">
        <ele>1543</ele>
        <time>2000-01-01T05:29:29.000Z</time>
      </trkpt>
      <trkpt lat="46.2587" lon="6.66328">
        <ele>1545</ele>
        <time>2000-01-01T05:29:39.000Z</time>
      </trkpt>
      <trkpt lat="46.25878" lon="6.66362">
        <ele>1545</ele>
        <time>2000-01-01T05:29:49.000Z</time>
      </trkpt>
      <trkpt lat="46.25887" lon="6.66401">
        <ele>1548</ele>
        <time>2000-01-01T05:29:59.000Z</time>
      </trkpt>
      <trkpt lat="46.25902" lon="6.66431">
        <ele>1549</ele>
        <time>2000-01-01T05:30:09.000Z</time>
      </trkpt>
      <trkpt lat="46.2592" lon="6.66468">
        <ele>1551</ele>
        <time>2000-01-01T05:30:19.000Z</time>
      </trkpt>
      <trkpt lat="46.25935" lon="6.66496">
        <ele>1553</ele>
        <time>2000-01-01T05:30:29.000Z</time>
      </trkpt>
      <trkpt lat="46.25939" lon="6.66508">
        <ele>1555</ele>
        <time>2000-01-01T05:30:39.000Z</time>
      </trkpt>
      <trkpt lat="46.25941" lon="6.66583">
        <ele>1559</ele>
        <time>2000-01-01T05:30:49.000Z</time>
      </trkpt>
      <trkpt lat="46.25955" lon="6.66632">
        <ele>1562</ele>
        <time>2000-01-01T05:30:59.000Z</time>
      </trkpt>
      <trkpt lat="46.25961" lon="6.66669">
        <ele>1565</ele>
        <time>2000-01-01T05:31:09.000Z</time>
      </trkpt>
      <trkpt lat="46.25969" lon="6.66718">
        <ele>1565</ele>
        <time>2000-01-01T05:31:19.000Z</time>
      </trkpt>
      <trkpt lat="46.25981" lon="6.66755">
        <ele>1567</ele>
        <time>2000-01-01T05:31:29.000Z</time>
      </trkpt>
      <trkpt lat="46.25988" lon="6.66783">
        <ele>1570</ele>
        <time>2000-01-01T05:31:39.000Z</time>
      </trkpt>
      <trkpt lat="46.2599" lon="6.66846">
        <ele>1572</ele>
        <time>2000-01-01T05:31:49.000Z</time>
      </trkpt>
      <trkpt lat="46.25997" lon="6.66882">
        <ele>1574</ele>
        <time>2000-01-01T05:31:59.000Z</time>
      </trkpt>
      <trkpt lat="46.26004" lon="6.66924">
        <ele>1581</ele>
        <time>2000-01-01T05:32:09.000Z</time>
      </trkpt>
      <trkpt lat="46.26007" lon="6.66981">
        <ele>1582</ele>
        <time>2000-01-01T05:32:19.000Z</time>
      </trkpt>
      <trkpt lat="46.26011" lon="6.6701">
        <ele>1583</ele>
        <time>2000-01-01T05:32:29.000Z</time>
      </trkpt>
      <trkpt lat="46.26019" lon="6.67036">
        <ele>1584</ele>
        <time>2000-01-01T05:32:39.000Z</time>
      </trkpt>
      <trkpt lat="46.26033" lon="6.67071">
        <ele>1588</ele>
        <time>2000-01-01T05:32:49.000Z</time>
      </trkpt>
      <trkpt lat="46.26055" lon="6.67122">
        <ele>1591</ele>
        <time>2000-01-01T05:32:59.000Z</time>
      </trkpt>
      <trkpt lat="46.26065" lon="6.67144">
        <ele>1592.1</ele>
        <time>2000-01-01T05:33:09.000Z</time>
      </trkpt>
      <trkpt lat="46.26091" lon="6.67177">
        <ele>1591</ele>
        <time>2000-01-01T05:33:19.000Z</time>
      </trkpt>
      <trkpt lat="46.26108" lon="6.67206">
        <ele>1591</ele>
        <time>2000-01-01T05:33:29.000Z</time>
      </trkpt>
      <trkpt lat="46.26119" lon="6.67219">
        <ele>1589.7</ele>
        <time>2000-01-01T05:33:39.000Z</time>
      </trkpt>
      <trkpt lat="46.26129" lon="6.67226">
        <ele>1590</ele>
        <time>2000-01-01T05:33:49.000Z</time>
      </trkpt>
      <trkpt lat="46.26142" lon="6.6723">
        <ele>1588.9</ele>
        <time>2000-01-01T05:33:59.000Z</time>
      </trkpt>
      <trkpt lat="46.26173" lon="6.67228">
        <ele>1590</ele>
        <time>2000-01-01T05:34:09.000Z</time>
      </trkpt>
      <trkpt lat="46.26183" lon="6.67231">
        <ele>1591.9</ele>
        <time>2000-01-01T05:34:19.000Z</time>
      </trkpt>
      <trkpt lat="46.26199" lon="6.67249">
        <ele>1590</ele>
        <time>2000-01-01T05:34:29.000Z</time>
      </trkpt>
      <trkpt lat="46.2623" lon="6.67297">
        <ele>1589</ele>
        <time>2000-01-01T05:34:39.000Z</time>
      </trkpt>
      <trkpt lat="46.26264" lon="6.6734">
        <ele>1589</ele>
        <time>2000-01-01T05:34:49.000Z</time>
      </trkpt>
      <trkpt lat="46.26281" lon="6.67372">
        <ele>1589</ele>
        <time>2000-01-01T05:34:59.000Z</time>
      </trkpt>
      <trkpt lat="46.26309" lon="6.67422">
        <ele>1588</ele>
        <time>2000-01-01T05:35:09.000Z</time>
      </trkpt>
      <trkpt lat="46.26324" lon="6.67468">
        <ele>1587</ele>
        <time>2000-01-01T05:35:19.000Z</time>
      </trkpt>
      <trkpt lat="46.26347" lon="6.67507">
        <ele>1587</ele>
        <time>2000-01-01T05:35:29.000Z</time>
      </trkpt>
      <trkpt lat="46.26367" lon="6.67549">
        <ele>1587</ele>
        <time>2000-01-01T05:35:39.000Z</time>
      </trkpt>
      <trkpt lat="46.26373" lon="6.67588">
        <ele>1586</ele>
        <time>2000-01-01T05:35:49.000Z</time>
      </trkpt>
      <trkpt lat="46.26372" lon="6.6763">
        <ele>1586</ele>
        <time>2000-01-01T05:35:59.000Z</time>
      </trkpt>
      <trkpt lat="46.26374" lon="6.67652">
        <ele>1584.9</ele>
        <time>2000-01-01T05:36:09.000Z</time>
      </trkpt>
      <trkpt lat="46.26392" lon="6.67693">
        <ele>1584</ele>
        <time>2000-01-01T05:36:19.000Z</time>
      </trkpt>
      <trkpt lat="46.264" lon="6.67742">
        <ele>1580</ele>
        <time>2000-01-01T05:36:29.000Z</time>
      </trkpt>
      <trkpt lat="46.26408" lon="6.67774">
        <ele>1579</ele>
        <time>2000-01-01T05:36:39.000Z</time>
      </trkpt>
      <trkpt lat="46.26417" lon="6.67807">
        <ele>1577</ele>
        <time>2000-01-01T05:36:49.000Z</time>
      </trkpt>
      <trkpt lat="46.26423" lon="6.67842">
        <ele>1576</ele>
        <time>2000-01-01T05:36:59.000Z</time>
      </trkpt>
      <trkpt lat="46.2643" lon="6.67884">
        <ele>1576</ele>
        <time>2000-01-01T05:37:09.000Z</time>
      </trkpt>
      <trkpt lat="46.26438" lon="6.67921">
        <ele>1570</ele>
        <time>2000-01-01T05:37:19.000Z</time>
      </trkpt>
      <trkpt lat="46.2645" lon="6.67972">
        <ele>1568</ele>
        <time>2000-01-01T05:37:29.000Z</time>
      </trkpt>
      <trkpt lat="46.26464" lon="6.68016">
        <ele>1566</ele>
        <time>2000-01-01T05:37:39.000Z</time>
      </trkpt>
      <trkpt lat="46.26478" lon="6.68059">
        <ele>1561</ele>
        <time>2000-01-01T05:37:49.000Z</time>
      </trkpt>
      <trkpt lat="46.265" lon="6.68125">
        <ele>1553</ele>
        <time>2000-01-01T05:37:59.000Z</time>
      </trkpt>
      <trkpt lat="46.26515" lon="6.68153">
        <ele>1552</ele>
        <time>2000-01-01T05:38:09.000Z</time>
      </trkpt>
      <trkpt lat="46.26531" lon="6.68184">
        <ele>1551</ele>
        <time>2000-01-01T05:38:19.000Z</time>
      </trkpt>
      <trkpt lat="46.26547" lon="6.68217">
        <ele>1548</ele>
        <time>2000-01-01T05:38:29.000Z</time>
      </trkpt>
      <trkpt lat="46.2657" lon="6.68267">
        <ele>1545</ele>
        <time>2000-01-01T05:38:39.000Z</time>
      </trkpt>
      <trkpt lat="46.26602" lon="6.68288">
        <ele>1543</ele>
        <time>2000-01-01T05:38:49.000Z</time>
      </trkpt>
      <trkpt lat="46.26624" lon="6.68298">
        <ele>1542</ele>
        <time>2000-01-01T05:38:59.000Z</time>
      </trkpt>
      <trkpt lat="46.26633" lon="6.68308">
        <ele>1536.8</ele>
        <time>2000-01-01T05:39:09.000Z</time>
      </trkpt>
      <trkpt lat="46.26636" lon="6.68321">
        <ele>1536</ele>
        <time>2000-01-01T05:39:19.000Z</time>
      </trkpt>
      <trkpt lat="46.2664" lon="6.68357">
        <ele>1536</ele>
        <time>2000-01-01T05:39:29.000Z</time>
      </trkpt>
      <trkpt lat="46.26648" lon="6.6839">
        <ele>1537</ele>
        <time>2000-01-01T05:39:39.000Z</time>
      </trkpt>
      <trkpt lat="46.26668" lon="6.68438">
        <ele>1536</ele>
        <time>2000-01-01T05:39:49.000Z</time>
      </trkpt>
      <trkpt lat="46.26668" lon="6.68461">
        <ele>1540</ele>
        <time>2000-01-01T05:39:59.000Z</time>
      </trkpt>
      <trkpt lat="46.26663" lon="6.68511">
        <ele>1536</ele>
        <time>2000-01-01T05:40:09.000Z</time>
      </trkpt>
      <trkpt lat="46.26663" lon="6.68546">
        <ele>1536</ele>
        <time>2000-01-01T05:40:19.000Z</time>
      </trkpt>
      <trkpt lat="46.26659" lon="6.68582">
        <ele>1538</ele>
        <time>2000-01-01T05:40:29.000Z</time>
      </trkpt>
      <trkpt lat="46.26661" lon="6.68599">
        <ele>1538.5</ele>
        <time>2000-01-01T05:40:39.000Z</time>
      </trkpt>
      <trkpt lat="46.2667" lon="6.68622">
        <ele>1540</ele>
        <time>2000-01-01T05:40:49.000Z</time>
      </trkpt>
      <trkpt lat="46.26673" lon="6.68652">
        <ele>1542</ele>
        <time>2000-01-01T05:40:59.000Z</time>
      </trkpt>
      <trkpt lat="46.26671" lon="6.68687">
        <ele>1546</ele>
        <time>2000-01-01T05:41:09.000Z</time>
      </trkpt>
      <trkpt lat="46.26669" lon="6.68723">
        <ele>1555</ele>
        <time>2000-01-01T05:41:19.000Z</time>
      </trkpt>
      <trkpt lat="46.26666" lon="6.68735">
        <ele>1556.3</ele>
        <time>2000-01-01T05:41:29.000Z</time>
      </trkpt>
      <trkpt lat="46.26639" lon="6.68788">
        <ele>1562</ele>
        <time>2000-01-01T05:41:39.000Z</time>
      </trkpt>
      <trkpt lat="46.26636" lon="6.688">
        <ele>1566.3</ele>
        <time>2000-01-01T05:41:49.000Z</time>
      </trkpt>
      <trkpt lat="46.26637" lon="6.6882">
        <ele>1568</ele>
        <time>2000-01-01T05:41:59.000Z</time>
      </trkpt>
      <trkpt lat="46.26645" lon="6.6884">
        <ele>1575.1</ele>
        <time>2000-01-01T05:42:09.000Z</time>
      </trkpt>
      <trkpt lat="46.26656" lon="6.68853">
        <ele>1577</ele>
        <time>2000-01-01T05:42:19.000Z</time>
      </trkpt>
      <trkpt lat="46.26669" lon="6.68861">
        <ele>1583.4</ele>
        <time>2000-01-01T05:42:29.000Z</time>
      </trkpt>
      <trkpt lat="46.26681" lon="6.68877">
        <ele>1588</ele>
        <time>2000-01-01T05:42:39.000Z</time>
      </trkpt>
      <trkpt lat="46.26702" lon="6.68894">
        <ele>1595</ele>
        <time>2000-01-01T05:42:49.000Z</time>
      </trkpt>
      <trkpt lat="46.26723" lon="6.68912">
        <ele>1603</ele>
        <time>2000-01-01T05:42:59.000Z</time>
      </trkpt>
      <trkpt lat="46.26742" lon="6.68948">
        <ele>1613</ele>
        <time>2000-01-01T05:43:09.000Z</time>
      </trkpt>
      <trkpt lat="46.26742" lon="6.68965">
        <ele>1620.4</ele>
        <time>2000-01-01T05:43:19.000Z</time>
      </trkpt>
      <trkpt lat="46.26738" lon="6.68988">
        <ele>1624</ele>
        <time>2000-01-01T05:43:29.000Z</time>
      </trkpt>
      <trkpt lat="46.26744" lon="6.69016">
        <ele>1633</ele>
        <time>2000-01-01T05:43:39.000Z</time>
      </trkpt>
      <trkpt lat="46.26752" lon="6.69031">
        <ele>1638.8</ele>
        <time>2000-01-01T05:43:49.000Z</time>
      </trkpt>
      <trkpt lat="46.26767" lon="6.69045">
        <ele>1641</ele>
        <time>2000-01-01T05:43:59.000Z</time>
      </trkpt>
      <trkpt lat="46.26773" lon="6.69062">
        <ele>1646.8</ele>
        <time>2000-01-01T05:44:09.000Z</time>
      </trkpt>
      <trkpt lat="46.26782" lon="6.69076">
        <ele>1649</ele>
        <time>2000-01-01T05:44:19.000Z</time>
      </trkpt>
      <trkpt lat="46.26795" lon="6.6908">
        <ele>1651.1</ele>
        <time>2000-01-01T05:44:29.000Z</time>
      </trkpt>
      <trkpt lat="46.26878" lon="6.69081">
        <ele>1660</ele>
        <time>2000-01-01T05:44:39.000Z</time>
      </trkpt>
      <trkpt lat="46.26894" lon="6.69085">
        <ele>1665.9</ele>
        <time>2000-01-01T05:44:49.000Z</time>
      </trkpt>
      <trkpt lat="46.26907" lon="6.69096">
        <ele>1668</ele>
        <time>2000-01-01T05:44:59.000Z</time>
      </trkpt>
      <trkpt lat="46.26922" lon="6.69122">
        <ele>1669</ele>
        <time>2000-01-01T05:45:09.000Z</time>
      </trkpt>
      <trkpt lat="46.26931" lon="6.69169">
        <ele>1662</ele>
        <time>2000-01-01T05:45:19.000Z</time>
      </trkpt>
      <trkpt lat="46.26932" lon="6.69187">
        <ele>1664.5</ele>
        <time>2000-01-01T05:45:29.000Z</time>
      </trkpt>
      <trkpt lat="46.26925" lon="6.69276">
        <ele>1656</ele>
        <time>2000-01-01T05:45:39.000Z</time>
      </trkpt>
      <trkpt lat="46.26923" lon="6.69328">
        <ele>1653</ele>
        <time>2000-01-01T05:45:49.000Z</time>
      </trkpt>
      <trkpt lat="46.26923" lon="6.69363">
        <ele>1650</ele>
        <time>2000-01-01T05:45:59.000Z</time>
      </trkpt>
      <trkpt lat="46.26923" lon="6.69402">
        <ele>1647</ele>
        <time>2000-01-01T05:46:09.000Z</time>
      </trkpt>
      <trkpt lat="46.26926" lon="6.6945">
        <ele>1641</ele>
        <time>2000-01-01T05:46:19.000Z</time>
      </trkpt>
      <trkpt lat="46.26925" lon="6.69492">
        <ele>1635</ele>
        <time>2000-01-01T05:46:29.000Z</time>
      </trkpt>
      <trkpt lat="46.26923" lon="6.6956">
        <ele>1628</ele>
        <time>2000-01-01T05:46:39.000Z</time>
      </trkpt>
      <trkpt lat="46.26929" lon="6.69623">
        <ele>1619</ele>
        <time>2000-01-01T05:46:49.000Z</time>
      </trkpt>
      <trkpt lat="46.26933" lon="6.69646">
        <ele>1619.6</ele>
        <time>2000-01-01T05:46:59.000Z</time>
      </trkpt>
      <trkpt lat="46.26928" lon="6.6965">
        <ele>1616</ele>
        <time>2000-01-01T05:47:09.000Z</time>
      </trkpt>
      <trkpt lat="46.26923" lon="6.69646">
        <ele>1616.9</ele>
        <time>2000-01-01T05:47:19.000Z</time>
      </trkpt>
      <trkpt lat="46.2689" lon="6.69591">
        <ele>1612</ele>
        <time>2000-01-01T05:47:29.000Z</time>
      </trkpt>
      <trkpt lat="46.26875" lon="6.69556">
        <ele>1607</ele>
        <time>2000-01-01T05:47:39.000Z</time>
      </trkpt>
      <trkpt lat="46.26852" lon="6.69504">
        <ele>1600</ele>
        <time>2000-01-01T05:47:49.000Z</time>
      </trkpt>
      <trkpt lat="46.26846" lon="6.69501">
        <ele>1600.5</ele>
        <time>2000-01-01T05:47:59.000Z</time>
      </trkpt>
      <trkpt lat="46.26842" lon="6.69506">
        <ele>1599</ele>
        <time>2000-01-01T05:48:09.000Z</time>
      </trkpt>
      <trkpt lat="46.26835" lon="6.69567">
        <ele>1593</ele>
        <time>2000-01-01T05:48:19.000Z</time>
      </trkpt>
      <trkpt lat="46.26834" lon="6.69572">
        <ele>1594</ele>
        <time>2000-01-01T05:48:29.000Z</time>
      </trkpt>
      <trkpt lat="46.26829" lon="6.69574">
        <ele>1591.6</ele>
        <time>2000-01-01T05:48:39.000Z</time>
      </trkpt>
      <trkpt lat="46.26825" lon="6.69569">
        <ele>1590.1</ele>
        <time>2000-01-01T05:48:49.000Z</time>
      </trkpt>
      <trkpt lat="46.26805" lon="6.69517">
        <ele>1583</ele>
        <time>2000-01-01T05:48:59.000Z</time>
      </trkpt>
      <trkpt lat="46.26794" lon="6.69507">
        <ele>1581.7</ele>
        <time>2000-01-01T05:49:09.000Z</time>
      </trkpt>
      <trkpt lat="46.26788" lon="6.69509">
        <ele>1576</ele>
        <time>2000-01-01T05:49:19.000Z</time>
      </trkpt>
      <trkpt lat="46.26785" lon="6.69522">
        <ele>1579.1</ele>
        <time>2000-01-01T05:49:29.000Z</time>
      </trkpt>
      <trkpt lat="46.26799" lon="6.69656">
        <ele>1560</ele>
        <time>2000-01-01T05:49:39.000Z</time>
      </trkpt>
      <trkpt lat="46.268" lon="6.69701">
        <ele>1554</ele>
        <time>2000-01-01T05:49:49.000Z</time>
      </trkpt>
      <trkpt lat="46.26801" lon="6.69746">
        <ele>1554</ele>
        <time>2000-01-01T05:49:59.000Z</time>
      </trkpt>
      <trkpt lat="46.26802" lon="6.69791">
        <ele>1548</ele>
        <time>2000-01-01T05:50:09.000Z</time>
      </trkpt>
      <trkpt lat="46.26807" lon="6.6983">
        <ele>1542</ele>
        <time>2000-01-01T05:50:19.000Z</time>
      </trkpt>
      <trkpt lat="46.26815" lon="6.69886">
        <ele>1539</ele>
        <time>2000-01-01T05:50:29.000Z</time>
      </trkpt>
      <trkpt lat="46.26832" lon="6.69948">
        <ele>1535</ele>
        <time>2000-01-01T05:50:39.000Z</time>
      </trkpt>
      <trkpt lat="46.26852" lon="6.70006">
        <ele>1529</ele>
        <time>2000-01-01T05:50:49.000Z</time>
      </trkpt>
      <trkpt lat="46.26874" lon="6.70042">
        <ele>1524</ele>
        <time>2000-01-01T05:50:59.000Z</time>
      </trkpt>
      <trkpt lat="46.26897" lon="6.70059">
        <ele>1523</ele>
        <time>2000-01-01T05:51:09.000Z</time>
      </trkpt>
      <trkpt lat="46.26905" lon="6.70068">
        <ele>1519.4</ele>
        <time>2000-01-01T05:51:19.000Z</time>
      </trkpt>
      <trkpt lat="46.2691" lon="6.70082">
        <ele>1518</ele>
        <time>2000-01-01T05:51:29.000Z</time>
      </trkpt>
      <trkpt lat="46.26916" lon="6.70119">
        <ele>1515</ele>
        <time>2000-01-01T05:51:39.000Z</time>
      </trkpt>
      <trkpt lat="46.26914" lon="6.70125">
        <ele>1514.9</ele>
        <time>2000-01-01T05:51:49.000Z</time>
      </trkpt>
      <trkpt lat="46.26906" lon="6.70125">
        <ele>1513.2</ele>
        <time>2000-01-01T05:51:59.000Z</time>
      </trkpt>
      <trkpt lat="46.26888" lon="6.7011">
        <ele>1509</ele>
        <time>2000-01-01T05:52:09.000Z</time>
      </trkpt>
      <trkpt lat="46.26864" lon="6.70095">
        <ele>1509</ele>
        <time>2000-01-01T05:52:19.000Z</time>
      </trkpt>
      <trkpt lat="46.26834" lon="6.70077">
        <ele>1507</ele>
        <time>2000-01-01T05:52:29.000Z</time>
      </trkpt>
      <trkpt lat="46.26814" lon="6.70051">
        <ele>1504</ele>
        <time>2000-01-01T05:52:39.000Z</time>
      </trkpt>
      <trkpt lat="46.26786" lon="6.70015">
        <ele>1498</ele>
        <time>2000-01-01T05:52:49.000Z</time>
      </trkpt>
      <trkpt lat="46.2676" lon="6.69977">
        <ele>1497</ele>
        <time>2000-01-01T05:52:59.000Z</time>
      </trkpt>
      <trkpt lat="46.26738" lon="6.69934">
        <ele>1489</ele>
        <time>2000-01-01T05:53:09.000Z</time>
      </trkpt>
      <trkpt lat="46.26719" lon="6.69916">
        <ele>1486</ele>
        <time>2000-01-01T05:53:19.000Z</time>
      </trkpt>
      <trkpt lat="46.26697" lon="6.69901">
        <ele>1480</ele>
        <time>2000-01-01T05:53:29.000Z</time>
      </trkpt>
      <trkpt lat="46.26679" lon="6.69875">
        <ele>1480</ele>
        <time>2000-01-01T05:53:39.000Z</time>
      </trkpt>
      <trkpt lat="46.26672" lon="6.69873">
        <ele>1481.4</ele>
        <time>2000-01-01T05:53:49.000Z</time>
      </trkpt>
      <trkpt lat="46.26659" lon="6.69884">
        <ele>1479</ele>
        <time>2000-01-01T05:53:59.000Z</time>
      </trkpt>
      <trkpt lat="46.26636" lon="6.69896">
        <ele>1478</ele>
        <time>2000-01-01T05:54:09.000Z</time>
      </trkpt>
      <trkpt lat="46.26623" lon="6.69914">
        <ele>1473.7</ele>
        <time>2000-01-01T05:54:19.000Z</time>
      </trkpt>
      <trkpt lat="46.26608" lon="6.69968">
        <ele>1467</ele>
        <time>2000-01-01T05:54:29.000Z</time>
      </trkpt>
      <trkpt lat="46.26605" lon="6.70007">
        <ele>1464</ele>
        <time>2000-01-01T05:54:39.000Z</time>
      </trkpt>
      <trkpt lat="46.266" lon="6.70058">
        <ele>1461</ele>
        <time>2000-01-01T05:54:49.000Z</time>
      </trkpt>
      <trkpt lat="46.2658" lon="6.70082">
        <ele>1455</ele>
        <time>2000-01-01T05:54:59.000Z</time>
      </trkpt>
      <trkpt lat="46.26555" lon="6.70113">
        <ele>1448</ele>
        <time>2000-01-01T05:55:09.000Z</time>
      </trkpt>
      <trkpt lat="46.26551" lon="6.70123">
        <ele>1446</ele>
        <time>2000-01-01T05:55:19.000Z</time>
      </trkpt>
      <trkpt lat="46.26554" lon="6.7014">
        <ele>1442</ele>
        <time>2000-01-01T05:55:29.000Z</time>
      </trkpt>
      <trkpt lat="46.26569" lon="6.7017">
        <ele>1441</ele>
        <time>2000-01-01T05:55:39.000Z</time>
      </trkpt>
      <trkpt lat="46.26587" lon="6.702">
        <ele>1437</ele>
        <time>2000-01-01T05:55:49.000Z</time>
      </trkpt>
      <trkpt lat="46.26613" lon="6.70241">
        <ele>1427</ele>
        <time>2000-01-01T05:55:59.000Z</time>
      </trkpt>
      <trkpt lat="46.26614" lon="6.70261">
        <ele>1425.4</ele>
        <time>2000-01-01T05:56:09.000Z</time>
      </trkpt>
      <trkpt lat="46.26607" lon="6.70282">
        <ele>1424</ele>
        <time>2000-01-01T05:56:19.000Z</time>
      </trkpt>
      <trkpt lat="46.26606" lon="6.70291">
        <ele>1420.7</ele>
        <time>2000-01-01T05:56:29.000Z</time>
      </trkpt>
      <trkpt lat="46.26608" lon="6.70298">
        <ele>1419.8</ele>
        <time>2000-01-01T05:56:39.000Z</time>
      </trkpt>
      <trkpt lat="46.26612" lon="6.70301">
        <ele>1419.7</ele>
        <time>2000-01-01T05:56:49.000Z</time>
      </trkpt>
      <trkpt lat="46.26624" lon="6.7029">
        <ele>1422</ele>
        <time>2000-01-01T05:56:59.000Z</time>
      </trkpt>
      <trkpt lat="46.26628" lon="6.70292">
        <ele>1421.9</ele>
        <time>2000-01-01T05:57:09.000Z</time>
      </trkpt>
      <trkpt lat="46.2663" lon="6.70302">
        <ele>1421.3</ele>
        <time>2000-01-01T05:57:19.000Z</time>
      </trkpt>
      <trkpt lat="46.26624" lon="6.70327">
        <ele>1413</ele>
        <time>2000-01-01T05:57:29.000Z</time>
      </trkpt>
      <trkpt lat="46.26619" lon="6.70343">
        <ele>1414.2</ele>
        <time>2000-01-01T05:57:39.000Z</time>
      </trkpt>
      <trkpt lat="46.26616" lon="6.70371">
        <ele>1411</ele>
        <time>2000-01-01T05:57:49.000Z</time>
      </trkpt>
      <trkpt lat="46.26606" lon="6.70416">
        <ele>1405</ele>
        <time>2000-01-01T05:57:59.000Z</time>
      </trkpt>
      <trkpt lat="46.26602" lon="6.70417">
        <ele>1406.3</ele>
        <time>2000-01-01T05:58:09.000Z</time>
      </trkpt>
      <trkpt lat="46.26593" lon="6.70405">
        <ele>1404.1</ele>
        <time>2000-01-01T05:58:19.000Z</time>
      </trkpt>
      <trkpt lat="46.26587" lon="6.70407">
        <ele>1401</ele>
        <time>2000-01-01T05:58:29.000Z</time>
      </trkpt>
      <trkpt lat="46.26585" lon="6.70415">
        <ele>1401.5</ele>
        <time>2000-01-01T05:58:39.000Z</time>
      </trkpt>
      <trkpt lat="46.26587" lon="6.70459">
        <ele>1398</ele>
        <time>2000-01-01T05:58:49.000Z</time>
      </trkpt>
      <trkpt lat="46.26582" lon="6.70465">
        <ele>1396.4</ele>
        <time>2000-01-01T05:58:59.000Z</time>
      </trkpt>
      <trkpt lat="46.26572" lon="6.70462">
        <ele>1393.9</ele>
        <time>2000-01-01T05:59:09.000Z</time>
      </trkpt>
      <trkpt lat="46.26567" lon="6.70467">
        <ele>1390</ele>
        <time>2000-01-01T05:59:19.000Z</time>
      </trkpt>
      <trkpt lat="46.26565" lon="6.70475">
        <ele>1390.9</ele>
        <time>2000-01-01T05:59:29.000Z</time>
      </trkpt>
      <trkpt lat="46.26567" lon="6.70485">
        <ele>1389.7</ele>
        <time>2000-01-01T05:59:39.000Z</time>
      </trkpt>
      <trkpt lat="46.26575" lon="6.70501">
        <ele>1387</ele>
        <time>2000-01-01T05:59:49.000Z</time>
      </trkpt>
      <trkpt lat="46.26576" lon="6.7051">
        <ele>1387.1</ele>
        <time>2000-01-01T05:59:59.000Z</time>
      </trkpt>
      <trkpt lat="46.26586" lon="6.70517">
        <ele>1387.5</ele>
        <time>2000-01-01T06:00:09.000Z</time>
      </trkpt>
      <trkpt lat="46.26599" lon="6.70533">
        <ele>1385</ele>
        <time>2000-01-01T06:00:19.000Z</time>
      </trkpt>
      <trkpt lat="46.26613" lon="6.70561">
        <ele>1385</ele>
        <time>2000-01-01T06:00:29.000Z</time>
      </trkpt>
      <trkpt lat="46.2663" lon="6.70591">
        <ele>1384</ele>
        <time>2000-01-01T06:00:39.000Z</time>
      </trkpt>
      <trkpt lat="46.26653" lon="6.70627">
        <ele>1384</ele>
        <time>2000-01-01T06:00:49.000Z</time>
      </trkpt>
      <trkpt lat="46.26657" lon="6.7064">
        <ele>1380.8</ele>
        <time>2000-01-01T06:00:59.000Z</time>
      </trkpt>
      <trkpt lat="46.26658" lon="6.70662">
        <ele>1378</ele>
        <time>2000-01-01T06:01:09.000Z</time>
      </trkpt>
      <trkpt lat="46.2665" lon="6.70711">
        <ele>1372</ele>
        <time>2000-01-01T06:01:19.000Z</time>
      </trkpt>
      <trkpt lat="46.2665" lon="6.70734">
        <ele>1367.6</ele>
        <time>2000-01-01T06:01:29.000Z</time>
      </trkpt>
      <trkpt lat="46.26665" lon="6.70799">
        <ele>1359</ele>
        <time>2000-01-01T06:01:39.000Z</time>
      </trkpt>
      <trkpt lat="46.26673" lon="6.70822">
        <ele>1355.1</ele>
        <time>2000-01-01T06:01:49.000Z</time>
      </trkpt>
      <trkpt lat="46.26689" lon="6.70841">
        <ele>1352</ele>
        <time>2000-01-01T06:01:59.000Z</time>
      </trkpt>
      <trkpt lat="46.267" lon="6.70873">
        <ele>1349</ele>
        <time>2000-01-01T06:02:09.000Z</time>
      </trkpt>
      <trkpt lat="46.26715" lon="6.70875">
        <ele>1347.1</ele>
        <time>2000-01-01T06:02:19.000Z</time>
      </trkpt>
      <trkpt lat="46.26723" lon="6.70881">
        <ele>1344</ele>
        <time>2000-01-01T06:02:29.000Z</time>
      </trkpt>
      <trkpt lat="46.26751" lon="6.70916">
        <ele>1344</ele>
        <time>2000-01-01T06:02:39.000Z</time>
      </trkpt>
      <trkpt lat="46.26761" lon="6.70922">
        <ele>1342.3</ele>
        <time>2000-01-01T06:02:49.000Z</time>
      </trkpt>
      <trkpt lat="46.26786" lon="6.7093">
        <ele>1344</ele>
        <time>2000-01-01T06:02:59.000Z</time>
      </trkpt>
      <trkpt lat="46.26816" lon="6.70943">
        <ele>1343</ele>
        <time>2000-01-01T06:03:09.000Z</time>
      </trkpt>
      <trkpt lat="46.26847" lon="6.70957">
        <ele>1342</ele>
        <time>2000-01-01T06:03:19.000Z</time>
      </trkpt>
      <trkpt lat="46.2688" lon="6.70972">
        <ele>1339</ele>
        <time>2000-01-01T06:03:29.000Z</time>
      </trkpt>
      <trkpt lat="46.26905" lon="6.70975">
        <ele>1339</ele>
        <time>2000-01-01T06:03:39.000Z</time>
      </trkpt>
      <trkpt lat="46.26937" lon="6.70997">
        <ele>1332</ele>
        <time>2000-01-01T06:03:49.000Z</time>
      </trkpt>
      <trkpt lat="46.26961" lon="6.70995">
        <ele>1326</ele>
        <time>2000-01-01T06:03:59.000Z</time>
      </trkpt>
      <trkpt lat="46.26991" lon="6.71002">
        <ele>1316</ele>
        <time>2000-01-01T06:04:09.000Z</time>
      </trkpt>
      <trkpt lat="46.27015" lon="6.71005">
        <ele>1311</ele>
        <time>2000-01-01T06:04:19.000Z</time>
      </trkpt>
      <trkpt lat="46.27039" lon="6.71007">
        <ele>1303</ele>
        <time>2000-01-01T06:04:29.000Z</time>
      </trkpt>
      <trkpt lat="46.27054" lon="6.71002">
        <ele>1296.3</ele>
        <time>2000-01-01T06:04:39.000Z</time>
      </trkpt>
      <trkpt lat="46.27088" lon="6.70978">
        <ele>1291</ele>
        <time>2000-01-01T06:04:49.000Z</time>
      </trkpt>
      <trkpt lat="46.27102" lon="6.70965">
        <ele>1284.4</ele>
        <time>2000-01-01T06:04:59.000Z</time>
      </trkpt>
      <trkpt lat="46.27129" lon="6.70915">
        <ele>1281</ele>
        <time>2000-01-01T06:05:09.000Z</time>
      </trkpt>
      <trkpt lat="46.27139" lon="6.70882">
        <ele>1278</ele>
        <time>2000-01-01T06:05:19.000Z</time>
      </trkpt>
      <trkpt lat="46.27149" lon="6.70828">
        <ele>1275</ele>
        <time>2000-01-01T06:05:29.000Z</time>
      </trkpt>
      <trkpt lat="46.27159" lon="6.70774">
        <ele>1272</ele>
        <time>2000-01-01T06:05:39.000Z</time>
      </trkpt>
      <trkpt lat="46.27168" lon="6.70719">
        <ele>1271</ele>
        <time>2000-01-01T06:05:49.000Z</time>
      </trkpt>
      <trkpt lat="46.27178" lon="6.70665">
        <ele>1269</ele>
        <time>2000-01-01T06:05:59.000Z</time>
      </trkpt>
      <trkpt lat="46.27196" lon="6.7056">
        <ele>1270</ele>
        <time>2000-01-01T06:06:09.000Z</time>
      </trkpt>
      <trkpt lat="46.272" lon="6.70523">
        <ele>1272</ele>
        <time>2000-01-01T06:06:19.000Z</time>
      </trkpt>
      <trkpt lat="46.27204" lon="6.70477">
        <ele>1272</ele>
        <time>2000-01-01T06:06:29.000Z</time>
      </trkpt>
      <trkpt lat="46.27222" lon="6.70434">
        <ele>1265</ele>
        <time>2000-01-01T06:06:39.000Z</time>
      </trkpt>
      <trkpt lat="46.2724" lon="6.7039">
        <ele>1264</ele>
        <time>2000-01-01T06:06:49.000Z</time>
      </trkpt>
      <trkpt lat="46.27257" lon="6.70347">
        <ele>1261</ele>
        <time>2000-01-01T06:06:59.000Z</time>
      </trkpt>
      <trkpt lat="46.27276" lon="6.70303">
        <ele>1257</ele>
        <time>2000-01-01T06:07:09.000Z</time>
      </trkpt>
      <trkpt lat="46.27281" lon="6.7027">
        <ele>1256</ele>
        <time>2000-01-01T06:07:19.000Z</time>
      </trkpt>
      <trkpt lat="46.27305" lon="6.70259">
        <ele>1256</ele>
        <time>2000-01-01T06:07:29.000Z</time>
      </trkpt>
      <trkpt lat="46.27322" lon="6.70231">
        <ele>1248</ele>
        <time>2000-01-01T06:07:39.000Z</time>
      </trkpt>
      <trkpt lat="46.27351" lon="6.70213">
        <ele>1245</ele>
        <time>2000-01-01T06:07:49.000Z</time>
      </trkpt>
      <trkpt lat="46.2738" lon="6.70187">
        <ele>1241</ele>
        <time>2000-01-01T06:07:59.000Z</time>
      </trkpt>
      <trkpt lat="46.27391" lon="6.70171">
        <ele>1239.1</ele>
        <time>2000-01-01T06:08:09.000Z</time>
      </trkpt>
      <trkpt lat="46.27399" lon="6.7015">
        <ele>1240</ele>
        <time>2000-01-01T06:08:19.000Z</time>
      </trkpt>
      <trkpt lat="46.27404" lon="6.70144">
        <ele>1237.3</ele>
        <time>2000-01-01T06:08:29.000Z</time>
      </trkpt>
      <trkpt lat="46.27416" lon="6.70139">
        <ele>1240</ele>
        <time>2000-01-01T06:08:39.000Z</time>
      </trkpt>
      <trkpt lat="46.27423" lon="6.70132">
        <ele>1233.4</ele>
        <time>2000-01-01T06:08:49.000Z</time>
      </trkpt>
      <trkpt lat="46.27475" lon="6.70049">
        <ele>1232</ele>
        <time>2000-01-01T06:08:59.000Z</time>
      </trkpt>
      <trkpt lat="46.27504" lon="6.70016">
        <ele>1227</ele>
        <time>2000-01-01T06:09:09.000Z</time>
      </trkpt>
      <trkpt lat="46.27531" lon="6.69977">
        <ele>1221</ele>
        <time>2000-01-01T06:09:19.000Z</time>
      </trkpt>
      <trkpt lat="46.27554" lon="6.69962">
        <ele>1218</ele>
        <time>2000-01-01T06:09:29.000Z</time>
      </trkpt>
      <trkpt lat="46.27579" lon="6.69944">
        <ele>1218</ele>
        <time>2000-01-01T06:09:39.000Z</time>
      </trkpt>
      <trkpt lat="46.27591" lon="6.69943">
        <ele>1214.9</ele>
        <time>2000-01-01T06:09:49.000Z</time>
      </trkpt>
      <trkpt lat="46.27597" lon="6.69949">
        <ele>1215</ele>
        <time>2000-01-01T06:09:59.000Z</time>
      </trkpt>
      <trkpt lat="46.27603" lon="6.69965">
        <ele>1212.4</ele>
        <time>2000-01-01T06:10:09.000Z</time>
      </trkpt>
      <trkpt lat="46.27626" lon="6.70072">
        <ele>1203</ele>
        <time>2000-01-01T06:10:19.000Z</time>
      </trkpt>
      <trkpt lat="46.27627" lon="6.7009">
        <ele>1203.8</ele>
        <time>2000-01-01T06:10:29.000Z</time>
      </trkpt>
      <trkpt lat="46.27621" lon="6.70098">
        <ele>1202</ele>
        <time>2000-01-01T06:10:39.000Z</time>
      </trkpt>
      <trkpt lat="46.27615" lon="6.70097">
        <ele>1201.2</ele>
        <time>2000-01-01T06:10:49.000Z</time>
      </trkpt>
      <trkpt lat="46.27598" lon="6.70076">
        <ele>1198</ele>
        <time>2000-01-01T06:10:59.000Z</time>
      </trkpt>
      <trkpt lat="46.27577" lon="6.70061">
        <ele>1196</ele>
        <time>2000-01-01T06:11:09.000Z</time>
      </trkpt>
      <trkpt lat="46.27569" lon="6.70058">
        <ele>1197.7</ele>
        <time>2000-01-01T06:11:19.000Z</time>
      </trkpt>
      <trkpt lat="46.27561" lon="6.70059">
        <ele>1197</ele>
        <time>2000-01-01T06:11:29.000Z</time>
      </trkpt>
      <trkpt lat="46.2755" lon="6.7007">
        <ele>1195</ele>
        <time>2000-01-01T06:11:39.000Z</time>
      </trkpt>
      <trkpt lat="46.27545" lon="6.70082">
        <ele>1196.1</ele>
        <time>2000-01-01T06:11:49.000Z</time>
      </trkpt>
      <trkpt lat="46.27542" lon="6.70102">
        <ele>1193</ele>
        <time>2000-01-01T06:11:59.000Z</time>
      </trkpt>
      <trkpt lat="46.27541" lon="6.70141">
        <ele>1191</ele>
        <time>2000-01-01T06:12:09.000Z</time>
      </trkpt>
      <trkpt lat="46.2754" lon="6.7019">
        <ele>1188</ele>
        <time>2000-01-01T06:12:19.000Z</time>
      </trkpt>
      <trkpt lat="46.27542" lon="6.70255">
        <ele>1184</ele>
        <time>2000-01-01T06:12:29.000Z</time>
      </trkpt>
      <trkpt lat="46.2755" lon="6.70316">
        <ele>1179</ele>
        <time>2000-01-01T06:12:39.000Z</time>
      </trkpt>
      <trkpt lat="46.2756" lon="6.70357">
        <ele>1176</ele>
        <time>2000-01-01T06:12:49.000Z</time>
      </trkpt>
      <trkpt lat="46.27585" lon="6.70407">
        <ele>1172</ele>
        <time>2000-01-01T06:12:59.000Z</time>
      </trkpt>
      <trkpt lat="46.276" lon="6.70424">
        <ele>1169</ele>
        <time>2000-01-01T06:13:09.000Z</time>
      </trkpt>
      <trkpt lat="46.27603" lon="6.7043">
        <ele>1169.8</ele>
        <time>2000-01-01T06:13:19.000Z</time>
      </trkpt>
      <trkpt lat="46.27602" lon="6.70441">
        <ele>1168.2</ele>
        <time>2000-01-01T06:13:29.000Z</time>
      </trkpt>
      <trkpt lat="46.27596" lon="6.70447">
        <ele>1167</ele>
        <time>2000-01-01T06:13:39.000Z</time>
      </trkpt>
      <trkpt lat="46.27587" lon="6.70448">
        <ele>1166.5</ele>
        <time>2000-01-01T06:13:49.000Z</time>
      </trkpt>
      <trkpt lat="46.2753" lon="6.70433">
        <ele>1163</ele>
        <time>2000-01-01T06:13:59.000Z</time>
      </trkpt>
      <trkpt lat="46.27526" lon="6.70438">
        <ele>1162.4</ele>
        <time>2000-01-01T06:14:09.000Z</time>
      </trkpt>
      <trkpt lat="46.27491" lon="6.70519">
        <ele>1153</ele>
        <time>2000-01-01T06:14:19.000Z</time>
      </trkpt>
      <trkpt lat="46.27471" lon="6.70576">
        <ele>1147</ele>
        <time>2000-01-01T06:14:29.000Z</time>
      </trkpt>
      <trkpt lat="46.27467" lon="6.70601">
        <ele>1141.6</ele>
        <time>2000-01-01T06:14:39.000Z</time>
      </trkpt>
      <trkpt lat="46.27469" lon="6.70615">
        <ele>1140</ele>
        <time>2000-01-01T06:14:49.000Z</time>
      </trkpt>
      <trkpt lat="46.27476" lon="6.7062">
        <ele>1137.2</ele>
        <time>2000-01-01T06:14:59.000Z</time>
      </trkpt>
      <trkpt lat="46.27491" lon="6.70612">
        <ele>1135</ele>
        <time>2000-01-01T06:15:09.000Z</time>
      </trkpt>
      <trkpt lat="46.275" lon="6.70618">
        <ele>1134</ele>
        <time>2000-01-01T06:15:19.000Z</time>
      </trkpt>
      <trkpt lat="46.27502" lon="6.70639">
        <ele>1132</ele>
        <time>2000-01-01T06:15:29.000Z</time>
      </trkpt>
      <trkpt lat="46.27493" lon="6.70676">
        <ele>1127</ele>
        <time>2000-01-01T06:15:39.000Z</time>
      </trkpt>
      <trkpt lat="46.27481" lon="6.70727">
        <ele>1120</ele>
        <time>2000-01-01T06:15:49.000Z</time>
      </trkpt>
      <trkpt lat="46.2748" lon="6.7075">
        <ele>1115.2</ele>
        <time>2000-01-01T06:15:59.000Z</time>
      </trkpt>
      <trkpt lat="46.27468" lon="6.70836">
        <ele>1108</ele>
        <time>2000-01-01T06:16:09.000Z</time>
      </trkpt>
      <trkpt lat="46.27452" lon="6.70886">
        <ele>1104</ele>
        <time>2000-01-01T06:16:19.000Z</time>
      </trkpt>
      <trkpt lat="46.27443" lon="6.70925">
        <ele>1101</ele>
        <time>2000-01-01T06:16:29.000Z</time>
      </trkpt>
      <trkpt lat="46.27428" lon="6.70984">
        <ele>1095</ele>
        <time>2000-01-01T06:16:39.000Z</time>
      </trkpt>
      <trkpt lat="46.27428" lon="6.70991">
        <ele>1092.5</ele>
        <time>2000-01-01T06:16:49.000Z</time>
      </trkpt>
      <trkpt lat="46.2743" lon="6.70999">
        <ele>1091.2</ele>
        <time>2000-01-01T06:16:59.000Z</time>
      </trkpt>
      <trkpt lat="46.27439" lon="6.71006">
        <ele>1090</ele>
        <time>2000-01-01T06:17:09.000Z</time>
      </trkpt>
      <trkpt lat="46.27468" lon="6.71027">
        <ele>1086</ele>
        <time>2000-01-01T06:17:19.000Z</time>
      </trkpt>
      <trkpt lat="46.27497" lon="6.71048">
        <ele>1083</ele>
        <time>2000-01-01T06:17:29.000Z</time>
      </trkpt>
      <trkpt lat="46.27532" lon="6.71074">
        <ele>1082</ele>
        <time>2000-01-01T06:17:39.000Z</time>
      </trkpt>
      <trkpt lat="46.2754" lon="6.71084">
        <ele>1082</ele>
        <time>2000-01-01T06:17:49.000Z</time>
      </trkpt>
      <trkpt lat="46.27542" lon="6.71097">
        <ele>1082</ele>
        <time>2000-01-01T06:17:59.000Z</time>
      </trkpt>
      <trkpt lat="46.27541" lon="6.71131">
        <ele>1079</ele>
        <time>2000-01-01T06:18:09.000Z</time>
      </trkpt>
      <trkpt lat="46.27541" lon="6.71168">
        <ele>1077</ele>
        <time>2000-01-01T06:18:19.000Z</time>
      </trkpt>
      <trkpt lat="46.27537" lon="6.71207">
        <ele>1074</ele>
        <time>2000-01-01T06:18:29.000Z</time>
      </trkpt>
      <trkpt lat="46.27533" lon="6.71261">
        <ele>1070</ele>
        <time>2000-01-01T06:18:39.000Z</time>
      </trkpt>
      <trkpt lat="46.27535" lon="6.71287">
        <ele>1068</ele>
        <time>2000-01-01T06:18:49.000Z</time>
      </trkpt>
      <trkpt lat="46.27566" lon="6.71369">
        <ele>1061</ele>
        <time>2000-01-01T06:18:59.000Z</time>
      </trkpt>
      <trkpt lat="46.2758" lon="6.71399">
        <ele>1058</ele>
        <time>2000-01-01T06:19:09.000Z</time>
      </trkpt>
      <trkpt lat="46.27589" lon="6.71449">
        <ele>1054</ele>
        <time>2000-01-01T06:19:19.000Z</time>
      </trkpt>
      <trkpt lat="46.27599" lon="6.71485">
        <ele>1050</ele>
        <time>2000-01-01T06:19:29.000Z</time>
      </trkpt>
      <trkpt lat="46.27602" lon="6.71522">
        <ele>1047</ele>
        <time>2000-01-01T06:19:39.000Z</time>
      </trkpt>
      <trkpt lat="46.27607" lon="6.71569">
        <ele>1043</ele>
        <time>2000-01-01T06:19:49.000Z</time>
      </trkpt>
      <trkpt lat="46.27615" lon="6.71586">
        <ele>1042.6</ele>
        <time>2000-01-01T06:19:59.000Z</time>
      </trkpt>
      <trkpt lat="46.27638" lon="6.71596">
        <ele>1042</ele>
        <time>2000-01-01T06:20:09.000Z</time>
      </trkpt>
      <trkpt lat="46.2764" lon="6.71602">
        <ele>1040.9</ele>
        <time>2000-01-01T06:20:19.000Z</time>
      </trkpt>
      <trkpt lat="46.2764" lon="6.71609">
        <ele>1040.2</ele>
        <time>2000-01-01T06:20:29.000Z</time>
      </trkpt>
      <trkpt lat="46.27637" lon="6.71618">
        <ele>1038.9</ele>
        <time>2000-01-01T06:20:39.000Z</time>
      </trkpt>
      <trkpt lat="46.27625" lon="6.71622">
        <ele>1038</ele>
        <time>2000-01-01T06:20:49.000Z</time>
      </trkpt>
      <trkpt lat="46.27587" lon="6.71601">
        <ele>1032</ele>
        <time>2000-01-01T06:20:59.000Z</time>
      </trkpt>
      <trkpt lat="46.27577" lon="6.71587">
        <ele>1032.5</ele>
        <time>2000-01-01T06:21:09.000Z</time>
      </trkpt>
      <trkpt lat="46.27563" lon="6.71547">
        <ele>1030</ele>
        <time>2000-01-01T06:21:19.000Z</time>
      </trkpt>
      <trkpt lat="46.27555" lon="6.71539">
        <ele>1030.8</ele>
        <time>2000-01-01T06:21:29.000Z</time>
      </trkpt>
      <trkpt lat="46.27536" lon="6.71535">
        <ele>1029</ele>
        <time>2000-01-01T06:21:39.000Z</time>
      </trkpt>
      <trkpt lat="46.27514" lon="6.71544">
        <ele>1028</ele>
        <time>2000-01-01T06:21:49.000Z</time>
      </trkpt>
      <trkpt lat="46.27502" lon="6.71554">
        <ele>1028.2</ele>
        <time>2000-01-01T06:21:59.000Z</time>
      </trkpt>
      <trkpt lat="46.27486" lon="6.71573">
        <ele>1027</ele>
        <time>2000-01-01T06:22:09.000Z</time>
      </trkpt>
      <trkpt lat="46.2747" lon="6.71609">
        <ele>1024</ele>
        <time>2000-01-01T06:22:19.000Z</time>
      </trkpt>
      <trkpt lat="46.27441" lon="6.71673">
        <ele>1020</ele>
        <time>2000-01-01T06:22:29.000Z</time>
      </trkpt>
      <trkpt lat="46.27429" lon="6.71693">
        <ele>1018.9</ele>
        <time>2000-01-01T06:22:39.000Z</time>
      </trkpt>
      <trkpt lat="46.2734" lon="6.71787">
        <ele>1010</ele>
        <time>2000-01-01T06:22:49.000Z</time>
      </trkpt>
      <trkpt lat="46.27323" lon="6.71816">
        <ele>1007</ele>
        <time>2000-01-01T06:22:59.000Z</time>
      </trkpt>
      <trkpt lat="46.27303" lon="6.71851">
        <ele>1003</ele>
        <time>2000-01-01T06:23:09.000Z</time>
      </trkpt>
      <trkpt lat="46.27281" lon="6.71883">
        <ele>1000</ele>
        <time>2000-01-01T06:23:19.000Z</time>
      </trkpt>
      <trkpt lat="46.27259" lon="6.71915">
        <ele>1000</ele>
        <time>2000-01-01T06:23:29.000Z</time>
      </trkpt>
      <trkpt lat="46.27237" lon="6.71947">
        <ele>1000</ele>
        <time>2000-01-01T06:23:39.000Z</time>
      </trkpt>
      <trkpt lat="46.27231" lon="6.71957">
        <ele>998.1</ele>
        <time>2000-01-01T06:23:49.000Z</time>
      </trkpt>
      <trkpt lat="46.27213" lon="6.71994">
        <ele>999</ele>
        <time>2000-01-01T06:23:59.000Z</time>
      </trkpt>
      <trkpt lat="46.2718" lon="6.72028">
        <ele>996</ele>
        <time>2000-01-01T06:24:09.000Z</time>
      </trkpt>
      <trkpt lat="46.27189" lon="6.72063">
        <ele>993</ele>
        <time>2000-01-01T06:24:19.000Z</time>
      </trkpt>
      <trkpt lat="46.272" lon="6.72106">
        <ele>990</ele>
        <time>2000-01-01T06:24:29.000Z</time>
      </trkpt>
      <trkpt lat="46.27203" lon="6.72136">
        <ele>987</ele>
        <time>2000-01-01T06:24:39.000Z</time>
      </trkpt>
      <trkpt lat="46.272" lon="6.72155">
        <ele>985</ele>
        <time>2000-01-01T06:24:49.000Z</time>
      </trkpt>
      <trkpt lat="46.27204" lon="6.72158">
        <ele>984.8</ele>
        <time>2000-01-01T06:24:59.000Z</time>
      </trkpt>
      <trkpt lat="46.27211" lon="6.72187">
        <ele>982</ele>
        <time>2000-01-01T06:25:09.000Z</time>
      </trkpt>
      <trkpt lat="46.27219" lon="6.72202">
        <ele>981</ele>
        <time>2000-01-01T06:25:19.000Z</time>
      </trkpt>
      <trkpt lat="46.27257" lon="6.7223">
        <ele>975</ele>
        <time>2000-01-01T06:25:29.000Z</time>
      </trkpt>
      <trkpt lat="46.2728" lon="6.72213">
        <ele>974</ele>
        <time>2000-01-01T06:25:39.000Z</time>
      </trkpt>
      <trkpt lat="46.27294" lon="6.72183">
        <ele>973</ele>
        <time>2000-01-01T06:25:49.000Z</time>
      </trkpt>
      <trkpt lat="46.27337" lon="6.72187">
        <ele>973</ele>
        <time>2000-01-01T06:25:59.000Z</time>
      </trkpt>
      <trkpt lat="46.27366" lon="6.72159">
        <ele>973</ele>
        <time>2000-01-01T06:26:09.000Z</time>
      </trkpt>
      <trkpt lat="46.27393" lon="6.72153">
        <ele>971</ele>
        <time>2000-01-01T06:26:19.000Z</time>
      </trkpt>
      <trkpt lat="46.27427" lon="6.72146">
        <ele>970</ele>
        <time>2000-01-01T06:26:29.000Z</time>
      </trkpt>
      <trkpt lat="46.27456" lon="6.72133">
        <ele>968</ele>
        <time>2000-01-01T06:26:39.000Z</time>
      </trkpt>
      <trkpt lat="46.27508" lon="6.72108">
        <ele>961</ele>
        <time>2000-01-01T06:26:49.000Z</time>
      </trkpt>
      <trkpt lat="46.27517" lon="6.72108">
        <ele>956.2</ele>
        <time>2000-01-01T06:26:59.000Z</time>
      </trkpt>
      <trkpt lat="46.27539" lon="6.72116">
        <ele>953</ele>
        <time>2000-01-01T06:27:09.000Z</time>
      </trkpt>
      <trkpt lat="46.27547" lon="6.72116">
        <ele>951.8</ele>
        <time>2000-01-01T06:27:19.000Z</time>
      </trkpt>
      <trkpt lat="46.27555" lon="6.72109">
        <ele>951</ele>
        <time>2000-01-01T06:27:29.000Z</time>
      </trkpt>
      <trkpt lat="46.27566" lon="6.72092">
        <ele>949</ele>
        <time>2000-01-01T06:27:39.000Z</time>
      </trkpt>
      <trkpt lat="46.27573" lon="6.72088">
        <ele>948.2</ele>
        <time>2000-01-01T06:27:49.000Z</time>
      </trkpt>
      <trkpt lat="46.27577" lon="6.7209">
        <ele>947.7</ele>
        <time>2000-01-01T06:27:59.000Z</time>
      </trkpt>
      <trkpt lat="46.27603" lon="6.72114">
        <ele>944</ele>
        <time>2000-01-01T06:28:09.000Z</time>
      </trkpt>
      <trkpt lat="46.27627" lon="6.72101">
        <ele>942</ele>
        <time>2000-01-01T06:28:19.000Z</time>
      </trkpt>
      <trkpt lat="46.27663" lon="6.72076">
        <ele>939</ele>
        <time>2000-01-01T06:28:29.000Z</time>
      </trkpt>
      <trkpt lat="46.27672" lon="6.72072">
        <ele>938.1</ele>
        <time>2000-01-01T06:28:39.000Z</time>
      </trkpt>
      <trkpt lat="46.27678" lon="6.72072">
        <ele>937.1</ele>
        <time>2000-01-01T06:28:49.000Z</time>
      </trkpt>
      <trkpt lat="46.27685" lon="6.72073">
        <ele>937</ele>
        <time>2000-01-01T06:28:59.000Z</time>
      </trkpt>
      <trkpt lat="46.27699" lon="6.7208">
        <ele>934.2</ele>
        <time>2000-01-01T06:29:09.000Z</time>
      </trkpt>
      <trkpt lat="46.27712" lon="6.72083">
        <ele>935</ele>
        <time>2000-01-01T06:29:19.000Z</time>
      </trkpt>
      <trkpt lat="46.2774" lon="6.72075">
        <ele>934</ele>
        <time>2000-01-01T06:29:29.000Z</time>
      </trkpt>
      <trkpt lat="46.27761" lon="6.72077">
        <ele>931</ele>
        <time>2000-01-01T06:29:39.000Z</time>
      </trkpt>
      <trkpt lat="46.27789" lon="6.72073">
        <ele>930</ele>
        <time>2000-01-01T06:29:49.000Z</time>
      </trkpt>
      <trkpt lat="46.27832" lon="6.72067">
        <ele>926</ele>
        <time>2000-01-01T06:29:59.000Z</time>
      </trkpt>
      <trkpt lat="46.27874" lon="6.72076">
        <ele>925</ele>
        <time>2000-01-01T06:30:09.000Z</time>
      </trkpt>
      <trkpt lat="46.27888" lon="6.72056">
        <ele>925</ele>
        <time>2000-01-01T06:30:19.000Z</time>
      </trkpt>
      <trkpt lat="46.27908" lon="6.72042">
        <ele>924</ele>
        <time>2000-01-01T06:30:29.000Z</time>
      </trkpt>
      <trkpt lat="46.27933" lon="6.72029">
        <ele>923</ele>
        <time>2000-01-01T06:30:39.000Z</time>
      </trkpt>
      <trkpt lat="46.27935" lon="6.72091">
        <ele>923</ele>
        <time>2000-01-01T06:30:49.000Z</time>
      </trkpt>
      <trkpt lat="46.27939" lon="6.72151">
        <ele>923</ele>
        <time>2000-01-01T06:30:59.000Z</time>
      </trkpt>
      <trkpt lat="46.27943" lon="6.72197">
        <ele>922</ele>
        <time>2000-01-01T06:31:09.000Z</time>
      </trkpt>
      <trkpt lat="46.27952" lon="6.72226">
        <ele>921</ele>
        <time>2000-01-01T06:31:19.000Z</time>
      </trkpt>
      <trkpt lat="46.27956" lon="6.72239">
        <ele>921.7</ele>
        <time>2000-01-01T06:31:29.000Z</time>
      </trkpt>
      <trkpt lat="46.27964" lon="6.72251">
        <ele>921</ele>
        <time>2000-01-01T06:31:39.000Z</time>
      </trkpt>
      <trkpt lat="46.27957" lon="6.72268">
        <ele>921.2</ele>
        <time>2000-01-01T06:31:49.000Z</time>
      </trkpt>
      <trkpt lat="46.27956" lon="6.72281">
        <ele>921</ele>
        <time>2000-01-01T06:31:59.000Z</time>
      </trkpt>
      <trkpt lat="46.27957" lon="6.72293">
        <ele>921.5</ele>
        <time>2000-01-01T06:32:09.000Z</time>
      </trkpt>
      <trkpt lat="46.27972" lon="6.72336">
        <ele>921</ele>
        <time>2000-01-01T06:32:19.000Z</time>
      </trkpt>
      <trkpt lat="46.27985" lon="6.7238">
        <ele>922</ele>
        <time>2000-01-01T06:32:29.000Z</time>
      </trkpt>
      <trkpt lat="46.28006" lon="6.72438">
        <ele>922</ele>
        <time>2000-01-01T06:32:39.000Z</time>
      </trkpt>
      <trkpt lat="46.2802" lon="6.72463">
        <ele>922</ele>
        <time>2000-01-01T06:32:49.000Z</time>
      </trkpt>
      <trkpt lat="46.28034" lon="6.72502">
        <ele>923</ele>
        <time>2000-01-01T06:32:59.000Z</time>
      </trkpt>
      <trkpt lat="46.28059" lon="6.72575">
        <ele>923</ele>
        <time>2000-01-01T06:33:09.000Z</time>
      </trkpt>
      <trkpt lat="46.28065" lon="6.72583">
        <ele>924.3</ele>
        <time>2000-01-01T06:33:19.000Z</time>
      </trkpt>
      <trkpt lat="46.28073" lon="6.72589">
        <ele>924.6</ele>
        <time>2000-01-01T06:33:29.000Z</time>
      </trkpt>
      <trkpt lat="46.28081" lon="6.72587">
        <ele>924</ele>
        <time>2000-01-01T06:33:39.000Z</time>
      </trkpt>
      <trkpt lat="46.28108" lon="6.72572">
        <ele>924</ele>
        <time>2000-01-01T06:33:49.000Z</time>
      </trkpt>
      <trkpt lat="46.28154" lon="6.72547">
        <ele>925</ele>
        <time>2000-01-01T06:33:59.000Z</time>
      </trkpt>
      <trkpt lat="46.28162" lon="6.72549">
        <ele>925.7</ele>
        <time>2000-01-01T06:34:09.000Z</time>
      </trkpt>
      <trkpt lat="46.28168" lon="6.7256">
        <ele>926</ele>
        <time>2000-01-01T06:34:19.000Z</time>
      </trkpt>
      <trkpt lat="46.28161" lon="6.72631">
        <ele>925</ele>
        <time>2000-01-01T06:34:29.000Z</time>
      </trkpt>
      <trkpt lat="46.28162" lon="6.72667">
        <ele>925</ele>
        <time>2000-01-01T06:34:39.000Z</time>
      </trkpt>
      <trkpt lat="46.28166" lon="6.72702">
        <ele>924</ele>
        <time>2000-01-01T06:34:49.000Z</time>
      </trkpt>
      <trkpt lat="46.28177" lon="6.72741">
        <ele>924</ele>
        <time>2000-01-01T06:34:59.000Z</time>
      </trkpt>
      <trkpt lat="46.2818" lon="6.72763">
        <ele>925.5</ele>
        <time>2000-01-01T06:35:09.000Z</time>
      </trkpt>
      <trkpt lat="46.28179" lon="6.72789">
        <ele>925</ele>
        <time>2000-01-01T06:35:19.000Z</time>
      </trkpt>
      <trkpt lat="46.28165" lon="6.72819">
        <ele>925</ele>
        <time>2000-01-01T06:35:29.000Z</time>
      </trkpt>
      <trkpt lat="46.28151" lon="6.7285">
        <ele>925</ele>
        <time>2000-01-01T06:35:39.000Z</time>
      </trkpt>
      <trkpt lat="46.28141" lon="6.72893">
        <ele>926</ele>
        <time>2000-01-01T06:35:49.000Z</time>
      </trkpt>
      <trkpt lat="46.2814" lon="6.72919">
        <ele>926.2</ele>
        <time>2000-01-01T06:35:59.000Z</time>
      </trkpt>
      <trkpt lat="46.28155" lon="6.73021">
        <ele>928</ele>
        <time>2000-01-01T06:36:09.000Z</time>
      </trkpt>
      <trkpt lat="46.28158" lon="6.73058">
        <ele>929</ele>
        <time>2000-01-01T06:36:19.000Z</time>
      </trkpt>
      <trkpt lat="46.28157" lon="6.73081">
        <ele>928.1</ele>
        <time>2000-01-01T06:36:29.000Z</time>
      </trkpt>
      <trkpt lat="46.28168" lon="6.73164">
        <ele>931</ele>
        <time>2000-01-01T06:36:39.000Z</time>
      </trkpt>
      <trkpt lat="46.28169" lon="6.73198">
        <ele>934</ele>
        <time>2000-01-01T06:36:49.000Z</time>
      </trkpt>
      <trkpt lat="46.28169" lon="6.73233">
        <ele>934</ele>
        <time>2000-01-01T06:36:59.000Z</time>
      </trkpt>
      <trkpt lat="46.28172" lon="6.73253">
        <ele>933.5</ele>
        <time>2000-01-01T06:37:09.000Z</time>
      </trkpt>
      <trkpt lat="46.28185" lon="6.73294">
        <ele>931</ele>
        <time>2000-01-01T06:37:19.000Z</time>
      </trkpt>
      <trkpt lat="46.28198" lon="6.73312">
        <ele>930.6</ele>
        <time>2000-01-01T06:37:29.000Z</time>
      </trkpt>
      <trkpt lat="46.28221" lon="6.73323">
        <ele>929</ele>
        <time>2000-01-01T06:37:39.000Z</time>
      </trkpt>
      <trkpt lat="46.2825" lon="6.73331">
        <ele>929</ele>
        <time>2000-01-01T06:37:49.000Z</time>
      </trkpt>
      <trkpt lat="46.283" lon="6.73346">
        <ele>930</ele>
        <time>2000-01-01T06:37:59.000Z</time>
      </trkpt>
      <trkpt lat="46.28315" lon="6.73358">
        <ele>930</ele>
        <time>2000-01-01T06:38:09.000Z</time>
      </trkpt>
      <trkpt lat="46.28323" lon="6.7337">
        <ele>930</ele>
        <time>2000-01-01T06:38:19.000Z</time>
      </trkpt>
      <trkpt lat="46.28337" lon="6.73398">
        <ele>931</ele>
        <time>2000-01-01T06:38:29.000Z</time>
      </trkpt>
      <trkpt lat="46.28353" lon="6.73428">
        <ele>931</ele>
        <time>2000-01-01T06:38:39.000Z</time>
      </trkpt>
      <trkpt lat="46.28367" lon="6.73467">
        <ele>931</ele>
        <time>2000-01-01T06:38:49.000Z</time>
      </trkpt>
      <trkpt lat="46.28392" lon="6.73538">
        <ele>932</ele>
        <time>2000-01-01T06:38:59.000Z</time>
      </trkpt>
      <trkpt lat="46.28399" lon="6.73546">
        <ele>933.2</ele>
        <time>2000-01-01T06:39:09.000Z</time>
      </trkpt>
      <trkpt lat="46.28413" lon="6.73593">
        <ele>935</ele>
        <time>2000-01-01T06:39:19.000Z</time>
      </trkpt>
      <trkpt lat="46.28416" lon="6.73643">
        <ele>937</ele>
        <time>2000-01-01T06:39:29.000Z</time>
      </trkpt>
      <trkpt lat="46.2842" lon="6.73684">
        <ele>937</ele>
        <time>2000-01-01T06:39:39.000Z</time>
      </trkpt>
      <trkpt lat="46.28427" lon="6.73754">
        <ele>936</ele>
        <time>2000-01-01T06:39:49.000Z</time>
      </trkpt>
      <trkpt lat="46.28433" lon="6.73769">
        <ele>937.8</ele>
        <time>2000-01-01T06:39:59.000Z</time>
      </trkpt>
      <trkpt lat="46.28472" lon="6.73834">
        <ele>936</ele>
        <time>2000-01-01T06:40:09.000Z</time>
      </trkpt>
      <trkpt lat="46.28493" lon="6.73876">
        <ele>937</ele>
        <time>2000-01-01T06:40:19.000Z</time>
      </trkpt>
      <trkpt lat="46.28504" lon="6.73922">
        <ele>940</ele>
        <time>2000-01-01T06:40:29.000Z</time>
      </trkpt>
      <trkpt lat="46.28515" lon="6.73969">
        <ele>940</ele>
        <time>2000-01-01T06:40:39.000Z</time>
      </trkpt>
      <trkpt lat="46.28533" lon="6.74045">
        <ele>940</ele>
        <time>2000-01-01T06:40:49.000Z</time>
      </trkpt>
      <trkpt lat="46.28532" lon="6.74066">
        <ele>940.9</ele>
        <time>2000-01-01T06:40:59.000Z</time>
      </trkpt>
      <trkpt lat="46.28528" lon="6.74085">
        <ele>942</ele>
        <time>2000-01-01T06:41:09.000Z</time>
      </trkpt>
      <trkpt lat="46.28529" lon="6.74098">
        <ele>940.9</ele>
        <time>2000-01-01T06:41:19.000Z</time>
      </trkpt>
      <trkpt lat="46.28558" lon="6.74162">
        <ele>942</ele>
        <time>2000-01-01T06:41:29.000Z</time>
      </trkpt>
      <trkpt lat="46.28562" lon="6.74176">
        <ele>941.8</ele>
        <time>2000-01-01T06:41:39.000Z</time>
      </trkpt>
      <trkpt lat="46.28562" lon="6.74189">
        <ele>942</ele>
        <time>2000-01-01T06:41:49.000Z</time>
      </trkpt>
      <trkpt lat="46.28555" lon="6.74216">
        <ele>942</ele>
        <time>2000-01-01T06:41:59.000Z</time>
      </trkpt>
      <trkpt lat="46.28556" lon="6.74236">
        <ele>941.5</ele>
        <time>2000-01-01T06:42:09.000Z</time>
      </trkpt>
      <trkpt lat="46.28597" lon="6.74375">
        <ele>941</ele>
        <time>2000-01-01T06:42:19.000Z</time>
      </trkpt>
      <trkpt lat="46.28604" lon="6.74411">
        <ele>941</ele>
        <time>2000-01-01T06:42:29.000Z</time>
      </trkpt>
      <trkpt lat="46.28606" lon="6.74457">
        <ele>941</ele>
        <time>2000-01-01T06:42:39.000Z</time>
      </trkpt>
      <trkpt lat="46.28614" lon="6.74499">
        <ele>942</ele>
        <time>2000-01-01T06:42:49.000Z</time>
      </trkpt>
      <trkpt lat="46.2862" lon="6.74515">
        <ele>944.7</ele>
        <time>2000-01-01T06:42:59.000Z</time>
      </trkpt>
      <trkpt lat="46.28642" lon="6.74551">
        <ele>942</ele>
        <time>2000-01-01T06:43:09.000Z</time>
      </trkpt>
      <trkpt lat="46.28676" lon="6.74562">
        <ele>942</ele>
        <time>2000-01-01T06:43:19.000Z</time>
      </trkpt>
      <trkpt lat="46.28688" lon="6.74562">
        <ele>942.5</ele>
        <time>2000-01-01T06:43:29.000Z</time>
      </trkpt>
      <trkpt lat="46.28757" lon="6.74547">
        <ele>943</ele>
        <time>2000-01-01T06:43:39.000Z</time>
      </trkpt>
      <trkpt lat="46.28778" lon="6.7455">
        <ele>943</ele>
        <time>2000-01-01T06:43:49.000Z</time>
      </trkpt>
      <trkpt lat="46.28789" lon="6.74558">
        <ele>944.5</ele>
        <time>2000-01-01T06:43:59.000Z</time>
      </trkpt>
      <trkpt lat="46.28798" lon="6.74577">
        <ele>945</ele>
        <time>2000-01-01T06:44:09.000Z</time>
      </trkpt>
      <trkpt lat="46.28806" lon="6.74623">
        <ele>945</ele>
        <time>2000-01-01T06:44:19.000Z</time>
      </trkpt>
      <trkpt lat="46.28807" lon="6.7464">
        <ele>946.2</ele>
        <time>2000-01-01T06:44:29.000Z</time>
      </trkpt>
      <trkpt lat="46.28802" lon="6.7472">
        <ele>948</ele>
        <time>2000-01-01T06:44:39.000Z</time>
      </trkpt>
      <trkpt lat="46.28803" lon="6.74739">
        <ele>949.2</ele>
        <time>2000-01-01T06:44:49.000Z</time>
      </trkpt>
      <trkpt lat="46.28807" lon="6.74756">
        <ele>948</ele>
        <time>2000-01-01T06:44:59.000Z</time>
      </trkpt>
      <trkpt lat="46.28832" lon="6.74788">
        <ele>948</ele>
        <time>2000-01-01T06:45:09.000Z</time>
      </trkpt>
      <trkpt lat="46.28844" lon="6.74795">
        <ele>951.3</ele>
        <time>2000-01-01T06:45:19.000Z</time>
      </trkpt>
      <trkpt lat="46.28886" lon="6.7481">
        <ele>949</ele>
        <time>2000-01-01T06:45:29.000Z</time>
      </trkpt>
      <trkpt lat="46.28915" lon="6.74833">
        <ele>950</ele>
        <time>2000-01-01T06:45:39.000Z</time>
      </trkpt>
      <trkpt lat="46.28924" lon="6.74851">
        <ele>952.4</ele>
        <time>2000-01-01T06:45:49.000Z</time>
      </trkpt>
      <trkpt lat="46.28928" lon="6.74867">
        <ele>953</ele>
        <time>2000-01-01T06:45:59.000Z</time>
      </trkpt>
      <trkpt lat="46.28927" lon="6.7488">
        <ele>953.5</ele>
        <time>2000-01-01T06:46:09.000Z</time>
      </trkpt>
      <trkpt lat="46.28915" lon="6.74918">
        <ele>955</ele>
        <time>2000-01-01T06:46:19.000Z</time>
      </trkpt>
      <trkpt lat="46.28911" lon="6.74942">
        <ele>955.8</ele>
        <time>2000-01-01T06:46:29.000Z</time>
      </trkpt>
      <trkpt lat="46.28911" lon="6.74958">
        <ele>955</ele>
        <time>2000-01-01T06:46:39.000Z</time>
      </trkpt>
      <trkpt lat="46.28916" lon="6.75006">
        <ele>954</ele>
        <time>2000-01-01T06:46:49.000Z</time>
      </trkpt>
      <trkpt lat="46.28921" lon="6.75027">
        <ele>955.6</ele>
        <time>2000-01-01T06:46:59.000Z</time>
      </trkpt>
      <trkpt lat="46.28931" lon="6.75044">
        <ele>954</ele>
        <time>2000-01-01T06:47:09.000Z</time>
      </trkpt>
      <trkpt lat="46.2896" lon="6.75071">
        <ele>957</ele>
        <time>2000-01-01T06:47:19.000Z</time>
      </trkpt>
      <trkpt lat="46.28963" lon="6.75081">
        <ele>959.8</ele>
        <time>2000-01-01T06:47:29.000Z</time>
      </trkpt>
      <trkpt lat="46.28958" lon="6.75096">
        <ele>962</ele>
        <time>2000-01-01T06:47:39.000Z</time>
      </trkpt>
      <trkpt lat="46.28945" lon="6.75109">
        <ele>961.1</ele>
        <time>2000-01-01T06:47:49.000Z</time>
      </trkpt>
      <trkpt lat="46.28933" lon="6.75127">
        <ele>965</ele>
        <time>2000-01-01T06:47:59.000Z</time>
      </trkpt>
      <trkpt lat="46.28929" lon="6.7514">
        <ele>962.6</ele>
        <time>2000-01-01T06:48:09.000Z</time>
      </trkpt>
      <trkpt lat="46.28929" lon="6.75154">
        <ele>962</ele>
        <time>2000-01-01T06:48:19.000Z</time>
      </trkpt>
      <trkpt lat="46.28934" lon="6.75167">
        <ele>961.6</ele>
        <time>2000-01-01T06:48:29.000Z</time>
      </trkpt>
      <trkpt lat="46.28942" lon="6.75176">
        <ele>960</ele>
        <time>2000-01-01T06:48:39.000Z</time>
      </trkpt>
      <trkpt lat="46.28968" lon="6.75192">
        <ele>959</ele>
        <time>2000-01-01T06:48:49.000Z</time>
      </trkpt>
      <trkpt lat="46.29007" lon="6.75215">
        <ele>959</ele>
        <time>2000-01-01T06:48:59.000Z</time>
      </trkpt>
      <trkpt lat="46.29016" lon="6.75237">
        <ele>959.7</ele>
        <time>2000-01-01T06:49:09.000Z</time>
      </trkpt>
      <trkpt lat="46.29017" lon="6.75262">
        <ele>960</ele>
        <time>2000-01-01T06:49:19.000Z</time>
      </trkpt>
      <trkpt lat="46.29013" lon="6.7529">
        <ele>960</ele>
        <time>2000-01-01T06:49:29.000Z</time>
      </trkpt>
      <trkpt lat="46.28998" lon="6.75348">
        <ele>962</ele>
        <time>2000-01-01T06:49:39.000Z</time>
      </trkpt>
      <trkpt lat="46.28993" lon="6.75387">
        <ele>962</ele>
        <time>2000-01-01T06:49:49.000Z</time>
      </trkpt>
      <trkpt lat="46.28993" lon="6.75414">
        <ele>962</ele>
        <time>2000-01-01T06:49:59.000Z</time>
      </trkpt>
      <trkpt lat="46.28997" lon="6.75436">
        <ele>963</ele>
        <time>2000-01-01T06:50:09.000Z</time>
      </trkpt>
      <trkpt lat="46.29008" lon="6.75463">
        <ele>962</ele>
        <time>2000-01-01T06:50:19.000Z</time>
      </trkpt>
      <trkpt lat="46.29033" lon="6.7549">
        <ele>962</ele>
        <time>2000-01-01T06:50:29.000Z</time>
      </trkpt>
      <trkpt lat="46.29079" lon="6.75542">
        <ele>963</ele>
        <time>2000-01-01T06:50:39.000Z</time>
      </trkpt>
      <trkpt lat="46.29097" lon="6.75567">
        <ele>963</ele>
        <time>2000-01-01T06:50:49.000Z</time>
      </trkpt>
      <trkpt lat="46.29112" lon="6.75603">
        <ele>964</ele>
        <time>2000-01-01T06:50:59.000Z</time>
      </trkpt>
      <trkpt lat="46.29136" lon="6.75663">
        <ele>966</ele>
        <time>2000-01-01T06:51:09.000Z</time>
      </trkpt>
      <trkpt lat="46.29157" lon="6.7569">
        <ele>966</ele>
        <time>2000-01-01T06:51:19.000Z</time>
      </trkpt>
      <trkpt lat="46.29193" lon="6.75718">
        <ele>965</ele>
        <time>2000-01-01T06:51:29.000Z</time>
      </trkpt>
      <trkpt lat="46.29213" lon="6.7574">
        <ele>965</ele>
        <time>2000-01-01T06:51:39.000Z</time>
      </trkpt>
      <trkpt lat="46.29234" lon="6.75765">
        <ele>968</ele>
        <time>2000-01-01T06:51:49.000Z</time>
      </trkpt>
      <trkpt lat="46.29252" lon="6.75811">
        <ele>969</ele>
        <time>2000-01-01T06:51:59.000Z</time>
      </trkpt>
      <trkpt lat="46.29248" lon="6.7584">
        <ele>969</ele>
        <time>2000-01-01T06:52:09.000Z</time>
      </trkpt>
      <trkpt lat="46.29242" lon="6.75848">
        <ele>967.9</ele>
        <time>2000-01-01T06:52:19.000Z</time>
      </trkpt>
      <trkpt lat="46.29226" lon="6.75862">
        <ele>969</ele>
        <time>2000-01-01T06:52:29.000Z</time>
      </trkpt>
      <trkpt lat="46.29222" lon="6.75876">
        <ele>970.1</ele>
        <time>2000-01-01T06:52:39.000Z</time>
      </trkpt>
      <trkpt lat="46.29215" lon="6.7592">
        <ele>973</ele>
        <time>2000-01-01T06:52:49.000Z</time>
      </trkpt>
      <trkpt lat="46.29216" lon="6.75936">
        <ele>973</ele>
        <time>2000-01-01T06:52:59.000Z</time>
      </trkpt>
      <trkpt lat="46.2922" lon="6.75953">
        <ele>974</ele>
        <time>2000-01-01T06:53:09.000Z</time>
      </trkpt>
      <trkpt lat="46.29234" lon="6.75982">
        <ele>970</ele>
        <time>2000-01-01T06:53:19.000Z</time>
      </trkpt>
      <trkpt lat="46.29239" lon="6.75988">
        <ele>973.5</ele>
        <time>2000-01-01T06:53:29.000Z</time>
      </trkpt>
      <trkpt lat="46.29251" lon="6.7599">
        <ele>972</ele>
        <time>2000-01-01T06:53:39.000Z</time>
      </trkpt>
      <trkpt lat="46.29257" lon="6.75988">
        <ele>969</ele>
        <time>2000-01-01T06:53:49.000Z</time>
      </trkpt>
      <trkpt lat="46.29281" lon="6.75967">
        <ele>968</ele>
        <time>2000-01-01T06:53:59.000Z</time>
      </trkpt>
      <trkpt lat="46.29305" lon="6.75933">
        <ele>968</ele>
        <time>2000-01-01T06:54:09.000Z</time>
      </trkpt>
      <trkpt lat="46.29311" lon="6.75934">
        <ele>969</ele>
        <time>2000-01-01T06:54:19.000Z</time>
      </trkpt>
      <trkpt lat="46.29318" lon="6.75941">
        <ele>969.2</ele>
        <time>2000-01-01T06:54:29.000Z</time>
      </trkpt>
      <trkpt lat="46.29334" lon="6.75991">
        <ele>969</ele>
        <time>2000-01-01T06:54:39.000Z</time>
      </trkpt>
      <trkpt lat="46.29339" lon="6.76013">
        <ele>970.8</ele>
        <time>2000-01-01T06:54:49.000Z</time>
      </trkpt>
      <trkpt lat="46.29343" lon="6.76058">
        <ele>970</ele>
        <time>2000-01-01T06:54:59.000Z</time>
      </trkpt>
      <trkpt lat="46.29338" lon="6.76106">
        <ele>973</ele>
        <time>2000-01-01T06:55:09.000Z</time>
      </trkpt>
      <trkpt lat="46.29339" lon="6.76121">
        <ele>973</ele>
        <time>2000-01-01T06:55:19.000Z</time>
      </trkpt>
      <trkpt lat="46.2936" lon="6.76207">
        <ele>972</ele>
        <time>2000-01-01T06:55:29.000Z</time>
      </trkpt>
      <trkpt lat="46.29377" lon="6.76201">
        <ele>973.4</ele>
        <time>2000-01-01T06:55:39.000Z</time>
      </trkpt>
      <trkpt lat="46.29398" lon="6.76188">
        <ele>972</ele>
        <time>2000-01-01T06:55:49.000Z</time>
      </trkpt>
      <trkpt lat="46.29403" lon="6.76223">
        <ele>972</ele>
        <time>2000-01-01T06:55:59.000Z</time>
      </trkpt>
      <trkpt lat="46.2941" lon="6.76265">
        <ele>972</ele>
        <time>2000-01-01T06:56:09.000Z</time>
      </trkpt>
      <trkpt lat="46.29413" lon="6.76323">
        <ele>972</ele>
        <time>2000-01-01T06:56:19.000Z</time>
      </trkpt>
      <trkpt lat="46.29409" lon="6.76359">
        <ele>972</ele>
        <time>2000-01-01T06:56:29.000Z</time>
      </trkpt>
      <trkpt lat="46.29405" lon="6.76404">
        <ele>973</ele>
        <time>2000-01-01T06:56:39.000Z</time>
      </trkpt>
      <trkpt lat="46.29399" lon="6.76431">
        <ele>973</ele>
        <time>2000-01-01T06:56:49.000Z</time>
      </trkpt>
      <trkpt lat="46.29393" lon="6.76445">
        <ele>973.7</ele>
        <time>2000-01-01T06:56:59.000Z</time>
      </trkpt>
      <trkpt lat="46.29377" lon="6.76473">
        <ele>973</ele>
        <time>2000-01-01T06:57:09.000Z</time>
      </trkpt>
      <trkpt lat="46.29373" lon="6.76487">
        <ele>974.6</ele>
        <time>2000-01-01T06:57:19.000Z</time>
      </trkpt>
      <trkpt lat="46.29374" lon="6.76565">
        <ele>974</ele>
        <time>2000-01-01T06:57:29.000Z</time>
      </trkpt>
      <trkpt lat="46.29373" lon="6.76627">
        <ele>974</ele>
        <time>2000-01-01T06:57:39.000Z</time>
      </trkpt>
      <trkpt lat="46.29359" lon="6.76666">
        <ele>975</ele>
        <time>2000-01-01T06:57:49.000Z</time>
      </trkpt>
      <trkpt lat="46.29335" lon="6.76737">
        <ele>978</ele>
        <time>2000-01-01T06:57:59.000Z</time>
      </trkpt>
      <trkpt lat="46.29323" lon="6.7679">
        <ele>978</ele>
        <time>2000-01-01T06:58:09.000Z</time>
      </trkpt>
      <trkpt lat="46.29318" lon="6.76843">
        <ele>978</ele>
        <time>2000-01-01T06:58:19.000Z</time>
      </trkpt>
      <trkpt lat="46.29313" lon="6.76852">
        <ele>977.7</ele>
        <time>2000-01-01T06:58:29.000Z</time>
      </trkpt>
      <trkpt lat="46.29293" lon="6.76863">
        <ele>977</ele>
        <time>2000-01-01T06:58:39.000Z</time>
      </trkpt>
      <trkpt lat="46.29289" lon="6.76869">
        <ele>977.9</ele>
        <time>2000-01-01T06:58:49.000Z</time>
      </trkpt>
      <trkpt lat="46.2929" lon="6.76879">
        <ele>977.7</ele>
        <time>2000-01-01T06:58:59.000Z</time>
      </trkpt>
      <trkpt lat="46.29311" lon="6.76906">
        <ele>977</ele>
        <time>2000-01-01T06:59:09.000Z</time>
      </trkpt>
      <trkpt lat="46.29319" lon="6.76909">
        <ele>977.6</ele>
        <time>2000-01-01T06:59:19.000Z</time>
      </trkpt>
      <trkpt lat="46.29322" lon="6.76909">
        <ele>977.6</ele>
        <time>2000-01-01T06:59:29.000Z</time>
      </trkpt>
      <trkpt lat="46.2932" lon="6.76934">
        <ele>977</ele>
        <time>2000-01-01T06:59:39.000Z</time>
      </trkpt>
      <trkpt lat="46.29317" lon="6.76946">
        <ele>978</ele>
        <time>2000-01-01T06:59:49.000Z</time>
      </trkpt>
      <trkpt lat="46.29274" lon="6.77045">
        <ele>978</ele>
        <time>2000-01-01T06:59:59.000Z</time>
      </trkpt>
      <trkpt lat="46.29271" lon="6.77102">
        <ele>979</ele>
        <time>2000-01-01T07:00:09.000Z</time>
      </trkpt>
      <trkpt lat="46.29274" lon="6.77112">
        <ele>979.8</ele>
        <time>2000-01-01T07:00:19.000Z</time>
      </trkpt>
      <trkpt lat="46.29309" lon="6.77143">
        <ele>980</ele>
        <time>2000-01-01T07:00:29.000Z</time>
      </trkpt>
      <trkpt lat="46.29325" lon="6.77162">
        <ele>980</ele>
        <time>2000-01-01T07:00:39.000Z</time>
      </trkpt>
      <trkpt lat="46.29343" lon="6.77195">
        <ele>980</ele>
        <time>2000-01-01T07:00:49.000Z</time>
      </trkpt>
      <trkpt lat="46.29352" lon="6.77221">
        <ele>980</ele>
        <time>2000-01-01T07:00:59.000Z</time>
      </trkpt>
      <trkpt lat="46.2936" lon="6.77266">
        <ele>980</ele>
        <time>2000-01-01T07:01:09.000Z</time>
      </trkpt>
      <trkpt lat="46.29364" lon="6.7731">
        <ele>981</ele>
        <time>2000-01-01T07:01:19.000Z</time>
      </trkpt>
      <trkpt lat="46.29371" lon="6.7739">
        <ele>981</ele>
        <time>2000-01-01T07:01:29.000Z</time>
      </trkpt>
      <trkpt lat="46.2937" lon="6.77433">
        <ele>981</ele>
        <time>2000-01-01T07:01:39.000Z</time>
      </trkpt>
      <trkpt lat="46.29362" lon="6.77458">
        <ele>982</ele>
        <time>2000-01-01T07:01:49.000Z</time>
      </trkpt>
      <trkpt lat="46.29345" lon="6.77502">
        <ele>983</ele>
        <time>2000-01-01T07:01:59.000Z</time>
      </trkpt>
      <trkpt lat="46.29343" lon="6.77551">
        <ele>983</ele>
        <time>2000-01-01T07:02:09.000Z</time>
      </trkpt>
      <trkpt lat="46.29341" lon="6.77599">
        <ele>983</ele>
        <time>2000-01-01T07:02:19.000Z</time>
      </trkpt>
      <trkpt lat="46.29337" lon="6.77672">
        <ele>984</ele>
        <time>2000-01-01T07:02:29.000Z</time>
      </trkpt>
      <trkpt lat="46.29326" lon="6.77736">
        <ele>984</ele>
        <time>2000-01-01T07:02:39.000Z</time>
      </trkpt>
      <trkpt lat="46.29328" lon="6.77743">
        <ele>985</ele>
        <time>2000-01-01T07:02:49.000Z</time>
      </trkpt>
      <trkpt lat="46.29357" lon="6.77798">
        <ele>986</ele>
        <time>2000-01-01T07:02:59.000Z</time>
      </trkpt>
      <trkpt lat="46.29363" lon="6.77818">
        <ele>987.7</ele>
        <time>2000-01-01T07:03:09.000Z</time>
      </trkpt>
      <trkpt lat="46.29367" lon="6.77858">
        <ele>986</ele>
        <time>2000-01-01T07:03:19.000Z</time>
      </trkpt>
      <trkpt lat="46.29367" lon="6.77902">
        <ele>987</ele>
        <time>2000-01-01T07:03:29.000Z</time>
      </trkpt>
      <trkpt lat="46.29367" lon="6.77982">
        <ele>989</ele>
        <time>2000-01-01T07:03:39.000Z</time>
      </trkpt>
      <trkpt lat="46.2936" lon="6.78022">
        <ele>989</ele>
        <time>2000-01-01T07:03:49.000Z</time>
      </trkpt>
      <trkpt lat="46.2935" lon="6.78085">
        <ele>991</ele>
        <time>2000-01-01T07:03:59.000Z</time>
      </trkpt>
      <trkpt lat="46.29341" lon="6.78084">
        <ele>990.6</ele>
        <time>2000-01-01T07:04:09.000Z</time>
      </trkpt>
      <trkpt lat="46.29332" lon="6.78118">
        <ele>991</ele>
        <time>2000-01-01T07:04:19.000Z</time>
      </trkpt>
      <trkpt lat="46.29315" lon="6.78151">
        <ele>991</ele>
        <time>2000-01-01T07:04:29.000Z</time>
      </trkpt>
      <trkpt lat="46.29306" lon="6.78163">
        <ele>991</ele>
        <time>2000-01-01T07:04:39.000Z</time>
      </trkpt>
      <trkpt lat="46.29306" lon="6.78168">
        <ele>991</ele>
        <time>2000-01-01T07:04:49.000Z</time>
      </trkpt>
      <trkpt lat="46.29323" lon="6.7822">
        <ele>991</ele>
        <time>2000-01-01T07:04:59.000Z</time>
      </trkpt>
      <trkpt lat="46.29326" lon="6.78264">
        <ele>991</ele>
        <time>2000-01-01T07:05:09.000Z</time>
      </trkpt>
      <trkpt lat="46.29323" lon="6.7828">
        <ele>993.6</ele>
        <time>2000-01-01T07:05:19.000Z</time>
      </trkpt>
      <trkpt lat="46.29314" lon="6.78303">
        <ele>991</ele>
        <time>2000-01-01T07:05:29.000Z</time>
      </trkpt>
      <trkpt lat="46.29308" lon="6.78314">
        <ele>992.6</ele>
        <time>2000-01-01T07:05:39.000Z</time>
      </trkpt>
      <trkpt lat="46.29303" lon="6.7832">
        <ele>992.5</ele>
        <time>2000-01-01T07:05:49.000Z</time>
      </trkpt>
      <trkpt lat="46.29288" lon="6.78321">
        <ele>992</ele>
        <time>2000-01-01T07:05:59.000Z</time>
      </trkpt>
      <trkpt lat="46.29264" lon="6.78331">
        <ele>992</ele>
        <time>2000-01-01T07:06:09.000Z</time>
      </trkpt>
      <trkpt lat="46.29236" lon="6.78344">
        <ele>991</ele>
        <time>2000-01-01T07:06:19.000Z</time>
      </trkpt>
      <trkpt lat="46.29216" lon="6.78359">
        <ele>991</ele>
        <time>2000-01-01T07:06:29.000Z</time>
      </trkpt>
      <trkpt lat="46.29193" lon="6.78388">
        <ele>993</ele>
        <time>2000-01-01T07:06:39.000Z</time>
      </trkpt>
      <trkpt lat="46.29175" lon="6.78422">
        <ele>993</ele>
        <time>2000-01-01T07:06:49.000Z</time>
      </trkpt>
      <trkpt lat="46.29164" lon="6.7846">
        <ele>993</ele>
        <time>2000-01-01T07:06:59.000Z</time>
      </trkpt>
      <trkpt lat="46.29159" lon="6.78523">
        <ele>994</ele>
        <time>2000-01-01T07:07:09.000Z</time>
      </trkpt>
      <trkpt lat="46.29171" lon="6.78569">
        <ele>994</ele>
        <time>2000-01-01T07:07:19.000Z</time>
      </trkpt>
      <trkpt lat="46.29176" lon="6.78608">
        <ele>994</ele>
        <time>2000-01-01T07:07:29.000Z</time>
      </trkpt>
      <trkpt lat="46.29182" lon="6.78662">
        <ele>995</ele>
        <time>2000-01-01T07:07:39.000Z</time>
      </trkpt>
      <trkpt lat="46.29179" lon="6.78689">
        <ele>996</ele>
        <time>2000-01-01T07:07:49.000Z</time>
      </trkpt>
      <trkpt lat="46.29173" lon="6.78727">
        <ele>995</ele>
        <time>2000-01-01T07:07:59.000Z</time>
      </trkpt>
      <trkpt lat="46.2917" lon="6.78764">
        <ele>995</ele>
        <time>2000-01-01T07:08:09.000Z</time>
      </trkpt>
      <trkpt lat="46.29173" lon="6.78799">
        <ele>995</ele>
        <time>2000-01-01T07:08:19.000Z</time>
      </trkpt>
      <trkpt lat="46.29176" lon="6.78834">
        <ele>996</ele>
        <time>2000-01-01T07:08:29.000Z</time>
      </trkpt>
      <trkpt lat="46.29182" lon="6.78875">
        <ele>996</ele>
        <time>2000-01-01T07:08:39.000Z</time>
      </trkpt>
      <trkpt lat="46.2919" lon="6.78912">
        <ele>996</ele>
        <time>2000-01-01T07:08:49.000Z</time>
      </trkpt>
      <trkpt lat="46.2919" lon="6.78921">
        <ele>998.7</ele>
        <time>2000-01-01T07:08:59.000Z</time>
      </trkpt>
      <trkpt lat="46.29184" lon="6.78963">
        <ele>996</ele>
        <time>2000-01-01T07:09:09.000Z</time>
      </trkpt>
      <trkpt lat="46.29185" lon="6.78983">
        <ele>998.5</ele>
        <time>2000-01-01T07:09:19.000Z</time>
      </trkpt>
      <trkpt lat="46.29188" lon="6.79004">
        <ele>997</ele>
        <time>2000-01-01T07:09:29.000Z</time>
      </trkpt>
      <trkpt lat="46.29204" lon="6.79055">
        <ele>998</ele>
        <time>2000-01-01T07:09:39.000Z</time>
      </trkpt>
      <trkpt lat="46.29208" lon="6.79096">
        <ele>999</ele>
        <time>2000-01-01T07:09:49.000Z</time>
      </trkpt>
      <trkpt lat="46.29214" lon="6.79163">
        <ele>999</ele>
        <time>2000-01-01T07:09:59.000Z</time>
      </trkpt>
      <trkpt lat="46.29213" lon="6.79171">
        <ele>1002.2</ele>
        <time>2000-01-01T07:10:09.000Z</time>
      </trkpt>
      <trkpt lat="46.29205" lon="6.79185">
        <ele>1001.3</ele>
        <time>2000-01-01T07:10:19.000Z</time>
      </trkpt>
      <trkpt lat="46.29177" lon="6.79221">
        <ele>999</ele>
        <time>2000-01-01T07:10:29.000Z</time>
      </trkpt>
      <trkpt lat="46.29154" lon="6.79237">
        <ele>999</ele>
        <time>2000-01-01T07:10:39.000Z</time>
      </trkpt>
      <trkpt lat="46.29127" lon="6.79257">
        <ele>999</ele>
        <time>2000-01-01T07:10:49.000Z</time>
      </trkpt>
      <trkpt lat="46.29125" lon="6.7928">
        <ele>1002</ele>
        <time>2000-01-01T07:10:59.000Z</time>
      </trkpt>
      <trkpt lat="46.2911" lon="6.793">
        <ele>1001</ele>
        <time>2000-01-01T07:11:09.000Z</time>
      </trkpt>
      <trkpt lat="46.29108" lon="6.7931">
        <ele>1001.9</ele>
        <time>2000-01-01T07:11:19.000Z</time>
      </trkpt>
      <trkpt lat="46.29109" lon="6.79315">
        <ele>1001.7</ele>
        <time>2000-01-01T07:11:29.000Z</time>
      </trkpt>
      <trkpt lat="46.29105" lon="6.79323">
        <ele>1001.5</ele>
        <time>2000-01-01T07:11:39.000Z</time>
      </trkpt>
      <trkpt lat="46.29107" lon="6.79342">
        <ele>1001</ele>
        <time>2000-01-01T07:11:49.000Z</time>
      </trkpt>
      <trkpt lat="46.29111" lon="6.79363">
        <ele>1001.9</ele>
        <time>2000-01-01T07:11:59.000Z</time>
      </trkpt>
      <trkpt lat="46.29121" lon="6.79393">
        <ele>1002</ele>
        <time>2000-01-01T07:12:09.000Z</time>
      </trkpt>
      <trkpt lat="46.29122" lon="6.79417">
        <ele>1001.4</ele>
        <time>2000-01-01T07:12:19.000Z</time>
      </trkpt>
      <trkpt lat="46.29097" lon="6.79487">
        <ele>1002</ele>
        <time>2000-01-01T07:12:29.000Z</time>
      </trkpt>
      <trkpt lat="46.29071" lon="6.79537">
        <ele>1002</ele>
        <time>2000-01-01T07:12:39.000Z</time>
      </trkpt>
      <trkpt lat="46.29061" lon="6.79571">
        <ele>1003</ele>
        <time>2000-01-01T07:12:49.000Z</time>
      </trkpt>
      <trkpt lat="46.29047" lon="6.79613">
        <ele>1003</ele>
        <time>2000-01-01T07:12:59.000Z</time>
      </trkpt>
      <trkpt lat="46.29033" lon="6.79626">
        <ele>1004</ele>
        <time>2000-01-01T07:13:09.000Z</time>
      </trkpt>
      <trkpt lat="46.28977" lon="6.79643">
        <ele>1004</ele>
        <time>2000-01-01T07:13:19.000Z</time>
      </trkpt>
      <trkpt lat="46.28961" lon="6.79654">
        <ele>1005.2</ele>
        <time>2000-01-01T07:13:29.000Z</time>
      </trkpt>
      <trkpt lat="46.28949" lon="6.79678">
        <ele>1004</ele>
        <time>2000-01-01T07:13:39.000Z</time>
      </trkpt>
      <trkpt lat="46.28938" lon="6.79743">
        <ele>1004</ele>
        <time>2000-01-01T07:13:49.000Z</time>
      </trkpt>
      <trkpt lat="46.2893" lon="6.79764">
        <ele>1006.2</ele>
        <time>2000-01-01T07:13:59.000Z</time>
      </trkpt>
      <trkpt lat="46.28912" lon="6.79791">
        <ele>1004</ele>
        <time>2000-01-01T07:14:09.000Z</time>
      </trkpt>
      <trkpt lat="46.28882" lon="6.79808">
        <ele>1005</ele>
        <time>2000-01-01T07:14:19.000Z</time>
      </trkpt>
      <trkpt lat="46.28853" lon="6.79817">
        <ele>1006</ele>
        <time>2000-01-01T07:14:29.000Z</time>
      </trkpt>
      <trkpt lat="46.28837" lon="6.79825">
        <ele>1008.1</ele>
        <time>2000-01-01T07:14:39.000Z</time>
      </trkpt>
      <trkpt lat="46.28827" lon="6.79839">
        <ele>1006</ele>
        <time>2000-01-01T07:14:49.000Z</time>
      </trkpt>
      <trkpt lat="46.28823" lon="6.79855">
        <ele>1009.5</ele>
        <time>2000-01-01T07:14:59.000Z</time>
      </trkpt>
      <trkpt lat="46.28837" lon="6.79897">
        <ele>1008</ele>
        <time>2000-01-01T07:15:09.000Z</time>
      </trkpt>
      <trkpt lat="46.28842" lon="6.79919">
        <ele>1008.4</ele>
        <time>2000-01-01T07:15:19.000Z</time>
      </trkpt>
      <trkpt lat="46.28862" lon="6.79973">
        <ele>1008</ele>
        <time>2000-01-01T07:15:29.000Z</time>
      </trkpt>
      <trkpt lat="46.28868" lon="6.80001">
        <ele>1008</ele>
        <time>2000-01-01T07:15:39.000Z</time>
      </trkpt>
      <trkpt lat="46.28867" lon="6.80041">
        <ele>1009</ele>
        <time>2000-01-01T07:15:49.000Z</time>
      </trkpt>
      <trkpt lat="46.28853" lon="6.80105">
        <ele>1009</ele>
        <time>2000-01-01T07:15:59.000Z</time>
      </trkpt>
      <trkpt lat="46.28847" lon="6.80147">
        <ele>1010</ele>
        <time>2000-01-01T07:16:09.000Z</time>
      </trkpt>
      <trkpt lat="46.28848" lon="6.80195">
        <ele>1010</ele>
        <time>2000-01-01T07:16:19.000Z</time>
      </trkpt>
      <trkpt lat="46.28849" lon="6.80244">
        <ele>1011</ele>
        <time>2000-01-01T07:16:29.000Z</time>
      </trkpt>
      <trkpt lat="46.2885" lon="6.80317">
        <ele>1011</ele>
        <time>2000-01-01T07:16:39.000Z</time>
      </trkpt>
      <trkpt lat="46.28855" lon="6.80357">
        <ele>1012</ele>
        <time>2000-01-01T07:16:49.000Z</time>
      </trkpt>
      <trkpt lat="46.28853" lon="6.80393">
        <ele>1012</ele>
        <time>2000-01-01T07:16:59.000Z</time>
      </trkpt>
      <trkpt lat="46.28851" lon="6.80436">
        <ele>1012</ele>
        <time>2000-01-01T07:17:09.000Z</time>
      </trkpt>
      <trkpt lat="46.28849" lon="6.80441">
        <ele>1014.9</ele>
        <time>2000-01-01T07:17:19.000Z</time>
      </trkpt>
      <trkpt lat="46.28838" lon="6.80448">
        <ele>1014.7</ele>
        <time>2000-01-01T07:17:29.000Z</time>
      </trkpt>
      <trkpt lat="46.28806" lon="6.80457">
        <ele>1013</ele>
        <time>2000-01-01T07:17:39.000Z</time>
      </trkpt>
      <trkpt lat="46.28766" lon="6.80474">
        <ele>1014</ele>
        <time>2000-01-01T07:17:49.000Z</time>
      </trkpt>
      <trkpt lat="46.28762" lon="6.80522">
        <ele>1015</ele>
        <time>2000-01-01T07:17:59.000Z</time>
      </trkpt>
      <trkpt lat="46.28769" lon="6.80561">
        <ele>1016</ele>
        <time>2000-01-01T07:18:09.000Z</time>
      </trkpt>
      <trkpt lat="46.28779" lon="6.80621">
        <ele>1016</ele>
        <time>2000-01-01T07:18:19.000Z</time>
      </trkpt>
      <trkpt lat="46.28769" lon="6.80648">
        <ele>1017</ele>
        <time>2000-01-01T07:18:29.000Z</time>
      </trkpt>
      <trkpt lat="46.28765" lon="6.80656">
        <ele>1018.1</ele>
        <time>2000-01-01T07:18:39.000Z</time>
      </trkpt>
      <trkpt lat="46.2873" lon="6.80708">
        <ele>1018</ele>
        <time>2000-01-01T07:18:49.000Z</time>
      </trkpt>
      <trkpt lat="46.28716" lon="6.80701">
        <ele>1017.8</ele>
        <time>2000-01-01T07:18:59.000Z</time>
      </trkpt>
      <trkpt lat="46.28678" lon="6.80727">
        <ele>1018</ele>
        <time>2000-01-01T07:19:09.000Z</time>
      </trkpt>
      <trkpt lat="46.28653" lon="6.80728">
        <ele>1018</ele>
        <time>2000-01-01T07:19:19.000Z</time>
      </trkpt>
      <trkpt lat="46.28625" lon="6.8072">
        <ele>1018</ele>
        <time>2000-01-01T07:19:29.000Z</time>
      </trkpt>
      <trkpt lat="46.28609" lon="6.80728">
        <ele>1018.4</ele>
        <time>2000-01-01T07:19:39.000Z</time>
      </trkpt>
      <trkpt lat="46.28587" lon="6.8076">
        <ele>1018</ele>
        <time>2000-01-01T07:19:49.000Z</time>
      </trkpt>
      <trkpt lat="46.28575" lon="6.80789">
        <ele>1018</ele>
        <time>2000-01-01T07:19:59.000Z</time>
      </trkpt>
      <trkpt lat="46.28565" lon="6.8084">
        <ele>1019</ele>
        <time>2000-01-01T07:20:09.000Z</time>
      </trkpt>
      <trkpt lat="46.28562" lon="6.80878">
        <ele>1020</ele>
        <time>2000-01-01T07:20:19.000Z</time>
      </trkpt>
      <trkpt lat="46.28554" lon="6.80905">
        <ele>1020</ele>
        <time>2000-01-01T07:20:29.000Z</time>
      </trkpt>
      <trkpt lat="46.28542" lon="6.80922">
        <ele>1023.8</ele>
        <time>2000-01-01T07:20:39.000Z</time>
      </trkpt>
      <trkpt lat="46.28495" lon="6.80958">
        <ele>1021</ele>
        <time>2000-01-01T07:20:49.000Z</time>
      </trkpt>
      <trkpt lat="46.28481" lon="6.80991">
        <ele>1022</ele>
        <time>2000-01-01T07:20:59.000Z</time>
      </trkpt>
      <trkpt lat="46.28461" lon="6.81033">
        <ele>1023</ele>
        <time>2000-01-01T07:21:09.000Z</time>
      </trkpt>
      <trkpt lat="46.28447" lon="6.81052">
        <ele>1023</ele>
        <time>2000-01-01T07:21:19.000Z</time>
      </trkpt>
      <trkpt lat="46.28429" lon="6.81062">
        <ele>1024</ele>
        <time>2000-01-01T07:21:29.000Z</time>
      </trkpt>
      <trkpt lat="46.28386" lon="6.81061">
        <ele>1024</ele>
        <time>2000-01-01T07:21:39.000Z</time>
      </trkpt>
      <trkpt lat="46.28371" lon="6.8107">
        <ele>1024.4</ele>
        <time>2000-01-01T07:21:49.000Z</time>
      </trkpt>
      <trkpt lat="46.28361" lon="6.81087">
        <ele>1024</ele>
        <time>2000-01-01T07:21:59.000Z</time>
      </trkpt>
      <trkpt lat="46.28355" lon="6.81112">
        <ele>1025</ele>
        <time>2000-01-01T07:22:09.000Z</time>
      </trkpt>
      <trkpt lat="46.28353" lon="6.8114">
        <ele>1024</ele>
        <time>2000-01-01T07:22:19.000Z</time>
      </trkpt>
      <trkpt lat="46.28339" lon="6.81184">
        <ele>1024</ele>
        <time>2000-01-01T07:22:29.000Z</time>
      </trkpt>
      <trkpt lat="46.28326" lon="6.81228">
        <ele>1025</ele>
        <time>2000-01-01T07:22:39.000Z</time>
      </trkpt>
      <trkpt lat="46.28304" lon="6.81296">
        <ele>1025</ele>
        <time>2000-01-01T07:22:49.000Z</time>
      </trkpt>
      <trkpt lat="46.28295" lon="6.81318">
        <ele>1026.2</ele>
        <time>2000-01-01T07:22:59.000Z</time>
      </trkpt>
      <trkpt lat="46.28281" lon="6.81334">
        <ele>1027</ele>
        <time>2000-01-01T07:23:09.000Z</time>
      </trkpt>
      <trkpt lat="46.28256" lon="6.81335">
        <ele>1027</ele>
        <time>2000-01-01T07:23:19.000Z</time>
      </trkpt>
      <trkpt lat="46.28224" lon="6.81335">
        <ele>1027</ele>
        <time>2000-01-01T07:23:29.000Z</time>
      </trkpt>
      <trkpt lat="46.28204" lon="6.81354">
        <ele>1027</ele>
        <time>2000-01-01T07:23:39.000Z</time>
      </trkpt>
      <trkpt lat="46.28193" lon="6.81385">
        <ele>1028</ele>
        <time>2000-01-01T07:23:49.000Z</time>
      </trkpt>
      <trkpt lat="46.2818" lon="6.81418">
        <ele>1028</ele>
        <time>2000-01-01T07:23:59.000Z</time>
      </trkpt>
      <trkpt lat="46.28176" lon="6.81456">
        <ele>1028</ele>
        <time>2000-01-01T07:24:09.000Z</time>
      </trkpt>
      <trkpt lat="46.28171" lon="6.81507">
        <ele>1029</ele>
        <time>2000-01-01T07:24:19.000Z</time>
      </trkpt>
      <trkpt lat="46.28163" lon="6.81538">
        <ele>1029</ele>
        <time>2000-01-01T07:24:29.000Z</time>
      </trkpt>
      <trkpt lat="46.28152" lon="6.81548">
        <ele>1030.5</ele>
        <time>2000-01-01T07:24:39.000Z</time>
      </trkpt>
      <trkpt lat="46.28139" lon="6.81552">
        <ele>1029</ele>
        <time>2000-01-01T07:24:49.000Z</time>
      </trkpt>
      <trkpt lat="46.28121" lon="6.81568">
        <ele>1030</ele>
        <time>2000-01-01T07:24:59.000Z</time>
      </trkpt>
      <trkpt lat="46.28104" lon="6.81592">
        <ele>1030</ele>
        <time>2000-01-01T07:25:09.000Z</time>
      </trkpt>
      <trkpt lat="46.28086" lon="6.81617">
        <ele>1030</ele>
        <time>2000-01-01T07:25:19.000Z</time>
      </trkpt>
      <trkpt lat="46.28059" lon="6.81632">
        <ele>1031</ele>
        <time>2000-01-01T07:25:29.000Z</time>
      </trkpt>
      <trkpt lat="46.28046" lon="6.81636">
        <ele>1032.3</ele>
        <time>2000-01-01T07:25:39.000Z</time>
      </trkpt>
      <trkpt lat="46.28035" lon="6.81646">
        <ele>1031</ele>
        <time>2000-01-01T07:25:49.000Z</time>
      </trkpt>
      <trkpt lat="46.28018" lon="6.81706">
        <ele>1032</ele>
        <time>2000-01-01T07:25:59.000Z</time>
      </trkpt>
      <trkpt lat="46.28003" lon="6.81744">
        <ele>1032</ele>
        <time>2000-01-01T07:26:09.000Z</time>
      </trkpt>
      <trkpt lat="46.27976" lon="6.81816">
        <ele>1034</ele>
        <time>2000-01-01T07:26:19.000Z</time>
      </trkpt>
      <trkpt lat="46.27961" lon="6.81839">
        <ele>1034</ele>
        <time>2000-01-01T07:26:29.000Z</time>
      </trkpt>
      <trkpt lat="46.2792" lon="6.81861">
        <ele>1034</ele>
        <time>2000-01-01T07:26:39.000Z</time>
      </trkpt>
      <trkpt lat="46.27903" lon="6.81884">
        <ele>1034</ele>
        <time>2000-01-01T07:26:49.000Z</time>
      </trkpt>
      <trkpt lat="46.27886" lon="6.81923">
        <ele>1035</ele>
        <time>2000-01-01T07:26:59.000Z</time>
      </trkpt>
      <trkpt lat="46.27869" lon="6.81961">
        <ele>1035</ele>
        <time>2000-01-01T07:27:09.000Z</time>
      </trkpt>
      <trkpt lat="46.2785" lon="6.82003">
        <ele>1037</ele>
        <time>2000-01-01T07:27:19.000Z</time>
      </trkpt>
      <trkpt lat="46.27822" lon="6.82046">
        <ele>1037</ele>
        <time>2000-01-01T07:27:29.000Z</time>
      </trkpt>
      <trkpt lat="46.27796" lon="6.82077">
        <ele>1037</ele>
        <time>2000-01-01T07:27:39.000Z</time>
      </trkpt>
      <trkpt lat="46.27783" lon="6.82072">
        <ele>1038.6</ele>
        <time>2000-01-01T07:27:49.000Z</time>
      </trkpt>
      <trkpt lat="46.27777" lon="6.82074">
        <ele>1039</ele>
        <time>2000-01-01T07:27:59.000Z</time>
      </trkpt>
      <trkpt lat="46.27769" lon="6.82085">
        <ele>1038.9</ele>
        <time>2000-01-01T07:28:09.000Z</time>
      </trkpt>
      <trkpt lat="46.2775" lon="6.8217">
        <ele>1039</ele>
        <time>2000-01-01T07:28:19.000Z</time>
      </trkpt>
      <trkpt lat="46.27736" lon="6.82199">
        <ele>1039</ele>
        <time>2000-01-01T07:28:29.000Z</time>
      </trkpt>
      <trkpt lat="46.27718" lon="6.82222">
        <ele>1040</ele>
        <time>2000-01-01T07:28:39.000Z</time>
      </trkpt>
      <trkpt lat="46.27699" lon="6.82246">
        <ele>1040</ele>
        <time>2000-01-01T07:28:49.000Z</time>
      </trkpt>
      <trkpt lat="46.27678" lon="6.82261">
        <ele>1041</ele>
        <time>2000-01-01T07:28:59.000Z</time>
      </trkpt>
      <trkpt lat="46.27656" lon="6.82276">
        <ele>1041</ele>
        <time>2000-01-01T07:29:09.000Z</time>
      </trkpt>
      <trkpt lat="46.27644" lon="6.82307">
        <ele>1042</ele>
        <time>2000-01-01T07:29:19.000Z</time>
      </trkpt>
      <trkpt lat="46.27628" lon="6.82338">
        <ele>1043</ele>
        <time>2000-01-01T07:29:29.000Z</time>
      </trkpt>
      <trkpt lat="46.27605" lon="6.82382">
        <ele>1043</ele>
        <time>2000-01-01T07:29:39.000Z</time>
      </trkpt>
      <trkpt lat="46.27567" lon="6.8241">
        <ele>1044</ele>
        <time>2000-01-01T07:29:49.000Z</time>
      </trkpt>
      <trkpt lat="46.27548" lon="6.82406">
        <ele>1046</ele>
        <time>2000-01-01T07:29:59.000Z</time>
      </trkpt>
      <trkpt lat="46.27531" lon="6.82432">
        <ele>1046</ele>
        <time>2000-01-01T07:30:09.000Z</time>
      </trkpt>
      <trkpt lat="46.27518" lon="6.82465">
        <ele>1047</ele>
        <time>2000-01-01T07:30:19.000Z</time>
      </trkpt>
      <trkpt lat="46.27501" lon="6.82507">
        <ele>1047</ele>
        <time>2000-01-01T07:30:29.000Z</time>
      </trkpt>
      <trkpt lat="46.27495" lon="6.82543">
        <ele>1047</ele>
        <time>2000-01-01T07:30:39.000Z</time>
      </trkpt>
      <trkpt lat="46.27487" lon="6.82586">
        <ele>1048</ele>
        <time>2000-01-01T07:30:49.000Z</time>
      </trkpt>
      <trkpt lat="46.2747" lon="6.82611">
        <ele>1049</ele>
        <time>2000-01-01T07:30:59.000Z</time>
      </trkpt>
      <trkpt lat="46.27449" lon="6.82639">
        <ele>1049</ele>
        <time>2000-01-01T07:31:09.000Z</time>
      </trkpt>
      <trkpt lat="46.27421" lon="6.82645">
        <ele>1050</ele>
        <time>2000-01-01T07:31:19.000Z</time>
      </trkpt>
      <trkpt lat="46.27376" lon="6.82653">
        <ele>1059</ele>
        <time>2000-01-01T07:31:29.000Z</time>
      </trkpt>
      <trkpt lat="46.27355" lon="6.82668">
        <ele>1064</ele>
        <time>2000-01-01T07:31:39.000Z</time>
      </trkpt>
      <trkpt lat="46.27333" lon="6.82684">
        <ele>1066</ele>
        <time>2000-01-01T07:31:49.000Z</time>
      </trkpt>
      <trkpt lat="46.27314" lon="6.82706">
        <ele>1070</ele>
        <time>2000-01-01T07:31:59.000Z</time>
      </trkpt>
      <trkpt lat="46.27292" lon="6.82729">
        <ele>1071</ele>
        <time>2000-01-01T07:32:09.000Z</time>
      </trkpt>
      <trkpt lat="46.27272" lon="6.82741">
        <ele>1073</ele>
        <time>2000-01-01T07:32:19.000Z</time>
      </trkpt>
      <trkpt lat="46.27248" lon="6.82787">
        <ele>1079</ele>
        <time>2000-01-01T07:32:29.000Z</time>
      </trkpt>
      <trkpt lat="46.27222" lon="6.82825">
        <ele>1079</ele>
        <time>2000-01-01T07:32:39.000Z</time>
      </trkpt>
      <trkpt lat="46.27202" lon="6.8285">
        <ele>1084</ele>
        <time>2000-01-01T07:32:49.000Z</time>
      </trkpt>
      <trkpt lat="46.27174" lon="6.82884">
        <ele>1086</ele>
        <time>2000-01-01T07:32:59.000Z</time>
      </trkpt>
      <trkpt lat="46.27146" lon="6.82912">
        <ele>1086</ele>
        <time>2000-01-01T07:33:09.000Z</time>
      </trkpt>
      <trkpt lat="46.27124" lon="6.82954">
        <ele>1086</ele>
        <time>2000-01-01T07:33:19.000Z</time>
      </trkpt>
      <trkpt lat="46.27106" lon="6.82974">
        <ele>1087</ele>
        <time>2000-01-01T07:33:29.000Z</time>
      </trkpt>
      <trkpt lat="46.27071" lon="6.83005">
        <ele>1088</ele>
        <time>2000-01-01T07:33:39.000Z</time>
      </trkpt>
      <trkpt lat="46.27054" lon="6.83029">
        <ele>1088</ele>
        <time>2000-01-01T07:33:49.000Z</time>
      </trkpt>
      <trkpt lat="46.27036" lon="6.83055">
        <ele>1089</ele>
        <time>2000-01-01T07:33:59.000Z</time>
      </trkpt>
      <trkpt lat="46.27013" lon="6.83073">
        <ele>1090</ele>
        <time>2000-01-01T07:34:09.000Z</time>
      </trkpt>
      <trkpt lat="46.26983" lon="6.83098">
        <ele>1091</ele>
        <time>2000-01-01T07:34:19.000Z</time>
      </trkpt>
      <trkpt lat="46.26962" lon="6.83122">
        <ele>1092</ele>
        <time>2000-01-01T07:34:29.000Z</time>
      </trkpt>
      <trkpt lat="46.26933" lon="6.83154">
        <ele>1097</ele>
        <time>2000-01-01T07:34:39.000Z</time>
      </trkpt>
      <trkpt lat="46.26917" lon="6.83167">
        <ele>1096.9</ele>
        <time>2000-01-01T07:34:49.000Z</time>
      </trkpt>
      <trkpt lat="46.26901" lon="6.83174">
        <ele>1097</ele>
        <time>2000-01-01T07:34:59.000Z</time>
      </trkpt>
      <trkpt lat="46.26873" lon="6.83176">
        <ele>1102</ele>
        <time>2000-01-01T07:35:09.000Z</time>
      </trkpt>
      <trkpt lat="46.26859" lon="6.8318">
        <ele>1103.4</ele>
        <time>2000-01-01T07:35:19.000Z</time>
      </trkpt>
      <trkpt lat="46.26818" lon="6.83191">
        <ele>1104</ele>
        <time>2000-01-01T07:35:29.000Z</time>
      </trkpt>
      <trkpt lat="46.26793" lon="6.83205">
        <ele>1106</ele>
        <time>2000-01-01T07:35:39.000Z</time>
      </trkpt>
      <trkpt lat="46.26768" lon="6.83226">
        <ele>1114</ele>
        <time>2000-01-01T07:35:49.000Z</time>
      </trkpt>
      <trkpt lat="46.26727" lon="6.8326">
        <ele>1112</ele>
        <time>2000-01-01T07:35:59.000Z</time>
      </trkpt>
      <trkpt lat="46.26716" lon="6.83262">
        <ele>1110.7</ele>
        <time>2000-01-01T07:36:09.000Z</time>
      </trkpt>
      <trkpt lat="46.26662" lon="6.83262">
        <ele>1114</ele>
        <time>2000-01-01T07:36:19.000Z</time>
      </trkpt>
      <trkpt lat="46.26639" lon="6.83275">
        <ele>1117</ele>
        <time>2000-01-01T07:36:29.000Z</time>
      </trkpt>
      <trkpt lat="46.26613" lon="6.83289">
        <ele>1117</ele>
        <time>2000-01-01T07:36:39.000Z</time>
      </trkpt>
      <trkpt lat="46.26606" lon="6.83289">
        <ele>1113.5</ele>
        <time>2000-01-01T07:36:49.000Z</time>
      </trkpt>
      <trkpt lat="46.26585" lon="6.8328">
        <ele>1115</ele>
        <time>2000-01-01T07:36:59.000Z</time>
      </trkpt>
      <trkpt lat="46.26576" lon="6.8328">
        <ele>1115.1</ele>
        <time>2000-01-01T07:37:09.000Z</time>
      </trkpt>
      <trkpt lat="46.26532" lon="6.83301">
        <ele>1117</ele>
        <time>2000-01-01T07:37:19.000Z</time>
      </trkpt>
      <trkpt lat="46.26522" lon="6.83303">
        <ele>1116.3</ele>
        <time>2000-01-01T07:37:29.000Z</time>
      </trkpt>
      <trkpt lat="46.26466" lon="6.83295">
        <ele>1119</ele>
        <time>2000-01-01T07:37:39.000Z</time>
      </trkpt>
      <trkpt lat="46.26429" lon="6.83299">
        <ele>1118</ele>
        <time>2000-01-01T07:37:49.000Z</time>
      </trkpt>
      <trkpt lat="46.26404" lon="6.83293">
        <ele>1118</ele>
        <time>2000-01-01T07:37:59.000Z</time>
      </trkpt>
      <trkpt lat="46.26373" lon="6.83285">
        <ele>1118</ele>
        <time>2000-01-01T07:38:09.000Z</time>
      </trkpt>
      <trkpt lat="46.26344" lon="6.83291">
        <ele>1112</ele>
        <time>2000-01-01T07:38:19.000Z</time>
      </trkpt>
      <trkpt lat="46.26296" lon="6.83301">
        <ele>1107</ele>
        <time>2000-01-01T07:38:29.000Z</time>
      </trkpt>
      <trkpt lat="46.26267" lon="6.83304">
        <ele>1105</ele>
        <time>2000-01-01T07:38:39.000Z</time>
      </trkpt>
      <trkpt lat="46.26214" lon="6.83311">
        <ele>1098</ele>
        <time>2000-01-01T07:38:49.000Z</time>
      </trkpt>
      <trkpt lat="46.26188" lon="6.83304">
        <ele>1095</ele>
        <time>2000-01-01T07:38:59.000Z</time>
      </trkpt>
      <trkpt lat="46.26154" lon="6.83294">
        <ele>1092</ele>
        <time>2000-01-01T07:39:09.000Z</time>
      </trkpt>
      <trkpt lat="46.26137" lon="6.83293">
        <ele>1092.8</ele>
        <time>2000-01-01T07:39:19.000Z</time>
      </trkpt>
      <trkpt lat="46.26106" lon="6.83281">
        <ele>1091</ele>
        <time>2000-01-01T07:39:29.000Z</time>
      </trkpt>
      <trkpt lat="46.26093" lon="6.83284">
        <ele>1091.5</ele>
        <time>2000-01-01T07:39:39.000Z</time>
      </trkpt>
      <trkpt lat="46.26088" lon="6.8329">
        <ele>1091</ele>
        <time>2000-01-01T07:39:49.000Z</time>
      </trkpt>
      <trkpt lat="46.26086" lon="6.83299">
        <ele>1091.6</ele>
        <time>2000-01-01T07:39:59.000Z</time>
      </trkpt>
      <trkpt lat="46.26111" lon="6.83366">
        <ele>1099</ele>
        <time>2000-01-01T07:40:09.000Z</time>
      </trkpt>
      <trkpt lat="46.26115" lon="6.83389">
        <ele>1099.6</ele>
        <time>2000-01-01T07:40:19.000Z</time>
      </trkpt>
      <trkpt lat="46.26108" lon="6.83422">
        <ele>1102</ele>
        <time>2000-01-01T07:40:29.000Z</time>
      </trkpt>
      <trkpt lat="46.26112" lon="6.83447">
        <ele>1103.1</ele>
        <time>2000-01-01T07:40:39.000Z</time>
      </trkpt>
      <trkpt lat="46.2611" lon="6.83464">
        <ele>1104</ele>
        <time>2000-01-01T07:40:49.000Z</time>
      </trkpt>
      <trkpt lat="46.26105" lon="6.83473">
        <ele>1106.3</ele>
        <time>2000-01-01T07:40:59.000Z</time>
      </trkpt>
      <trkpt lat="46.2609" lon="6.8347">
        <ele>1107</ele>
        <time>2000-01-01T07:41:09.000Z</time>
      </trkpt>
      <trkpt lat="46.26113" lon="6.83494">
        <ele>1107</ele>
        <time>2000-01-01T07:41:19.000Z</time>
      </trkpt>
      <trkpt lat="46.26135" lon="6.83507">
        <ele>1107</ele>
        <time>2000-01-01T07:41:29.000Z</time>
      </trkpt>
      <trkpt lat="46.26159" lon="6.83522">
        <ele>1108</ele>
        <time>2000-01-01T07:41:39.000Z</time>
      </trkpt>
      <trkpt lat="46.26186" lon="6.83551">
        <ele>1109</ele>
        <time>2000-01-01T07:41:49.000Z</time>
      </trkpt>
      <trkpt lat="46.26205" lon="6.83571">
        <ele>1110</ele>
        <time>2000-01-01T07:41:59.000Z</time>
      </trkpt>
      <trkpt lat="46.2623" lon="6.83585">
        <ele>1111</ele>
        <time>2000-01-01T07:42:09.000Z</time>
      </trkpt>
      <trkpt lat="46.26261" lon="6.83605">
        <ele>1113</ele>
        <time>2000-01-01T07:42:19.000Z</time>
      </trkpt>
      <trkpt lat="46.26289" lon="6.83633">
        <ele>1117</ele>
        <time>2000-01-01T07:42:29.000Z</time>
      </trkpt>
      <trkpt lat="46.26311" lon="6.83656">
        <ele>1120</ele>
        <time>2000-01-01T07:42:39.000Z</time>
      </trkpt>
      <trkpt lat="46.26341" lon="6.83687">
        <ele>1124</ele>
        <time>2000-01-01T07:42:49.000Z</time>
      </trkpt>
      <trkpt lat="46.26365" lon="6.83715">
        <ele>1128</ele>
        <time>2000-01-01T07:42:59.000Z</time>
      </trkpt>
      <trkpt lat="46.2641" lon="6.83767">
        <ele>1136</ele>
        <time>2000-01-01T07:43:09.000Z</time>
      </trkpt>
      <trkpt lat="46.26433" lon="6.8379">
        <ele>1139</ele>
        <time>2000-01-01T07:43:19.000Z</time>
      </trkpt>
      <trkpt lat="46.26465" lon="6.83822">
        <ele>1143</ele>
        <time>2000-01-01T07:43:29.000Z</time>
      </trkpt>
      <trkpt lat="46.26495" lon="6.83869">
        <ele>1148</ele>
        <time>2000-01-01T07:43:39.000Z</time>
      </trkpt>
      <trkpt lat="46.26516" lon="6.83903">
        <ele>1153</ele>
        <time>2000-01-01T07:43:49.000Z</time>
      </trkpt>
      <trkpt lat="46.26536" lon="6.83936">
        <ele>1157</ele>
        <time>2000-01-01T07:43:59.000Z</time>
      </trkpt>
      <trkpt lat="46.26558" lon="6.83971">
        <ele>1161</ele>
        <time>2000-01-01T07:44:09.000Z</time>
      </trkpt>
      <trkpt lat="46.26575" lon="6.83995">
        <ele>1162</ele>
        <time>2000-01-01T07:44:19.000Z</time>
      </trkpt>
      <trkpt lat="46.26594" lon="6.84006">
        <ele>1164</ele>
        <time>2000-01-01T07:44:29.000Z</time>
      </trkpt>
      <trkpt lat="46.26617" lon="6.84014">
        <ele>1167</ele>
        <time>2000-01-01T07:44:39.000Z</time>
      </trkpt>
      <trkpt lat="46.2664" lon="6.84022">
        <ele>1171</ele>
        <time>2000-01-01T07:44:49.000Z</time>
      </trkpt>
      <trkpt lat="46.26658" lon="6.84031">
        <ele>1172</ele>
        <time>2000-01-01T07:44:59.000Z</time>
      </trkpt>
      <trkpt lat="46.26672" lon="6.84044">
        <ele>1176.1</ele>
        <time>2000-01-01T07:45:09.000Z</time>
      </trkpt>
      <trkpt lat="46.26694" lon="6.84068">
        <ele>1177</ele>
        <time>2000-01-01T07:45:19.000Z</time>
      </trkpt>
      <trkpt lat="46.26725" lon="6.84073">
        <ele>1181</ele>
        <time>2000-01-01T07:45:29.000Z</time>
      </trkpt>
      <trkpt lat="46.26731" lon="6.84078">
        <ele>1184.2</ele>
        <time>2000-01-01T07:45:39.000Z</time>
      </trkpt>
      <trkpt lat="46.26735" lon="6.84087">
        <ele>1184.8</ele>
        <time>2000-01-01T07:45:49.000Z</time>
      </trkpt>
      <trkpt lat="46.26736" lon="6.84096">
        <ele>1185</ele>
        <time>2000-01-01T07:45:59.000Z</time>
      </trkpt>
      <trkpt lat="46.2672" lon="6.84097">
        <ele>1185.9</ele>
        <time>2000-01-01T07:46:09.000Z</time>
      </trkpt>
      <trkpt lat="46.26637" lon="6.84133">
        <ele>1190</ele>
        <time>2000-01-01T07:46:19.000Z</time>
      </trkpt>
      <trkpt lat="46.2661" lon="6.84144">
        <ele>1192</ele>
        <time>2000-01-01T07:46:29.000Z</time>
      </trkpt>
      <trkpt lat="46.26569" lon="6.8416">
        <ele>1195</ele>
        <time>2000-01-01T07:46:39.000Z</time>
      </trkpt>
      <trkpt lat="46.26548" lon="6.84166">
        <ele>1197</ele>
        <time>2000-01-01T07:46:49.000Z</time>
      </trkpt>
      <trkpt lat="46.2652" lon="6.84168">
        <ele>1198</ele>
        <time>2000-01-01T07:46:59.000Z</time>
      </trkpt>
      <trkpt lat="46.26479" lon="6.8417">
        <ele>1201</ele>
        <time>2000-01-01T07:47:09.000Z</time>
      </trkpt>
      <trkpt lat="46.26454" lon="6.84166">
        <ele>1201</ele>
        <time>2000-01-01T07:47:19.000Z</time>
      </trkpt>
      <trkpt lat="46.26433" lon="6.8416">
        <ele>1203</ele>
        <time>2000-01-01T07:47:29.000Z</time>
      </trkpt>
      <trkpt lat="46.26394" lon="6.84148">
        <ele>1205</ele>
        <time>2000-01-01T07:47:39.000Z</time>
      </trkpt>
      <trkpt lat="46.26356" lon="6.84136">
        <ele>1208</ele>
        <time>2000-01-01T07:47:49.000Z</time>
      </trkpt>
      <trkpt lat="46.26318" lon="6.84124">
        <ele>1210</ele>
        <time>2000-01-01T07:47:59.000Z</time>
      </trkpt>
      <trkpt lat="46.2628" lon="6.84112">
        <ele>1213</ele>
        <time>2000-01-01T07:48:09.000Z</time>
      </trkpt>
      <trkpt lat="46.26241" lon="6.841">
        <ele>1214</ele>
        <time>2000-01-01T07:48:19.000Z</time>
      </trkpt>
      <trkpt lat="46.26191" lon="6.84083">
        <ele>1218</ele>
        <time>2000-01-01T07:48:29.000Z</time>
      </trkpt>
      <trkpt lat="46.26164" lon="6.84076">
        <ele>1220</ele>
        <time>2000-01-01T07:48:39.000Z</time>
      </trkpt>
      <trkpt lat="46.26129" lon="6.84065">
        <ele>1222</ele>
        <time>2000-01-01T07:48:49.000Z</time>
      </trkpt>
      <trkpt lat="46.26092" lon="6.84064">
        <ele>1224</ele>
        <time>2000-01-01T07:48:59.000Z</time>
      </trkpt>
      <trkpt lat="46.26059" lon="6.8407">
        <ele>1226</ele>
        <time>2000-01-01T07:49:09.000Z</time>
      </trkpt>
      <trkpt lat="46.26026" lon="6.84076">
        <ele>1227</ele>
        <time>2000-01-01T07:49:19.000Z</time>
      </trkpt>
      <trkpt lat="46.25979" lon="6.84085">
        <ele>1229</ele>
        <time>2000-01-01T07:49:29.000Z</time>
      </trkpt>
      <trkpt lat="46.2596" lon="6.84085">
        <ele>1230</ele>
        <time>2000-01-01T07:49:39.000Z</time>
      </trkpt>
      <trkpt lat="46.25935" lon="6.84081">
        <ele>1231</ele>
        <time>2000-01-01T07:49:49.000Z</time>
      </trkpt>
      <trkpt lat="46.25904" lon="6.84073">
        <ele>1232</ele>
        <time>2000-01-01T07:49:59.000Z</time>
      </trkpt>
      <trkpt lat="46.25872" lon="6.84064">
        <ele>1234</ele>
        <time>2000-01-01T07:50:09.000Z</time>
      </trkpt>
      <trkpt lat="46.25835" lon="6.84054">
        <ele>1235</ele>
        <time>2000-01-01T07:50:19.000Z</time>
      </trkpt>
      <trkpt lat="46.25807" lon="6.84047">
        <ele>1237</ele>
        <time>2000-01-01T07:50:29.000Z</time>
      </trkpt>
      <trkpt lat="46.25764" lon="6.84036">
        <ele>1240</ele>
        <time>2000-01-01T07:50:39.000Z</time>
      </trkpt>
      <trkpt lat="46.2574" lon="6.8403">
        <ele>1242</ele>
        <time>2000-01-01T07:50:49.000Z</time>
      </trkpt>
      <trkpt lat="46.25712" lon="6.84022">
        <ele>1243</ele>
        <time>2000-01-01T07:50:59.000Z</time>
      </trkpt>
      <trkpt lat="46.25675" lon="6.84017">
        <ele>1249</ele>
        <time>2000-01-01T07:51:09.000Z</time>
      </trkpt>
      <trkpt lat="46.25665" lon="6.8402">
        <ele>1247.7</ele>
        <time>2000-01-01T07:51:19.000Z</time>
      </trkpt>
      <trkpt lat="46.25616" lon="6.8406">
        <ele>1250</ele>
        <time>2000-01-01T07:51:29.000Z</time>
      </trkpt>
      <trkpt lat="46.25594" lon="6.84071">
        <ele>1252</ele>
        <time>2000-01-01T07:51:39.000Z</time>
      </trkpt>
      <trkpt lat="46.25583" lon="6.84076">
        <ele>1254.4</ele>
        <time>2000-01-01T07:51:49.000Z</time>
      </trkpt>
      <trkpt lat="46.25571" lon="6.84084">
        <ele>1254</ele>
        <time>2000-01-01T07:51:59.000Z</time>
      </trkpt>
      <trkpt lat="46.25535" lon="6.84117">
        <ele>1260</ele>
        <time>2000-01-01T07:52:09.000Z</time>
      </trkpt>
      <trkpt lat="46.25519" lon="6.84139">
        <ele>1262</ele>
        <time>2000-01-01T07:52:19.000Z</time>
      </trkpt>
      <trkpt lat="46.25514" lon="6.84147">
        <ele>1261</ele>
        <time>2000-01-01T07:52:29.000Z</time>
      </trkpt>
      <trkpt lat="46.25508" lon="6.84166">
        <ele>1262</ele>
        <time>2000-01-01T07:52:39.000Z</time>
      </trkpt>
      <trkpt lat="46.25494" lon="6.84227">
        <ele>1263</ele>
        <time>2000-01-01T07:52:49.000Z</time>
      </trkpt>
      <trkpt lat="46.25489" lon="6.84238">
        <ele>1266.4</ele>
        <time>2000-01-01T07:52:59.000Z</time>
      </trkpt>
      <trkpt lat="46.25485" lon="6.84246">
        <ele>1266.8</ele>
        <time>2000-01-01T07:53:09.000Z</time>
      </trkpt>
      <trkpt lat="46.25471" lon="6.84262">
        <ele>1267</ele>
        <time>2000-01-01T07:53:19.000Z</time>
      </trkpt>
      <trkpt lat="46.25449" lon="6.84281">
        <ele>1270</ele>
        <time>2000-01-01T07:53:29.000Z</time>
      </trkpt>
      <trkpt lat="46.2542" lon="6.84303">
        <ele>1272</ele>
        <time>2000-01-01T07:53:39.000Z</time>
      </trkpt>
      <trkpt lat="46.25391" lon="6.84325">
        <ele>1273</ele>
        <time>2000-01-01T07:53:49.000Z</time>
      </trkpt>
      <trkpt lat="46.25351" lon="6.84355">
        <ele>1277</ele>
        <time>2000-01-01T07:53:59.000Z</time>
      </trkpt>
      <trkpt lat="46.25339" lon="6.84368">
        <ele>1278.8</ele>
        <time>2000-01-01T07:54:09.000Z</time>
      </trkpt>
      <trkpt lat="46.25335" lon="6.84379">
        <ele>1279</ele>
        <time>2000-01-01T07:54:19.000Z</time>
      </trkpt>
      <trkpt lat="46.25337" lon="6.84397">
        <ele>1280.5</ele>
        <time>2000-01-01T07:54:29.000Z</time>
      </trkpt>
      <trkpt lat="46.25343" lon="6.84405">
        <ele>1279</ele>
        <time>2000-01-01T07:54:39.000Z</time>
      </trkpt>
      <trkpt lat="46.25366" lon="6.84419">
        <ele>1281</ele>
        <time>2000-01-01T07:54:49.000Z</time>
      </trkpt>
      <trkpt lat="46.25393" lon="6.84435">
        <ele>1283</ele>
        <time>2000-01-01T07:54:59.000Z</time>
      </trkpt>
      <trkpt lat="46.25418" lon="6.84442">
        <ele>1286</ele>
        <time>2000-01-01T07:55:09.000Z</time>
      </trkpt>
      <trkpt lat="46.25452" lon="6.84451">
        <ele>1289</ele>
        <time>2000-01-01T07:55:19.000Z</time>
      </trkpt>
      <trkpt lat="46.25482" lon="6.84462">
        <ele>1291</ele>
        <time>2000-01-01T07:55:29.000Z</time>
      </trkpt>
      <trkpt lat="46.2554" lon="6.84483">
        <ele>1296</ele>
        <time>2000-01-01T07:55:39.000Z</time>
      </trkpt>
      <trkpt lat="46.25572" lon="6.84484">
        <ele>1299</ele>
        <time>2000-01-01T07:55:49.000Z</time>
      </trkpt>
      <trkpt lat="46.25604" lon="6.84486">
        <ele>1301</ele>
        <time>2000-01-01T07:55:59.000Z</time>
      </trkpt>
      <trkpt lat="46.25643" lon="6.84487">
        <ele>1302</ele>
        <time>2000-01-01T07:56:09.000Z</time>
      </trkpt>
      <trkpt lat="46.25657" lon="6.84484">
        <ele>1307.5</ele>
        <time>2000-01-01T07:56:19.000Z</time>
      </trkpt>
      <trkpt lat="46.25681" lon="6.84469">
        <ele>1304</ele>
        <time>2000-01-01T07:56:29.000Z</time>
      </trkpt>
      <trkpt lat="46.25687" lon="6.8447">
        <ele>1308</ele>
        <time>2000-01-01T07:56:39.000Z</time>
      </trkpt>
      <trkpt lat="46.2569" lon="6.84473">
        <ele>1309.5</ele>
        <time>2000-01-01T07:56:49.000Z</time>
      </trkpt>
      <trkpt lat="46.25692" lon="6.84489">
        <ele>1310</ele>
        <time>2000-01-01T07:56:59.000Z</time>
      </trkpt>
      <trkpt lat="46.25682" lon="6.84498">
        <ele>1314.2</ele>
        <time>2000-01-01T07:57:09.000Z</time>
      </trkpt>
      <trkpt lat="46.25603" lon="6.84519">
        <ele>1311</ele>
        <time>2000-01-01T07:57:19.000Z</time>
      </trkpt>
      <trkpt lat="46.2558" lon="6.84529">
        <ele>1313</ele>
        <time>2000-01-01T07:57:29.000Z</time>
      </trkpt>
      <trkpt lat="46.25556" lon="6.84539">
        <ele>1320</ele>
        <time>2000-01-01T07:57:39.000Z</time>
      </trkpt>
      <trkpt lat="46.25511" lon="6.84537">
        <ele>1325</ele>
        <time>2000-01-01T07:57:49.000Z</time>
      </trkpt>
      <trkpt lat="46.25501" lon="6.84541">
        <ele>1325.8</ele>
        <time>2000-01-01T07:57:59.000Z</time>
      </trkpt>
      <trkpt lat="46.25471" lon="6.84566">
        <ele>1329</ele>
        <time>2000-01-01T07:58:09.000Z</time>
      </trkpt>
      <trkpt lat="46.25456" lon="6.84572">
        <ele>1332.8</ele>
        <time>2000-01-01T07:58:19.000Z</time>
      </trkpt>
      <trkpt lat="46.25442" lon="6.84574">
        <ele>1332</ele>
        <time>2000-01-01T07:58:29.000Z</time>
      </trkpt>
      <trkpt lat="46.25413" lon="6.84566">
        <ele>1335</ele>
        <time>2000-01-01T07:58:39.000Z</time>
      </trkpt>
      <trkpt lat="46.25403" lon="6.84568">
        <ele>1336.1</ele>
        <time>2000-01-01T07:58:49.000Z</time>
      </trkpt>
      <trkpt lat="46.25319" lon="6.84611">
        <ele>1341</ele>
        <time>2000-01-01T07:58:59.000Z</time>
      </trkpt>
      <trkpt lat="46.25291" lon="6.84619">
        <ele>1341</ele>
        <time>2000-01-01T07:59:09.000Z</time>
      </trkpt>
      <trkpt lat="46.25259" lon="6.84613">
        <ele>1344</ele>
        <time>2000-01-01T07:59:19.000Z</time>
      </trkpt>
      <trkpt lat="46.25214" lon="6.84598">
        <ele>1348</ele>
        <time>2000-01-01T07:59:29.000Z</time>
      </trkpt>
      <trkpt lat="46.25184" lon="6.84601">
        <ele>1351</ele>
        <time>2000-01-01T07:59:39.000Z</time>
      </trkpt>
      <trkpt lat="46.25175" lon="6.84597">
        <ele>1351.1</ele>
        <time>2000-01-01T07:59:49.000Z</time>
      </trkpt>
      <trkpt lat="46.25144" lon="6.84579">
        <ele>1354</ele>
        <time>2000-01-01T07:59:59.000Z</time>
      </trkpt>
      <trkpt lat="46.25115" lon="6.84572">
        <ele>1357</ele>
        <time>2000-01-01T08:00:09.000Z</time>
      </trkpt>
      <trkpt lat="46.25068" lon="6.84561">
        <ele>1361</ele>
        <time>2000-01-01T08:00:19.000Z</time>
      </trkpt>
      <trkpt lat="46.25042" lon="6.84562">
        <ele>1363</ele>
        <time>2000-01-01T08:00:29.000Z</time>
      </trkpt>
      <trkpt lat="46.25011" lon="6.84563">
        <ele>1366</ele>
        <time>2000-01-01T08:00:39.000Z</time>
      </trkpt>
      <trkpt lat="46.24994" lon="6.84568">
        <ele>1369.1</ele>
        <time>2000-01-01T08:00:49.000Z</time>
      </trkpt>
      <trkpt lat="46.2497" lon="6.84589">
        <ele>1369</ele>
        <time>2000-01-01T08:00:59.000Z</time>
      </trkpt>
      <trkpt lat="46.24962" lon="6.84604">
        <ele>1370.4</ele>
        <time>2000-01-01T08:01:09.000Z</time>
      </trkpt>
      <trkpt lat="46.24952" lon="6.84597">
        <ele>1369</ele>
        <time>2000-01-01T08:01:19.000Z</time>
      </trkpt>
      <trkpt lat="46.24932" lon="6.846">
        <ele>1369</ele>
        <time>2000-01-01T08:01:29.000Z</time>
      </trkpt>
      <trkpt lat="46.249" lon="6.84609">
        <ele>1374</ele>
        <time>2000-01-01T08:01:39.000Z</time>
      </trkpt>
      <trkpt lat="46.24868" lon="6.84618">
        <ele>1375</ele>
        <time>2000-01-01T08:01:49.000Z</time>
      </trkpt>
      <trkpt lat="46.24828" lon="6.84629">
        <ele>1374</ele>
        <time>2000-01-01T08:01:59.000Z</time>
      </trkpt>
      <trkpt lat="46.24792" lon="6.84646">
        <ele>1374</ele>
        <time>2000-01-01T08:02:09.000Z</time>
      </trkpt>
      <trkpt lat="46.2476" lon="6.84649">
        <ele>1375</ele>
        <time>2000-01-01T08:02:19.000Z</time>
      </trkpt>
      <trkpt lat="46.24729" lon="6.84652">
        <ele>1375</ele>
        <time>2000-01-01T08:02:29.000Z</time>
      </trkpt>
      <trkpt lat="46.24694" lon="6.84655">
        <ele>1376</ele>
        <time>2000-01-01T08:02:39.000Z</time>
      </trkpt>
      <trkpt lat="46.2466" lon="6.84672">
        <ele>1377</ele>
        <time>2000-01-01T08:02:49.000Z</time>
      </trkpt>
      <trkpt lat="46.24643" lon="6.84676">
        <ele>1377.2</ele>
        <time>2000-01-01T08:02:59.000Z</time>
      </trkpt>
      <trkpt lat="46.24631" lon="6.84681">
        <ele>1377</ele>
        <time>2000-01-01T08:03:09.000Z</time>
      </trkpt>
    </trkseg>
  </trk>
</gpx>